Air Quality Table

TIMESTAMP NO2 SO2 O3 PM10 PM2.5 CO TEMP HUM AIRPRES WS WD NO BENZENE
2023-02-03 21:00 47.51 µg/m3 1.6 µg/m3 13.27 µg/m3 22.65 µg/m3 10.51 µg/m3 0.66 mg/m3 10.51 °C 82.16 % 1,026.14 mbar 0.89 m/s 233.43 Deg 35.6 µg/m3 4.7 µg/m3
2023-02-03 20:00 57.09 µg/m3 1.72 µg/m3 12.33 µg/m3 25.05 µg/m3 11.57 µg/m3 0.57 mg/m3 10.91 °C 81.43 % 1,026.06 mbar 0.77 m/s 231.26 Deg 50.29 µg/m3 2.99 µg/m3
2023-02-03 19:00 61.97 µg/m3 1.43 µg/m3 12.6 µg/m3 31.46 µg/m3 13.25 µg/m3 0.52 mg/m3 12.25 °C 75.93 % 1,026.21 mbar 0.56 m/s 189.35 Deg 53.29 µg/m3 3.46 µg/m3
2023-02-03 18:00 59.93 µg/m3 1.53 µg/m3 18.44 µg/m3 32.52 µg/m3 19.08 µg/m3 0.45 mg/m3 13.59 °C 70.6 % 1,026.01 mbar 0.76 m/s 141.78 Deg 38.86 µg/m3 4.09 µg/m3
2023-02-03 17:00 41.74 µg/m3 1.34 µg/m3 39.85 µg/m3 26.96 µg/m3 8.98 µg/m3 0.36 mg/m3 15.12 °C 63.43 % 1,025.66 mbar 1.06 m/s 155.39 Deg 18.33 µg/m3 1.44 µg/m3
2023-02-03 16:00 29.03 µg/m3 1.28 µg/m3 49.07 µg/m3 27.9 µg/m3 8.29 µg/m3 0.35 mg/m3 15.47 °C 60.86 % 1,025.37 mbar 1.56 m/s 126.78 Deg 13.23 µg/m3 2.03 µg/m3
2023-02-03 15:00 19.94 µg/m3 0.92 µg/m3 60.88 µg/m3 20.55 µg/m3 7.95 µg/m3 0.36 mg/m3 15.17 °C 64.46 % 1,025.05 mbar 2.53 m/s 60.94 Deg 9.15 µg/m3 1.47 µg/m3
2023-02-03 14:00 19.99 µg/m3 1.04 µg/m3 54.11 µg/m3 20.92 µg/m3 8.28 µg/m3 0.39 mg/m3 15.15 °C 67.11 % 1,025.20 mbar 2.52 m/s 64.96 Deg 8.29 µg/m3 2.05 µg/m3
2023-02-03 13:00 18.07 µg/m3 0.86 µg/m3 55.69 µg/m3 20.93 µg/m3 7.59 µg/m3 0.44 mg/m3 15.22 °C 67.52 % 1,025.68 mbar 2.4 m/s 62.31 Deg 8.3 µg/m3 1.18 µg/m3
2023-02-03 12:00 22.93 µg/m3 1.01 µg/m3 49.57 µg/m3 22.46 µg/m3 7.54 µg/m3 0.53 mg/m3 14.99 °C 68.67 % 1,026.35 mbar 2.15 m/s 56.88 Deg 13.23 µg/m3 1.63 µg/m3
2023-02-03 11:00 32.31 µg/m3 1.59 µg/m3 37.52 µg/m3 34.14 µg/m3 9.94 µg/m3 0.65 mg/m3 14.65 °C 70.79 % 1,026.61 mbar 1.6 m/s 62.43 Deg 19.95 µg/m3 2.6 µg/m3
2023-02-03 10:00 51.73 µg/m3 2.29 µg/m3 8.34 µg/m3 58.17 µg/m3 15.47 µg/m3 0.75 mg/m3 13.73 °C 75.47 % 1,026.29 mbar 0.26 m/s 199.34 Deg 91.51 µg/m3 4.97 µg/m3
2023-02-03 09:00 46.62 µg/m3 2.72 µg/m3 1.56 µg/m3 77.32 µg/m3 18.1 µg/m3 0.76 mg/m3 11.66 °C 83.16 % 1,025.60 mbar 0.43 m/s 221.2 Deg 153.7 µg/m3 5.2 µg/m3
2023-02-03 08:00 46.03 µg/m3 2.26 µg/m3 1.31 µg/m3 52.83 µg/m3 13.5 µg/m3 0.65 mg/m3 10.05 °C 84.54 % 1,024.90 mbar 1.03 m/s 235.86 Deg 117.35 µg/m3 4.2 µg/m3
2023-02-03 07:00 46.32 µg/m3 2.14 µg/m3 1.38 µg/m3 41.92 µg/m3 12.39 µg/m3 0.51 mg/m3 9.35 °C 86.41 % 1,024.36 mbar 0.65 m/s 229.36 Deg 132.43 µg/m3 4.88 µg/m3
2023-02-03 06:00 38.64 µg/m3 1.37 µg/m3 9.18 µg/m3 17.48 µg/m3 6.16 µg/m3 0.34 mg/m3 10.5 °C 81.21 % 1,024.14 mbar 0.62 m/s 218.61 Deg 71.04 µg/m3 2.05 µg/m3
2023-02-03 05:00 20.84 µg/m3 0.55 µg/m3 24.62 µg/m3 11.97 µg/m3 4.74 µg/m3 0.27 mg/m3 10.24 °C 82.53 % 1,023.80 mbar 0.87 m/s 232.44 Deg 14.07 µg/m3 0.89 µg/m3
2023-02-03 04:00 12.51 µg/m3 0.67 µg/m3 44.84 µg/m3 9.36 µg/m3 4.26 µg/m3 0.27 mg/m3 11.69 °C 77.36 % 1,024.06 mbar 0.78 m/s 220.94 Deg 2.36 µg/m3 0.73 µg/m3
2023-02-03 03:00 23.28 µg/m3 0.48 µg/m3 42.97 µg/m3 8.36 µg/m3 4.01 µg/m3 0.21 mg/m3 12.37 °C 73.93 % 1,024.04 mbar 1.04 m/s 219.38 Deg 1.8 µg/m3 0.68 µg/m3
2023-02-03 02:00 8.72 µg/m3 0.48 µg/m3 46.33 µg/m3 9.43 µg/m3 4.24 µg/m3 0.31 mg/m3 12.66 °C 72.5 % 1,024.10 mbar 0.78 m/s 219.88 Deg 2.13 µg/m3 0.68 µg/m3
2023-02-03 01:00 8.62 µg/m3 0.54 µg/m3 46.62 µg/m3 9.44 µg/m3 4.75 µg/m3 0.35 mg/m3 12.38 °C 75.14 % 1,024.34 mbar 1.1 m/s 221.32 Deg 2.03 µg/m3 0.87 µg/m3
2023-02-03 00:00 19.25 µg/m3 0.87 µg/m3 34.4 µg/m3 12.09 µg/m3 5.55 µg/m3 0.39 mg/m3 12.01 °C 78.88 % 1,024.44 mbar 1.37 m/s 219.55 Deg 8.98 µg/m3 1.15 µg/m3
2023-02-02 23:00 17.08 µg/m3 0.58 µg/m3 38.04 µg/m3 11.58 µg/m3 5.29 µg/m3 0.39 mg/m3 11.79 °C 79.74 % 1,024.25 mbar 1.23 m/s 220.66 Deg 7.8 µg/m3 0.84 µg/m3
2023-02-02 22:00 19.24 µg/m3 0.61 µg/m3 38.68 µg/m3 12.08 µg/m3 5.52 µg/m3 0.41 mg/m3 11.99 °C 78.84 % 1,024.00 mbar 1.39 m/s 224.6 Deg 8.19 µg/m3 1.26 µg/m3
2023-02-02 21:00 33.93 µg/m3 0.69 µg/m3 24.85 µg/m3 16.84 µg/m3 6.61 µg/m3 0.41 mg/m3 12.35 °C 78.81 % 1,023.82 mbar 1.06 m/s 220.92 Deg 19.34 µg/m3 1.5 µg/m3
2023-02-02 20:00 29.08 µg/m3 1 µg/m3 28.98 µg/m3 16.74 µg/m3 6.09 µg/m3 0.39 mg/m3 12.31 °C 80.08 % 1,023.51 mbar 1.19 m/s 218.38 Deg 16.75 µg/m3 1.6 µg/m3
2023-02-02 19:00 34.47 µg/m3 0.81 µg/m3 30 µg/m3 19.55 µg/m3 7.17 µg/m3 0.36 mg/m3 13.21 °C 80.28 % 1,023.13 mbar 0.69 m/s 286.46 Deg 10.89 µg/m3 3.62 µg/m3
2023-02-02 18:00 22.58 µg/m3 0.7 µg/m3 39.85 µg/m3 17.75 µg/m3 5.99 µg/m3 0.31 mg/m3 13.52 °C 77.91 % 1,022.67 mbar 1.25 m/s 276.72 Deg 5.11 µg/m3 1.1 µg/m3
2023-02-02 17:00 19.66 µg/m3 0.59 µg/m3 46.36 µg/m3 16.33 µg/m3 5.93 µg/m3 0.29 mg/m3 14.05 °C 75.8 % 1,022.19 mbar 1.61 m/s 281.63 Deg 7.1 µg/m3 1.24 µg/m3
2023-02-02 16:00 17.7 µg/m3 0.6 µg/m3 50.42 µg/m3 10.5 µg/m3 5.05 µg/m3 0.3 mg/m3 13.77 °C 79.13 % 1,022.06 mbar 1.73 m/s 321.46 Deg 7.06 µg/m3 0.87 µg/m3
2023-02-02 15:00 17.71 µg/m3 0.45 µg/m3 46.08 µg/m3 8.22 µg/m3 4.71 µg/m3 0.28 mg/m3 12.76 °C 90.85 % 1,022.18 mbar 1.98 m/s 279.34 Deg 8.25 µg/m3 0.94 µg/m3
2023-02-02 14:00 15.9 µg/m3 0.36 µg/m3 49.99 µg/m3 17.22 µg/m3 6.2 µg/m3 0.28 mg/m3 12.92 °C 88.26 % 1,022.52 mbar 3.61 m/s 254.4 Deg 7.87 µg/m3 0.97 µg/m3
2023-02-02 13:00 19.14 µg/m3 0.54 µg/m3 46.62 µg/m3 10.93 µg/m3 5.41 µg/m3 0.28 mg/m3 13.99 °C 78.79 % 1,023.07 mbar 2.47 m/s 254.56 Deg 7.97 µg/m3 1.05 µg/m3
2023-02-02 12:00 12.75 µg/m3 0.52 µg/m3 54.2 µg/m3 8.33 µg/m3 4.75 µg/m3 0.29 mg/m3 13.68 °C 79.92 % 1,023.84 mbar 2.77 m/s 293.26 Deg 5.54 µg/m3 1.1 µg/m3
2023-02-02 11:00 15.24 µg/m3 0.73 µg/m3 50.98 µg/m3 8.43 µg/m3 4.72 µg/m3 0.29 mg/m3 13.61 °C 80.79 % 1,023.86 mbar 2.82 m/s 310.9 Deg 6.77 µg/m3 0.94 µg/m3
2023-02-02 10:00 21.7 µg/m3 0.58 µg/m3 47.71 µg/m3 10.91 µg/m3 5.4 µg/m3 0.3 mg/m3 12.66 °C 85.81 % 1,023.51 mbar 2.28 m/s 295.96 Deg 9.04 µg/m3 1.36 µg/m3
2023-02-02 09:00 27.36 µg/m3 0.69 µg/m3 42.31 µg/m3 13.2 µg/m3 6.1 µg/m3 0.28 mg/m3 13.69 °C 79.32 % 1,022.96 mbar 1.89 m/s 262.09 Deg 9.67 µg/m3 1.36 µg/m3
2023-02-02 08:00 22.48 µg/m3 0.59 µg/m3 48.21 µg/m3 8.27 µg/m3 4.21 µg/m3 0.27 mg/m3 13.89 °C 72.1 % 1,022.63 mbar 3.1 m/s 269.33 Deg 7.68 µg/m3 1.34 µg/m3
2023-02-02 07:00 19.28 µg/m3 0.51 µg/m3 52.43 µg/m3 7.21 µg/m3 4.13 µg/m3 0.26 mg/m3 13.7 °C 74.69 % 1,022.37 mbar 2.96 m/s 275.68 Deg 6.67 µg/m3 1.12 µg/m3
2023-02-02 06:00 10.41 µg/m3 0.52 µg/m3 55.99 µg/m3 7.13 µg/m3 4.13 µg/m3 0.26 mg/m3 13.52 °C 76 % 1,022.18 mbar 3.34 m/s 260.73 Deg 2.18 µg/m3 0.79 µg/m3
2023-02-02 05:00 10.12 µg/m3 0.43 µg/m3 59.81 µg/m3 6.78 µg/m3 3.69 µg/m3 0.26 mg/m3 13.02 °C 75.73 % 1,022.18 mbar 2.58 m/s 249.95 Deg 2.7 µg/m3 0.79 µg/m3
2023-02-02 04:00 7.95 µg/m3 0.41 µg/m3 59.71 µg/m3 6.94 µg/m3 4.07 µg/m3 0.27 mg/m3 12.81 °C 75.58 % 1,022.54 mbar 1.68 m/s 227.69 Deg 0.25 µg/m3 0.79 µg/m3
2023-02-02 03:00 22.67 µg/m3 0.38 µg/m3 61.63 µg/m3 7.54 µg/m3 4.41 µg/m3 0.2 mg/m3 12.85 °C 73.17 % 1,023.20 mbar 1.58 m/s 228.18 Deg 0.43 µg/m3 0.73 µg/m3
2023-02-02 02:00 7.95 µg/m3 0.59 µg/m3 60.23 µg/m3 8.36 µg/m3 4.55 µg/m3 0.33 mg/m3 12.62 °C 73.23 % 1,023.63 mbar 1.36 m/s 224.79 Deg 1.15 µg/m3 1.02 µg/m3
2023-02-02 01:00 8.95 µg/m3 0.48 µg/m3 51.06 µg/m3 7.76 µg/m3 4.37 µg/m3 0.38 mg/m3 11.17 °C 75.15 % 1,024.02 mbar 1.12 m/s 228.55 Deg 1.42 µg/m3 1.03 µg/m3
2023-02-02 00:00 20.51 µg/m3 0.77 µg/m3 51.41 µg/m3 7.19 µg/m3 4.11 µg/m3 0.41 mg/m3 11.72 °C 69.02 % 1,024.46 mbar 1.1 m/s 206.75 Deg 8.11 µg/m3 0.91 µg/m3
2023-02-01 23:00 19.29 µg/m3 0.62 µg/m3 53.79 µg/m3 7.35 µg/m3 4.17 µg/m3 0.43 mg/m3 11.74 °C 68.32 % 1,024.45 mbar 1.29 m/s 215.68 Deg 5.32 µg/m3 1.23 µg/m3
2023-02-01 22:00 15.76 µg/m3 0.61 µg/m3 56.86 µg/m3 7.06 µg/m3 3.82 µg/m3 0.47 mg/m3 11.78 °C 66.32 % 1,024.43 mbar 1.25 m/s 217.88 Deg 4.92 µg/m3 1.29 µg/m3
2023-02-01 21:00 23.46 µg/m3 0.95 µg/m3 47.07 µg/m3 8.91 µg/m3 4.08 µg/m3 0.5 mg/m3 11.59 °C 63.66 % 1,024.65 mbar 1.31 m/s 217.68 Deg 9.74 µg/m3 3.1 µg/m3
2023-02-01 20:00 41.38 µg/m3 0.98 µg/m3 35.26 µg/m3 11.63 µg/m3 4.98 µg/m3 0.49 mg/m3 11.54 °C 62.44 % 1,024.77 mbar 1.13 m/s 208.59 Deg 26.58 µg/m3 2.47 µg/m3
2023-02-01 19:00 49.18 µg/m3 1.15 µg/m3 29.42 µg/m3 14.9 µg/m3 6.79 µg/m3 0.4 mg/m3 11.31 °C 63.42 % 1,024.70 mbar 1.05 m/s 214.17 Deg 29.89 µg/m3 2.52 µg/m3
2023-02-01 18:00 41.93 µg/m3 1.04 µg/m3 36.61 µg/m3 15.94 µg/m3 6.29 µg/m3 0.36 mg/m3 12.21 °C 60.89 % 1,024.44 mbar 1.25 m/s 241.3 Deg 17.53 µg/m3 1.73 µg/m3
2023-02-01 17:00 27.63 µg/m3 0.81 µg/m3 55.08 µg/m3 14.03 µg/m3 5.98 µg/m3 0.31 mg/m3 13.79 °C 56.85 % 1,024.13 mbar 1.94 m/s 273.92 Deg 8.5 µg/m3 1.54 µg/m3
2023-02-01 16:00 21.14 µg/m3 1.21 µg/m3 59.65 µg/m3 12.21 µg/m3 5.69 µg/m3 0.33 mg/m3 14.15 °C 56.4 % 1,024.12 mbar 2.27 m/s 259.17 Deg 7.52 µg/m3 2.41 µg/m3
2023-02-01 15:00 17.77 µg/m3 1.29 µg/m3 62.21 µg/m3 14.69 µg/m3 5.59 µg/m3 0.36 mg/m3 14.21 °C 53.75 % 1,024.11 mbar 1.9 m/s 145.08 Deg 9.26 µg/m3 1.68 µg/m3
2023-02-01 14:00 14.17 µg/m3 1.6 µg/m3 64.09 µg/m3 23.19 µg/m3 7.24 µg/m3 0.39 mg/m3 13.98 °C 52.16 % 1,024.09 mbar 1.96 m/s 124.65 Deg 5.18 µg/m3 1.86 µg/m3
2023-02-01 13:00 15.17 µg/m3 1.41 µg/m3 63.64 µg/m3 16.36 µg/m3 5.85 µg/m3 0.42 mg/m3 13.68 °C 52.34 % 1,024.65 mbar 2.08 m/s 50.63 Deg 7.03 µg/m3 1.68 µg/m3
2023-02-01 12:00 18.13 µg/m3 1.2 µg/m3 56.54 µg/m3 19.78 µg/m3 6.59 µg/m3 0.47 mg/m3 13.56 °C 53.88 % 1,025.28 mbar 2.46 m/s 52 Deg 10.98 µg/m3 1.4 µg/m3
2023-02-01 11:00 27.52 µg/m3 1.36 µg/m3 44.83 µg/m3 31.25 µg/m3 8.72 µg/m3 0.59 mg/m3 13.44 °C 54.98 % 1,025.62 mbar 1.77 m/s 51.97 Deg 14.09 µg/m3 2.59 µg/m3
2023-02-01 10:00 50.06 µg/m3 1.89 µg/m3 21.12 µg/m3 44.79 µg/m3 12.91 µg/m3 0.72 mg/m3 12.97 °C 60.86 % 1,025.38 mbar 0.62 m/s 57.35 Deg 41.27 µg/m3 3.97 µg/m3
2023-02-01 09:00 68.34 µg/m3 2.99 µg/m3 2.17 µg/m3 53.23 µg/m3 15.5 µg/m3 0.81 mg/m3 10.53 °C 71.12 % 1,024.72 mbar 0.55 m/s 178.96 Deg 152.69 µg/m3 5.77 µg/m3
2023-02-01 08:00 62.74 µg/m3 2.6 µg/m3 3.32 µg/m3 41.46 µg/m3 12.45 µg/m3 0.7 mg/m3 9.67 °C 71.42 % 1,024.20 mbar 0.84 m/s 222.16 Deg 144.1 µg/m3 4.74 µg/m3
2023-02-01 07:00 63.07 µg/m3 2.32 µg/m3 6.42 µg/m3 30.57 µg/m3 10.62 µg/m3 0.53 mg/m3 10.3 °C 64.71 % 1,023.71 mbar 0.96 m/s 221.53 Deg 136.27 µg/m3 4.72 µg/m3
2023-02-01 06:00 29.97 µg/m3 0.59 µg/m3 36.73 µg/m3 11.24 µg/m3 5.34 µg/m3 0.3 mg/m3 10.38 °C 64.37 % 1,023.26 mbar 0.83 m/s 251.05 Deg 22.14 µg/m3 1.12 µg/m3
2023-02-01 05:00 12.49 µg/m3 0.44 µg/m3 46.17 µg/m3 11.05 µg/m3 5.32 µg/m3 0.26 mg/m3 10.31 °C 69.24 % 1,022.95 mbar 1.1 m/s 210.38 Deg 5.26 µg/m3 1.18 µg/m3
2023-02-01 04:00 8.9 µg/m3 0.42 µg/m3 48.63 µg/m3 8.91 µg/m3 5.13 µg/m3 0.26 mg/m3 10.54 °C 69.51 % 1,022.58 mbar 0.95 m/s 221.85 Deg 0.91 µg/m3 1.76 µg/m3
2023-02-01 03:00 20.56 µg/m3 0.58 µg/m3 60.32 µg/m3 8.98 µg/m3 5.25 µg/m3 0.17 mg/m3 11.8 °C 64.75 % 1,022.50 mbar 1.63 m/s 145.6 Deg 0.31 µg/m3 1.15 µg/m3
2023-02-01 02:00 0.77 µg/m3 0.41 µg/m3 67.59 µg/m3 8.41 µg/m3 5.11 µg/m3 0.23 mg/m3 13.15 °C 60.45 % 1,022.29 mbar 3.72 m/s 35.76 Deg -0.17 µg/m3 1.12 µg/m3
2023-02-01 01:00 0.11 µg/m3 0.57 µg/m3 67.09 µg/m3 8 µg/m3 4.94 µg/m3 0.24 mg/m3 13.35 °C 58.95 % 1,022.02 mbar 5.16 m/s 43.18 Deg 0.1 µg/m3 1.08 µg/m3
2023-02-01 00:00 0.46 µg/m3 0.42 µg/m3 67.77 µg/m3 7.72 µg/m3 4.84 µg/m3 0.25 mg/m3 13.65 °C 59.34 % 1,021.78 mbar 6.25 m/s 197.91 Deg 0.02 µg/m3 0.94 µg/m3
2023-01-31 23:00 0.46 µg/m3 0.5 µg/m3 67.14 µg/m3 9.49 µg/m3 5.58 µg/m3 0.26 mg/m3 13.7 °C 62.71 % 1,021.40 mbar 6.25 m/s 41.11 Deg -0.21 µg/m3 0.86 µg/m3
2023-01-31 22:00 2.68 µg/m3 0.45 µg/m3 64.26 µg/m3 13.61 µg/m3 7.16 µg/m3 0.25 mg/m3 13.83 °C 65.86 % 1,021.10 mbar 3.92 m/s 107.2 Deg 1.4 µg/m3 0.94 µg/m3
2023-01-31 21:00 2.99 µg/m3 0.36 µg/m3 60.37 µg/m3 14.15 µg/m3 7.53 µg/m3 0.24 mg/m3 13.81 °C 67.74 % 1,020.71 mbar 3.41 m/s 338.34 Deg 0.77 µg/m3 0.92 µg/m3
2023-01-31 20:00 5.88 µg/m3 0.42 µg/m3 62.74 µg/m3 18.01 µg/m3 8.18 µg/m3 0.24 mg/m3 13.8 °C 70.02 % 1,020.27 mbar 3.76 m/s 263.79 Deg 2.12 µg/m3 0.92 µg/m3
2023-01-31 19:00 11.12 µg/m3 0.56 µg/m3 58.66 µg/m3 17.34 µg/m3 7.2 µg/m3 0.23 mg/m3 13.55 °C 67.25 % 1,020.09 mbar 2.53 m/s 303.79 Deg 2.52 µg/m3 1.03 µg/m3
2023-01-31 18:00 12.17 µg/m3 0.57 µg/m3 58.28 µg/m3 18.04 µg/m3 7.25 µg/m3 0.22 mg/m3 13.93 °C 64.29 % 1,019.62 mbar 2.82 m/s 339.41 Deg 4.34 µg/m3 1.1 µg/m3
2023-01-31 17:00 6.01 µg/m3 0.52 µg/m3 63.74 µg/m3 14.24 µg/m3 6.17 µg/m3 0.21 mg/m3 14.54 °C 59.6 % 1,018.96 mbar 4.64 m/s 342.7 Deg 2.66 µg/m3 1.03 µg/m3
2023-01-31 16:00 4.83 µg/m3 0.49 µg/m3 65.21 µg/m3 16.02 µg/m3 7.06 µg/m3 0.21 mg/m3 14.6 °C 60.82 % 1,018.62 mbar 5.41 m/s 346.33 Deg 2.7 µg/m3 0.81 µg/m3
2023-01-31 15:00 7.68 µg/m3 0.58 µg/m3 62.89 µg/m3 18.45 µg/m3 7.53 µg/m3 0.2 mg/m3 14.29 °C 63.75 % 1,018.67 mbar 4.76 m/s 341.76 Deg 3.38 µg/m3 0.89 µg/m3
2023-01-31 14:00 6.88 µg/m3 0.49 µg/m3 64 µg/m3 16.8 µg/m3 7.22 µg/m3 0.21 mg/m3 14.2 °C 62.01 % 1,018.95 mbar 4.6 m/s 324.14 Deg 2.97 µg/m3 0.91 µg/m3
2023-01-31 13:00 6.26 µg/m3 0.58 µg/m3 65.26 µg/m3 17.55 µg/m3 7.45 µg/m3 0.21 mg/m3 14.62 °C 61.42 % 1,019.32 mbar 5.24 m/s 321.44 Deg 2.61 µg/m3 0.86 µg/m3
2023-01-31 12:00 8.28 µg/m3 0.38 µg/m3 62.81 µg/m3 20.03 µg/m3 8.21 µg/m3 0.23 mg/m3 14.7 °C 60.23 % 1,019.84 mbar 4.83 m/s 320.33 Deg 4.45 µg/m3 1 µg/m3
2023-01-31 11:00 8.02 µg/m3 0.39 µg/m3 61.51 µg/m3 19.34 µg/m3 7.96 µg/m3 0.25 mg/m3 14.56 °C 59.08 % 1,020.09 mbar 5.25 m/s 332.73 Deg 5.12 µg/m3 1.03 µg/m3
2023-01-31 10:00 7.56 µg/m3 0.56 µg/m3 60.25 µg/m3 18.98 µg/m3 7.95 µg/m3 0.26 mg/m3 14.13 °C 63.47 % 1,019.82 mbar 5.12 m/s 347.85 Deg 3.35 µg/m3 1.39 µg/m3
2023-01-31 09:00 11.95 µg/m3 0.29 µg/m3 57.98 µg/m3 17.82 µg/m3 7.29 µg/m3 0.26 mg/m3 13.98 °C 61.59 % 1,019.39 mbar 3.44 m/s 316.22 Deg 4.21 µg/m3 1.61 µg/m3
2023-01-31 08:00 13.98 µg/m3 0.48 µg/m3 57.37 µg/m3 19.31 µg/m3 7.41 µg/m3 0.26 mg/m3 13.33 °C 65.25 % 1,019.23 mbar 3.41 m/s 298.3 Deg 5.52 µg/m3 1.55 µg/m3
2023-01-31 07:00 10.89 µg/m3 0.48 µg/m3 60.53 µg/m3 13.61 µg/m3 6.5 µg/m3 0.25 mg/m3 13.31 °C 65.93 % 1,019.00 mbar 3.84 m/s 296.18 Deg 3.99 µg/m3 1.52 µg/m3
2023-01-31 06:00 5.48 µg/m3 0.61 µg/m3 64.77 µg/m3 11.92 µg/m3 6.25 µg/m3 0.25 mg/m3 13.45 °C 67.09 % 1,018.86 mbar 4.02 m/s 295.42 Deg 0.93 µg/m3 1.36 µg/m3
2023-01-31 05:00 4.56 µg/m3 0.49 µg/m3 65.07 µg/m3 8.32 µg/m3 4.12 µg/m3 0.25 mg/m3 12.83 °C 67.28 % 1,018.89 mbar 3.04 m/s 300.71 Deg -0.04 µg/m3 1.31 µg/m3
2023-01-31 04:00 7.04 µg/m3 0.59 µg/m3 62.85 µg/m3 8.57 µg/m3 4.47 µg/m3 0.27 mg/m3 12.49 °C 74 % 1,019.19 mbar 2.66 m/s 290.05 Deg 0.51 µg/m3 1.47 µg/m3
2023-01-31 03:00 18.91 µg/m3 0.35 µg/m3 63.94 µg/m3 8.18 µg/m3 4.3 µg/m3 0.19 mg/m3 12.58 °C 68.32 % 1,019.58 mbar 2.46 m/s 289.37 Deg -0.38 µg/m3 1.57 µg/m3
2023-01-31 02:00 1.88 µg/m3 0.49 µg/m3 64.33 µg/m3 8.18 µg/m3 4.46 µg/m3 0.28 mg/m3 12.56 °C 67.22 % 1,020.05 mbar 2.35 m/s 317.73 Deg -0.18 µg/m3 1.76 µg/m3
2023-01-31 01:00 2.56 µg/m3 0.51 µg/m3 64.01 µg/m3 8.17 µg/m3 4.54 µg/m3 0.29 mg/m3 12.75 °C 67.2 % 1,020.34 mbar 2.38 m/s 251.78 Deg 0.01 µg/m3 1.7 µg/m3
2023-01-31 00:00 3.68 µg/m3 0.48 µg/m3 62.41 µg/m3 8.05 µg/m3 4.37 µg/m3 0.29 mg/m3 13.03 °C 65.21 % 1,020.40 mbar 2.74 m/s 326.51 Deg -0.03 µg/m3 1.63 µg/m3
2023-01-30 23:00 3.54 µg/m3 0.62 µg/m3 62.72 µg/m3 8.42 µg/m3 4.55 µg/m3 0.3 mg/m3 13.04 °C 63.89 % 1,020.25 mbar 2.45 m/s 298.11 Deg -0.18 µg/m3 1.63 µg/m3
2023-01-30 22:00 5.49 µg/m3 0.45 µg/m3 54.69 µg/m3 8.57 µg/m3 4.75 µg/m3 0.31 mg/m3 13.18 °C 65.18 % 1,019.91 mbar 2.5 m/s 278.46 Deg 0.72 µg/m3 1.65 µg/m3
2023-01-30 21:00 10.29 µg/m3 0.63 µg/m3 56.65 µg/m3 11.4 µg/m3 6.22 µg/m3 0.32 mg/m3 12.75 °C 69.06 % 1,019.90 mbar 1.94 m/s 267.69 Deg 0.94 µg/m3 1.76 µg/m3
2023-01-30 20:00 14.27 µg/m3 0.67 µg/m3 53.89 µg/m3 10.28 µg/m3 5.95 µg/m3 0.33 mg/m3 12.59 °C 71.53 % 1,019.81 mbar 1.76 m/s 266.81 Deg 1.46 µg/m3 1.7 µg/m3
2023-01-30 19:00 19.57 µg/m3 0.83 µg/m3 51.15 µg/m3 13.78 µg/m3 6.75 µg/m3 0.32 mg/m3 12.62 °C 70.95 % 1,019.65 mbar 1.39 m/s 281.74 Deg 1.65 µg/m3 1.82 µg/m3
2023-01-30 18:00 21.69 µg/m3 0.75 µg/m3 50.24 µg/m3 13.93 µg/m3 6.8 µg/m3 0.31 mg/m3 12.89 °C 68.1 % 1,019.39 mbar 1.59 m/s 289.91 Deg 4.12 µg/m3 2.34 µg/m3
2023-01-30 17:00 15.74 µg/m3 0.76 µg/m3 59.93 µg/m3 10.01 µg/m3 5.62 µg/m3 0.29 mg/m3 13.74 °C 63.27 % 1,019.33 mbar 2.86 m/s 325.04 Deg 4.28 µg/m3 1.6 µg/m3
2023-01-30 16:00 18.4 µg/m3 0.86 µg/m3 59.71 µg/m3 12.32 µg/m3 5.74 µg/m3 0.28 mg/m3 13.94 °C 61.96 % 1,018.98 mbar 3.54 m/s 107.71 Deg 4.97 µg/m3 1.55 µg/m3
2023-01-30 15:00 28.5 µg/m3 1.33 µg/m3 58.17 µg/m3 12.56 µg/m3 5.53 µg/m3 0.29 mg/m3 14.13 °C 60.92 % 1,018.82 mbar 3.75 m/s 182.37 Deg 2.34 µg/m3 1.71 µg/m3
2023-01-30 14:00 0 µg/m3 1.21 µg/m3 58.09 µg/m3 10.36 µg/m3 5.44 µg/m3 0.3 mg/m3 14.6 °C 61.43 % 1,018.95 mbar 3.38 m/s 295.7 Deg 0 µg/m3 2.94 µg/m3
2023-01-30 13:00 0 µg/m3 1.22 µg/m3 56.72 µg/m3 13.81 µg/m3 5.67 µg/m3 0.31 mg/m3 14.45 °C 62.58 % 1,019.45 mbar 2.76 m/s 275.43 Deg 0 µg/m3 1.73 µg/m3
2023-01-30 12:00 0 µg/m3 1 µg/m3 55.25 µg/m3 15.99 µg/m3 6.2 µg/m3 0.37 mg/m3 14.22 °C 61.31 % 1,019.97 mbar 1.83 m/s 226.69 Deg 0 µg/m3 1.89 µg/m3
2023-01-30 11:00 0 µg/m3 1.2 µg/m3 45.3 µg/m3 29.17 µg/m3 8.24 µg/m3 0.52 mg/m3 13.71 °C 62.38 % 1,020.20 mbar 1.58 m/s 230.26 Deg 0 µg/m3 2.47 µg/m3
2023-01-30 10:00 10.04 µg/m3 1.57 µg/m3 22.38 µg/m3 28.04 µg/m3 10.72 µg/m3 0.7 mg/m3 12.98 °C 72.14 % 1,019.95 mbar 1.04 m/s 271.45 Deg 18.51 µg/m3 4.65 µg/m3
2023-01-30 09:00 45.1 µg/m3 2.6 µg/m3 1.98 µg/m3 22.14 µg/m3 11.83 µg/m3 0.81 mg/m3 9.66 °C 86.01 % 1,019.34 mbar 0.85 m/s 233.5 Deg 131.13 µg/m3 7.56 µg/m3
2023-01-30 08:00 50.23 µg/m3 2.13 µg/m3 0.48 µg/m3 13.99 µg/m3 8 µg/m3 0.72 mg/m3 9.22 °C 81.58 % 1,018.77 mbar 0.89 m/s 231.67 Deg 114.59 µg/m3 4.6 µg/m3
2023-01-30 07:00 58.49 µg/m3 2.12 µg/m3 4.7 µg/m3 13.94 µg/m3 9.25 µg/m3 0.56 mg/m3 10.28 °C 76.31 % 1,018.36 mbar 0.98 m/s 226.19 Deg 134.13 µg/m3 4.25 µg/m3
2023-01-30 06:00 35.47 µg/m3 0.98 µg/m3 26.29 µg/m3 13.58 µg/m3 7.13 µg/m3 0.33 mg/m3 10.91 °C 76.71 % 1,017.87 mbar 1.15 m/s 212.35 Deg 38.98 µg/m3 2.1 µg/m3
2023-01-30 05:00 5.28 µg/m3 0.55 µg/m3 59.47 µg/m3 13.92 µg/m3 6.1 µg/m3 0.27 mg/m3 12.44 °C 73.73 % 1,017.61 mbar 3.68 m/s 48.39 Deg 0.89 µg/m3 1.7 µg/m3
2023-01-30 04:00 8.61 µg/m3 0.71 µg/m3 61.64 µg/m3 13.68 µg/m3 5.53 µg/m3 0.26 mg/m3 10.24 °C 80.57 % 1,017.92 mbar 2.83 m/s 182.88 Deg 0.18 µg/m3 1.36 µg/m3
2023-01-30 03:00 27.45 µg/m3 0.74 µg/m3 61.6 µg/m3 13.12 µg/m3 4.87 µg/m3 0.18 mg/m3 11.3 °C 80.09 % 1,018.28 mbar 2.31 m/s 231.58 Deg 0.11 µg/m3 1.39 µg/m3
2023-01-30 02:00 1.9 µg/m3 0.96 µg/m3 66.62 µg/m3 8.6 µg/m3 3.43 µg/m3 0.26 mg/m3 12.02 °C 72.42 % 1,018.17 mbar 3.49 m/s 32.53 Deg 0.09 µg/m3 1.23 µg/m3
2023-01-30 01:00 0.63 µg/m3 0.77 µg/m3 62.87 µg/m3 9.75 µg/m3 5 µg/m3 0.3 mg/m3 12.88 °C 70.51 % 1,017.82 mbar 5.93 m/s 42.37 Deg 0.67 µg/m3 1.65 µg/m3
2023-01-30 00:00 2.2 µg/m3 0.53 µg/m3 60.64 µg/m3 12.7 µg/m3 6.57 µg/m3 0.32 mg/m3 13.52 °C 66.75 % 1,018.00 mbar 4.95 m/s 39.88 Deg 1.5 µg/m3 1.66 µg/m3
2023-01-29 23:00 1.1 µg/m3 0.37 µg/m3 63.54 µg/m3 12.42 µg/m3 6.53 µg/m3 0.34 mg/m3 13.5 °C 68.83 % 1,017.85 mbar 5.37 m/s 53.83 Deg 0.93 µg/m3 1.68 µg/m3
2023-01-29 22:00 2.9 µg/m3 0.66 µg/m3 60.19 µg/m3 13.06 µg/m3 6.61 µg/m3 0.37 mg/m3 13.33 °C 71.12 % 1,017.75 mbar 5.16 m/s 44.04 Deg 1.11 µg/m3 1.84 µg/m3
2023-01-29 21:00 15.63 µg/m3 0.74 µg/m3 43.32 µg/m3 13.01 µg/m3 6.28 µg/m3 0.4 mg/m3 10.47 °C 84.51 % 1,017.57 mbar 1.47 m/s 237.67 Deg 4.69 µg/m3 1.99 µg/m3
2023-01-29 20:00 28.66 µg/m3 0.64 µg/m3 37.55 µg/m3 9.15 µg/m3 4.91 µg/m3 0.4 mg/m3 10.28 °C 87.24 % 1,017.49 mbar 1.08 m/s 146.46 Deg 8.52 µg/m3 2.39 µg/m3
2023-01-29 19:00 32.6 µg/m3 0.73 µg/m3 34.76 µg/m3 9.35 µg/m3 4.68 µg/m3 0.39 mg/m3 10.3 °C 87.15 % 1,017.25 mbar 0.99 m/s 137.45 Deg 11.06 µg/m3 2.73 µg/m3
2023-01-29 18:00 13.4 µg/m3 0.42 µg/m3 51.47 µg/m3 13.62 µg/m3 4.77 µg/m3 0.33 mg/m3 11.77 °C 76.72 % 1,016.67 mbar 3.05 m/s 174.29 Deg 5.38 µg/m3 1.81 µg/m3
2023-01-29 17:00 8.38 µg/m3 0.5 µg/m3 56.8 µg/m3 11.23 µg/m3 4.17 µg/m3 0.31 mg/m3 12.7 °C 73.3 % 1,016.09 mbar 5.11 m/s 59.21 Deg 4.77 µg/m3 1.89 µg/m3
2023-01-29 16:00 8.42 µg/m3 0.9 µg/m3 56.36 µg/m3 12.98 µg/m3 4.43 µg/m3 0.31 mg/m3 12.92 °C 73.67 % 1,015.91 mbar 5.17 m/s 46.23 Deg 5.09 µg/m3 1.87 µg/m3
2023-01-29 15:00 5.62 µg/m3 0.54 µg/m3 59.91 µg/m3 11.87 µg/m3 4.68 µg/m3 0.32 mg/m3 12.99 °C 71.52 % 1,015.71 mbar 4.91 m/s 60.68 Deg 3.62 µg/m3 1.73 µg/m3
2023-01-29 14:00 7.89 µg/m3 0.67 µg/m3 58.59 µg/m3 12.69 µg/m3 5.12 µg/m3 0.34 mg/m3 13.05 °C 70.63 % 1,015.91 mbar 4.5 m/s 57.78 Deg 4.54 µg/m3 3.15 µg/m3
2023-01-29 13:00 8.04 µg/m3 0.89 µg/m3 57.21 µg/m3 12.79 µg/m3 4.38 µg/m3 0.34 mg/m3 12.97 °C 68.65 % 1,016.55 mbar 4.07 m/s 54.45 Deg 4.18 µg/m3 1.84 µg/m3
2023-01-29 12:00 7.75 µg/m3 0.82 µg/m3 58.33 µg/m3 10.58 µg/m3 3.36 µg/m3 0.33 mg/m3 12.83 °C 66.14 % 1,017.15 mbar 3.91 m/s 55.43 Deg 3.71 µg/m3 2.15 µg/m3
2023-01-29 11:00 8.72 µg/m3 0.61 µg/m3 54.02 µg/m3 7.66 µg/m3 2.98 µg/m3 0.34 mg/m3 12.68 °C 70.66 % 1,017.17 mbar 3.58 m/s 58.25 Deg 3.88 µg/m3 1.52 µg/m3
2023-01-29 10:00 7.56 µg/m3 0.77 µg/m3 57.75 µg/m3 3.36 µg/m3 2.16 µg/m3 0.35 mg/m3 12.89 °C 66.56 % 1,016.52 mbar 4.5 m/s 47.77 Deg 3.28 µg/m3 1.21 µg/m3
2023-01-29 09:00 15.46 µg/m3 0.53 µg/m3 49.62 µg/m3 3.7 µg/m3 2.19 µg/m3 0.37 mg/m3 12.19 °C 69.91 % 1,015.88 mbar 2.62 m/s 117.68 Deg 9.39 µg/m3 1.84 µg/m3
2023-01-29 08:00 22.19 µg/m3 0.61 µg/m3 36.98 µg/m3 5.96 µg/m3 2.82 µg/m3 0.32 mg/m3 10.52 °C 76.84 % 1,015.28 mbar 0.75 m/s 237.04 Deg 11.58 µg/m3 1.31 µg/m3
2023-01-29 07:00 8.97 µg/m3 0.55 µg/m3 55.37 µg/m3 5.4 µg/m3 2.28 µg/m3 0.27 mg/m3 10.5 °C 77.46 % 1,014.95 mbar 1.4 m/s 274.21 Deg 3.27 µg/m3 1.21 µg/m3
2023-01-29 06:00 6.42 µg/m3 0.44 µg/m3 56.28 µg/m3 4.35 µg/m3 2.13 µg/m3 0.28 mg/m3 10.53 °C 76.66 % 1,014.72 mbar 2.21 m/s 290.12 Deg 1.2 µg/m3 1.12 µg/m3
2023-01-29 05:00 10.23 µg/m3 0.7 µg/m3 51.16 µg/m3 3.55 µg/m3 2.06 µg/m3 0.29 mg/m3 10.11 °C 79.68 % 1,014.48 mbar 1.67 m/s 238.4 Deg 2.4 µg/m3 1.23 µg/m3
2023-01-29 04:00 10.5 µg/m3 0.37 µg/m3 55.08 µg/m3 3.06 µg/m3 1.99 µg/m3 0.31 mg/m3 10.48 °C 78.33 % 1,014.24 mbar 1.23 m/s 261.72 Deg 1.19 µg/m3 1.18 µg/m3
2023-01-29 03:00 31.33 µg/m3 0.57 µg/m3 52.12 µg/m3 4.14 µg/m3 2.27 µg/m3 0.21 mg/m3 10.52 °C 78.39 % 1,014.19 mbar 1.07 m/s 260.98 Deg 1.41 µg/m3 1.31 µg/m3
2023-01-29 02:00 8.57 µg/m3 0.36 µg/m3 53.92 µg/m3 4.52 µg/m3 2.42 µg/m3 0.26 mg/m3 10.89 °C 77.45 % 1,014.09 mbar 1.39 m/s 255.77 Deg 1.82 µg/m3 1.23 µg/m3
2023-01-29 01:00 7.9 µg/m3 0.41 µg/m3 49.94 µg/m3 4.7 µg/m3 2.75 µg/m3 0.27 mg/m3 10.54 °C 78.81 % 1,013.80 mbar 1.49 m/s 281.95 Deg 1.83 µg/m3 1.21 µg/m3
2023-01-29 00:00 1.24 µg/m3 0.49 µg/m3 69.08 µg/m3 4.51 µg/m3 1.76 µg/m3 0.28 mg/m3 10.91 °C 71.89 % 1,013.74 mbar 2.88 m/s 120.32 Deg 0.98 µg/m3 1.05 µg/m3
2023-01-28 23:00 5.33 µg/m3 0.49 µg/m3 60.44 µg/m3 10.02 µg/m3 3.68 µg/m3 0.32 mg/m3 10.14 °C 82.75 % 1,013.96 mbar 2.7 m/s 282.03 Deg 1.95 µg/m3 1.24 µg/m3
2023-01-28 22:00 8.77 µg/m3 0.41 µg/m3 53.56 µg/m3 11.34 µg/m3 4.05 µg/m3 0.38 mg/m3 9.99 °C 83.48 % 1,013.36 mbar 2.73 m/s 256.08 Deg 2.19 µg/m3 1.5 µg/m3
2023-01-28 21:00 28.59 µg/m3 0.68 µg/m3 28.6 µg/m3 8.15 µg/m3 3.61 µg/m3 0.41 mg/m3 9.41 °C 86.54 % 1,012.83 mbar 1.49 m/s 221.78 Deg 16.88 µg/m3 2.12 µg/m3
2023-01-28 20:00 33.63 µg/m3 0.76 µg/m3 27.33 µg/m3 6.06 µg/m3 3.21 µg/m3 0.37 mg/m3 9.22 °C 86.64 % 1,012.43 mbar 1.18 m/s 212.73 Deg 16.34 µg/m3 2.39 µg/m3
2023-01-28 19:00 21.32 µg/m3 0.6 µg/m3 46.42 µg/m3 8.09 µg/m3 3.53 µg/m3 0.33 mg/m3 9.47 °C 84.42 % 1,012.37 mbar 2.35 m/s 257.02 Deg 11.09 µg/m3 1.4 µg/m3
2023-01-28 18:00 19.9 µg/m3 0.74 µg/m3 52.32 µg/m3 4.73 µg/m3 2.25 µg/m3 0.31 mg/m3 10.99 °C 68.08 % 1,011.57 mbar 1.87 m/s 274.47 Deg 7.57 µg/m3 1.33 µg/m3
2023-01-28 17:00 9.48 µg/m3 0.63 µg/m3 62.35 µg/m3 5.89 µg/m3 2.56 µg/m3 0.31 mg/m3 11.11 °C 73.68 % 1,011.25 mbar 3.45 m/s 294.43 Deg 4.33 µg/m3 1.21 µg/m3
2023-01-28 16:00 28.64 µg/m3 0.75 µg/m3 36.72 µg/m3 7.03 µg/m3 3.77 µg/m3 0.34 mg/m3 10.37 °C 83.63 % 1,010.69 mbar 2.46 m/s 212.84 Deg 14.12 µg/m3 1.91 µg/m3
2023-01-28 15:00 25.92 µg/m3 0.67 µg/m3 39.09 µg/m3 6.38 µg/m3 3.19 µg/m3 0.32 mg/m3 10.4 °C 82.89 % 1,010.32 mbar 2.68 m/s 234.22 Deg 14.03 µg/m3 1.61 µg/m3
2023-01-28 14:00 26.11 µg/m3 0.47 µg/m3 40.01 µg/m3 8.8 µg/m3 3.25 µg/m3 0.31 mg/m3 10.33 °C 80.55 % 1,010.41 mbar 2.4 m/s 240.28 Deg 14.41 µg/m3 1.24 µg/m3
2023-01-28 13:00 9.54 µg/m3 0.6 µg/m3 59.07 µg/m3 10.31 µg/m3 2.75 µg/m3 0.31 mg/m3 12.84 °C 65.42 % 1,010.59 mbar 2.75 m/s 272.55 Deg 4.15 µg/m3 1.21 µg/m3
2023-01-28 12:00 24.1 µg/m3 0.83 µg/m3 44.54 µg/m3 6.41 µg/m3 2.5 µg/m3 0.33 mg/m3 11.6 °C 75.04 % 1,011.03 mbar 1.36 m/s 177.9 Deg 15.55 µg/m3 1.54 µg/m3
2023-01-28 11:00 13.01 µg/m3 0.63 µg/m3 57.09 µg/m3 7.23 µg/m3 2.34 µg/m3 0.31 mg/m3 12.26 °C 70.36 % 1,011.28 mbar 2.24 m/s 329.58 Deg 6.13 µg/m3 1.45 µg/m3
2023-01-28 10:00 15.69 µg/m3 0.63 µg/m3 51.55 µg/m3 7.23 µg/m3 2.52 µg/m3 0.32 mg/m3 10.91 °C 78.87 % 1,011.01 mbar 1.67 m/s 294.16 Deg 5.75 µg/m3 1.36 µg/m3
2023-01-28 09:00 22.95 µg/m3 0.5 µg/m3 47.49 µg/m3 6.65 µg/m3 2.29 µg/m3 0.34 mg/m3 9.45 °C 79.13 % 1,010.32 mbar 1.94 m/s 289.14 Deg 12.36 µg/m3 1.31 µg/m3
2023-01-28 08:00 23.05 µg/m3 0.59 µg/m3 43.51 µg/m3 6.34 µg/m3 3.05 µg/m3 0.34 mg/m3 10.7 °C 74.84 % 1,009.90 mbar 2.79 m/s 259.8 Deg 11.69 µg/m3 1.54 µg/m3
2023-01-28 07:00 30.86 µg/m3 0.79 µg/m3 33.86 µg/m3 5.84 µg/m3 2.71 µg/m3 0.32 mg/m3 9.93 °C 75.93 % 1,009.58 mbar 1.62 m/s 236.88 Deg 21.15 µg/m3 2.34 µg/m3
2023-01-28 06:00 24.4 µg/m3 0.72 µg/m3 41.59 µg/m3 6.38 µg/m3 2.43 µg/m3 0.26 mg/m3 9.68 °C 77.56 % 1,009.46 mbar 1.32 m/s 216.25 Deg 17.4 µg/m3 1.36 µg/m3
2023-01-28 05:00 5.29 µg/m3 0.25 µg/m3 63.22 µg/m3 3.59 µg/m3 1.49 µg/m3 0.23 mg/m3 10.25 °C 72.95 % 1,009.23 mbar 2.98 m/s 253.91 Deg 0.8 µg/m3 1 µg/m3
2023-01-28 04:00 7.7 µg/m3 0.28 µg/m3 68.32 µg/m3 5.15 µg/m3 1.81 µg/m3 0.23 mg/m3 10.4 °C 73.91 % 1,009.35 mbar 3.48 m/s 263.33 Deg 0.34 µg/m3 0.94 µg/m3
2023-01-28 03:00 27.65 µg/m3 0.5 µg/m3 64.74 µg/m3 6.16 µg/m3 2.32 µg/m3 0.17 mg/m3 9.94 °C 78.21 % 1,009.44 mbar 3.18 m/s 261.72 Deg 0.82 µg/m3 1 µg/m3
2023-01-28 02:00 3.84 µg/m3 0.32 µg/m3 66.52 µg/m3 6.24 µg/m3 2.76 µg/m3 0.26 mg/m3 11.07 °C 76.72 % 1,009.23 mbar 3.47 m/s 269.85 Deg 0.83 µg/m3 1.23 µg/m3
2023-01-28 01:00 4.74 µg/m3 0.36 µg/m3 61.13 µg/m3 12.63 µg/m3 4.77 µg/m3 0.29 mg/m3 11.01 °C 77.58 % 1,009.36 mbar 1.98 m/s 275.49 Deg 1.73 µg/m3 1.23 µg/m3
2023-01-28 00:00 6.9 µg/m3 0.49 µg/m3 59.04 µg/m3 6.04 µg/m3 3.04 µg/m3 0.29 mg/m3 11.81 °C 72.93 % 1,009.41 mbar 1.68 m/s 279.39 Deg 1.2 µg/m3 1.52 µg/m3
2023-01-27 23:00 6.79 µg/m3 0.36 µg/m3 55.81 µg/m3 8.59 µg/m3 3.91 µg/m3 0.29 mg/m3 11.61 °C 77.08 % 1,009.36 mbar 1.55 m/s 265.43 Deg 2.23 µg/m3 1.6 µg/m3
2023-01-27 22:00 5.45 µg/m3 0.4 µg/m3 56.14 µg/m3 10.97 µg/m3 4.23 µg/m3 0.28 mg/m3 11.22 °C 79.39 % 1,009.15 mbar 1.29 m/s 265.6 Deg 1.49 µg/m3 1.23 µg/m3
2023-01-27 21:00 5.58 µg/m3 0.39 µg/m3 58.15 µg/m3 11.9 µg/m3 5.15 µg/m3 0.28 mg/m3 11.86 °C 79.49 % 1,009.17 mbar 3.18 m/s 258.41 Deg 1.66 µg/m3 1.42 µg/m3
2023-01-27 20:00 9.47 µg/m3 0.31 µg/m3 54.36 µg/m3 12.31 µg/m3 5.2 µg/m3 0.28 mg/m3 12.35 °C 74.52 % 1,008.59 mbar 2.06 m/s 300.93 Deg 2.78 µg/m3 1.44 µg/m3
2023-01-27 19:00 8.38 µg/m3 0.38 µg/m3 56.18 µg/m3 13.9 µg/m3 4.97 µg/m3 0.26 mg/m3 12.99 °C 69.47 % 1,007.86 mbar 2.71 m/s 291.59 Deg 3.43 µg/m3 1.28 µg/m3
2023-01-27 18:00 10.53 µg/m3 0.52 µg/m3 55.79 µg/m3 15.74 µg/m3 4.89 µg/m3 0.26 mg/m3 12.98 °C 70.35 % 1,007.21 mbar 3.19 m/s 298.95 Deg 4.37 µg/m3 1.39 µg/m3
2023-01-27 17:00 11.11 µg/m3 0.58 µg/m3 57.34 µg/m3 14.68 µg/m3 4.49 µg/m3 0.25 mg/m3 12.93 °C 73.24 % 1,006.77 mbar 3.49 m/s 286.61 Deg 5.56 µg/m3 1.18 µg/m3
2023-01-27 16:00 6.44 µg/m3 0.47 µg/m3 61.33 µg/m3 7.86 µg/m3 3.39 µg/m3 0.24 mg/m3 13.1 °C 71.27 % 1,006.04 mbar 3.79 m/s 295.78 Deg 2.99 µg/m3 1.21 µg/m3
2023-01-27 15:00 6.17 µg/m3 0.51 µg/m3 59.22 µg/m3 10.53 µg/m3 3.88 µg/m3 0.24 mg/m3 13.36 °C 69.55 % 1,005.35 mbar 4 m/s 321.46 Deg 3.35 µg/m3 1.18 µg/m3
2023-01-27 14:00 6.43 µg/m3 0.55 µg/m3 63.36 µg/m3 9.04 µg/m3 2.95 µg/m3 0.24 mg/m3 13.53 °C 66.08 % 1,004.95 mbar 4.29 m/s 326.63 Deg 4.01 µg/m3 1.03 µg/m3
2023-01-27 13:00 8.07 µg/m3 0.42 µg/m3 57.61 µg/m3 12.63 µg/m3 3.26 µg/m3 0.24 mg/m3 13.01 °C 70.74 % 1,004.91 mbar 4.06 m/s 311.44 Deg 4.08 µg/m3 1.08 µg/m3
2023-01-27 12:00 11.97 µg/m3 0.4 µg/m3 56.35 µg/m3 15.89 µg/m3 4.07 µg/m3 0.25 mg/m3 12.87 °C 71.68 % 1,005.19 mbar 3.05 m/s 312.67 Deg 7.17 µg/m3 1.18 µg/m3
2023-01-27 11:00 8.72 µg/m3 0.45 µg/m3 60.21 µg/m3 8.61 µg/m3 2.64 µg/m3 0.26 mg/m3 12.66 °C 72.53 % 1,004.86 mbar 3.46 m/s 339.98 Deg 4.82 µg/m3 1.03 µg/m3
2023-01-27 10:00 11.78 µg/m3 0.4 µg/m3 56.34 µg/m3 6.44 µg/m3 2.49 µg/m3 0.25 mg/m3 12.35 °C 75.84 % 1,004.14 mbar 3.06 m/s 347.36 Deg 4.79 µg/m3 1.05 µg/m3
2023-01-27 09:00 10.94 µg/m3 0.55 µg/m3 58.87 µg/m3 8.68 µg/m3 3.13 µg/m3 0.24 mg/m3 12.23 °C 77.47 % 1,003.27 mbar 3.39 m/s 338.23 Deg 4.54 µg/m3 0.94 µg/m3
2023-01-27 08:00 7.55 µg/m3 0.44 µg/m3 63 µg/m3 9.28 µg/m3 3.97 µg/m3 0.24 mg/m3 12.11 °C 76.67 % 1,002.52 mbar 4.96 m/s 285.67 Deg 3.32 µg/m3 0.89 µg/m3
2023-01-27 07:00 7.6 µg/m3 0.4 µg/m3 63.61 µg/m3 7.53 µg/m3 3.43 µg/m3 0.25 mg/m3 11.2 °C 80.3 % 1,002.36 mbar 5.41 m/s 287.92 Deg 3.71 µg/m3 0.89 µg/m3
2023-01-27 06:00 13.43 µg/m3 0.48 µg/m3 53.77 µg/m3 5.49 µg/m3 2.58 µg/m3 0.26 mg/m3 9.9 °C 87.46 % 1,002.03 mbar 2.74 m/s 255.26 Deg 3.66 µg/m3 1.1 µg/m3
2023-01-27 05:00 7.27 µg/m3 0.45 µg/m3 61.53 µg/m3 7.93 µg/m3 3.05 µg/m3 0.24 mg/m3 9.59 °C 87.3 % 1,002.17 mbar 2.38 m/s 190.2 Deg 1.83 µg/m3 1 µg/m3
2023-01-27 04:00 7.63 µg/m3 0.4 µg/m3 65.42 µg/m3 8.11 µg/m3 3.73 µg/m3 0.23 mg/m3 10.74 °C 84.52 % 1,002.43 mbar 5.15 m/s 255.92 Deg 0.42 µg/m3 1.08 µg/m3
2023-01-27 03:00 25.3 µg/m3 0.45 µg/m3 64.32 µg/m3 5.23 µg/m3 2.5 µg/m3 0.17 mg/m3 11.13 °C 78.79 % 1,003.08 mbar 5.63 m/s 257.68 Deg 0.43 µg/m3 1.05 µg/m3
2023-01-27 02:00 1.97 µg/m3 0.41 µg/m3 64.38 µg/m3 6.69 µg/m3 3.47 µg/m3 0.28 mg/m3 11.56 °C 73.05 % 1,003.78 mbar 5.74 m/s 260.29 Deg 0.31 µg/m3 1.12 µg/m3
2023-01-27 01:00 4.74 µg/m3 0.52 µg/m3 60.05 µg/m3 6.63 µg/m3 3.22 µg/m3 0.32 mg/m3 10.72 °C 73.46 % 1,004.20 mbar 2.76 m/s 235.73 Deg 1.67 µg/m3 1.23 µg/m3
2023-01-27 00:00 7.94 µg/m3 0.64 µg/m3 54.23 µg/m3 6.01 µg/m3 2.85 µg/m3 0.35 mg/m3 9.8 °C 77.18 % 1,004.73 mbar 1.79 m/s 235.82 Deg 2.43 µg/m3 1.73 µg/m3
2023-01-26 23:00 12.54 µg/m3 0.54 µg/m3 49.26 µg/m3 4.92 µg/m3 2.05 µg/m3 0.37 mg/m3 9.61 °C 77.65 % 1,005.46 mbar 1.07 m/s 201.55 Deg 5.03 µg/m3 1.42 µg/m3
2023-01-26 22:00 13.63 µg/m3 0.78 µg/m3 46.3 µg/m3 4.73 µg/m3 2.44 µg/m3 0.38 mg/m3 8.8 °C 80.7 % 1,005.87 mbar 1.29 m/s 215.75 Deg 6.32 µg/m3 2.29 µg/m3
2023-01-26 21:00 33.58 µg/m3 0.63 µg/m3 22.63 µg/m3 6.18 µg/m3 2.86 µg/m3 0.39 mg/m3 8.14 °C 88.05 % 1,006.01 mbar 0.78 m/s 208.93 Deg 14.38 µg/m3 1.91 µg/m3
2023-01-26 20:00 30.41 µg/m3 0.69 µg/m3 38.99 µg/m3 8.58 µg/m3 3.34 µg/m3 0.37 mg/m3 9.17 °C 83.97 % 1,005.77 mbar 0.66 m/s 236.33 Deg 13.81 µg/m3 1.5 µg/m3
2023-01-26 19:00 23.13 µg/m3 0.78 µg/m3 43.9 µg/m3 6.34 µg/m3 3.38 µg/m3 0.32 mg/m3 8.66 °C 87.78 % 1,005.82 mbar 2.11 m/s 216.35 Deg 10.4 µg/m3 1.99 µg/m3
2023-01-26 18:00 33.51 µg/m3 0.53 µg/m3 38.32 µg/m3 8.59 µg/m3 4.17 µg/m3 0.29 mg/m3 9.05 °C 85.56 % 1,005.61 mbar 1.46 m/s 177.56 Deg 15.88 µg/m3 1.65 µg/m3
2023-01-26 17:00 12.47 µg/m3 0.6 µg/m3 56.95 µg/m3 10.68 µg/m3 4.04 µg/m3 0.26 mg/m3 11.42 °C 66.61 % 1,005.13 mbar 4.75 m/s 259.2 Deg 5.71 µg/m3 1.42 µg/m3
2023-01-26 16:00 10.09 µg/m3 0.51 µg/m3 57.4 µg/m3 11.13 µg/m3 4.18 µg/m3 0.26 mg/m3 12.78 °C 60.13 % 1,005.18 mbar 5.8 m/s 264.38 Deg 4.92 µg/m3 1.18 µg/m3
2023-01-26 15:00 8.97 µg/m3 0.49 µg/m3 58.51 µg/m3 11.45 µg/m3 4.45 µg/m3 0.28 mg/m3 13.37 °C 59.39 % 1,005.27 mbar 6.68 m/s 257.98 Deg 5.54 µg/m3 1.26 µg/m3
2023-01-26 14:00 9.85 µg/m3 0.65 µg/m3 56.24 µg/m3 11.23 µg/m3 4.45 µg/m3 0.29 mg/m3 13.29 °C 58.01 % 1,005.76 mbar 6.23 m/s 257.55 Deg 5.19 µg/m3 1.15 µg/m3
2023-01-26 13:00 10.03 µg/m3 0.55 µg/m3 55.76 µg/m3 10.75 µg/m3 3.84 µg/m3 0.35 mg/m3 13.54 °C 55.99 % 1,006.38 mbar 5.91 m/s 257.1 Deg 5.37 µg/m3 1.15 µg/m3
2023-01-26 12:00 11.77 µg/m3 0.78 µg/m3 52.83 µg/m3 10.87 µg/m3 3.59 µg/m3 0.48 mg/m3 13.45 °C 56.03 % 1,007.44 mbar 4.55 m/s 273.33 Deg 7.82 µg/m3 1.31 µg/m3
2023-01-26 11:00 14.01 µg/m3 1.03 µg/m3 46.73 µg/m3 15.28 µg/m3 4.55 µg/m3 0.72 mg/m3 13.66 °C 57.55 % 1,008.01 mbar 4.55 m/s 269.87 Deg 10.44 µg/m3 1.91 µg/m3
2023-01-26 10:00 49.96 µg/m3 2.26 µg/m3 9.36 µg/m3 61.42 µg/m3 17.18 µg/m3 0.92 mg/m3 11.25 °C 77.64 % 1,008.04 mbar 0.5 m/s 210.84 Deg 85.08 µg/m3 5.46 µg/m3
2023-01-26 09:00 72.53 µg/m3 3.68 µg/m3 1.15 µg/m3 51.32 µg/m3 14.28 µg/m3 1.03 mg/m3 9.66 °C 79.1 % 1,007.98 mbar 0.07 m/s 200.16 Deg 237.6 µg/m3 5.44 µg/m3
2023-01-26 08:00 79.48 µg/m3 3.39 µg/m3 2.05 µg/m3 42.23 µg/m3 12.81 µg/m3 0.82 mg/m3 8.97 °C 80.04 % 1,008.08 mbar 0.13 m/s 166.11 Deg 204.73 µg/m3 6.54 µg/m3
2023-01-26 07:00 74.46 µg/m3 2.82 µg/m3 2.23 µg/m3 30.5 µg/m3 12.52 µg/m3 0.59 mg/m3 9.13 °C 79.52 % 1,008.32 mbar 0.45 m/s 217.93 Deg 197.26 µg/m3 5.04 µg/m3
2023-01-26 06:00 30.96 µg/m3 0.51 µg/m3 39.41 µg/m3 9.78 µg/m3 3.56 µg/m3 0.27 mg/m3 9.87 °C 75.54 % 1,008.63 mbar 1 m/s 213.15 Deg 25.51 µg/m3 0.86 µg/m3
2023-01-26 05:00 8.97 µg/m3 0.29 µg/m3 59.59 µg/m3 7.65 µg/m3 2.58 µg/m3 0.23 mg/m3 10.18 °C 77.71 % 1,009.02 mbar 1.03 m/s 260.98 Deg 1.19 µg/m3 0.76 µg/m3
2023-01-26 04:00 8.53 µg/m3 0.5 µg/m3 65.64 µg/m3 7.19 µg/m3 2.68 µg/m3 0.23 mg/m3 10.58 °C 78.77 % 1,009.45 mbar 1.68 m/s 317.63 Deg 0.39 µg/m3 0.76 µg/m3
2023-01-26 03:00 24.26 µg/m3 0.49 µg/m3 68.77 µg/m3 7.16 µg/m3 3.04 µg/m3 0.16 mg/m3 11.54 °C 75.66 % 1,009.60 mbar 4.44 m/s 311.61 Deg 0.3 µg/m3 0.73 µg/m3
2023-01-26 02:00 0.54 µg/m3 0.43 µg/m3 66.91 µg/m3 7.48 µg/m3 2.92 µg/m3 0.25 mg/m3 12.05 °C 67.62 % 1,009.93 mbar 4.89 m/s 248.19 Deg 0.7 µg/m3 0.73 µg/m3
2023-01-26 01:00 3.26 µg/m3 0.32 µg/m3 61.8 µg/m3 7.3 µg/m3 2.64 µg/m3 0.29 mg/m3 11.53 °C 65.21 % 1,010.46 mbar 3.04 m/s 221.28 Deg 1.14 µg/m3 0.76 µg/m3
2023-01-26 00:00 5.69 µg/m3 0.72 µg/m3 58.37 µg/m3 8.13 µg/m3 2.96 µg/m3 0.35 mg/m3 11.83 °C 64.07 % 1,011.17 mbar 3.05 m/s 226.33 Deg 1.74 µg/m3 1.21 µg/m3
2023-01-25 23:00 13.04 µg/m3 0.96 µg/m3 50.35 µg/m3 10.67 µg/m3 3.93 µg/m3 0.41 mg/m3 11.69 °C 70.47 % 1,011.82 mbar 2.06 m/s 218.65 Deg 2.97 µg/m3 1.52 µg/m3
2023-01-25 22:00 33.03 µg/m3 1.2 µg/m3 22.3 µg/m3 16.39 µg/m3 6.48 µg/m3 0.48 mg/m3 9.99 °C 79.6 % 1,012.41 mbar 0.6 m/s 226.97 Deg 17.49 µg/m3 2.8 µg/m3
2023-01-25 21:00 39.9 µg/m3 1.05 µg/m3 16.77 µg/m3 22.13 µg/m3 7.38 µg/m3 0.52 mg/m3 10.5 °C 75.81 % 1,012.77 mbar 0.66 m/s 252.11 Deg 24.71 µg/m3 2.6 µg/m3
2023-01-25 20:00 42.5 µg/m3 1.14 µg/m3 16.51 µg/m3 25.24 µg/m3 8.49 µg/m3 0.52 mg/m3 9.84 °C 77.89 % 1,013.03 mbar 0.9 m/s 226.86 Deg 28.42 µg/m3 3.08 µg/m3
2023-01-25 19:00 60.12 µg/m3 1.97 µg/m3 8.35 µg/m3 33.42 µg/m3 10.07 µg/m3 0.52 mg/m3 10.64 °C 75.32 % 1,013.13 mbar 0.53 m/s 229.53 Deg 76.3 µg/m3 4.95 µg/m3
2023-01-25 18:00 52.69 µg/m3 1.3 µg/m3 22.7 µg/m3 24.23 µg/m3 7.26 µg/m3 0.37 mg/m3 12.37 °C 67.84 % 1,013.06 mbar 0.59 m/s 212.58 Deg 56.67 µg/m3 2.39 µg/m3
2023-01-25 17:00 22.61 µg/m3 0.67 µg/m3 50.94 µg/m3 14.62 µg/m3 4.33 µg/m3 0.26 mg/m3 13.23 °C 63.36 % 1,013.16 mbar 1.29 m/s 293.74 Deg 6.41 µg/m3 1.23 µg/m3
2023-01-25 16:00 12.56 µg/m3 0.49 µg/m3 65.35 µg/m3 12.54 µg/m3 3.85 µg/m3 0.26 mg/m3 13.88 °C 60.93 % 1,013.30 mbar 2.59 m/s 292.38 Deg 5.4 µg/m3 0.92 µg/m3
2023-01-25 15:00 14.45 µg/m3 0.68 µg/m3 62.08 µg/m3 12.39 µg/m3 3.89 µg/m3 0.26 mg/m3 13.95 °C 62.68 % 1,013.42 mbar 2.52 m/s 276.83 Deg 6.24 µg/m3 0.94 µg/m3
2023-01-25 14:00 10.43 µg/m3 0.69 µg/m3 65.05 µg/m3 11.41 µg/m3 3.63 µg/m3 0.29 mg/m3 14.27 °C 63.21 % 1,013.84 mbar 2.66 m/s 289.89 Deg 4.43 µg/m3 1 µg/m3
2023-01-25 13:00 16.69 µg/m3 0.53 µg/m3 56.41 µg/m3 17.95 µg/m3 4.83 µg/m3 0.35 mg/m3 14.25 °C 66.82 % 1,014.65 mbar 2.99 m/s 266.29 Deg 9.32 µg/m3 1 µg/m3
2023-01-25 12:00 20.75 µg/m3 0.88 µg/m3 51.46 µg/m3 21.04 µg/m3 5.35 µg/m3 0.43 mg/m3 14.28 °C 65.57 % 1,015.49 mbar 2.03 m/s 241.58 Deg 10.65 µg/m3 1.05 µg/m3
2023-01-25 11:00 27.74 µg/m3 0.66 µg/m3 44.58 µg/m3 26.89 µg/m3 6.26 µg/m3 0.53 mg/m3 13.95 °C 67.12 % 1,016.05 mbar 0.99 m/s 276.23 Deg 24.52 µg/m3 1.21 µg/m3
2023-01-25 10:00 34.05 µg/m3 0.86 µg/m3 34.39 µg/m3 17.13 µg/m3 5.29 µg/m3 0.65 mg/m3 13.42 °C 72.2 % 1,016.13 mbar 0.69 m/s 305.9 Deg 20.05 µg/m3 2.83 µg/m3
2023-01-25 09:00 37.37 µg/m3 1.86 µg/m3 12.85 µg/m3 12.2 µg/m3 4.92 µg/m3 0.72 mg/m3 12 °C 78.75 % 1,015.71 mbar 0.88 m/s 232.37 Deg 49.46 µg/m3 3.78 µg/m3
2023-01-25 08:00 62.55 µg/m3 2.34 µg/m3 6.18 µg/m3 13.97 µg/m3 6.65 µg/m3 0.69 mg/m3 10.97 °C 81.78 % 1,015.36 mbar 0.64 m/s 218.01 Deg 150.26 µg/m3 4.65 µg/m3
2023-01-25 07:00 53.59 µg/m3 1.36 µg/m3 21.02 µg/m3 11.73 µg/m3 5.41 µg/m3 0.45 mg/m3 11.48 °C 80.57 % 1,015.34 mbar 1.12 m/s 207.11 Deg 74.82 µg/m3 2.57 µg/m3
2023-01-25 06:00 39.92 µg/m3 0.84 µg/m3 24.13 µg/m3 9.58 µg/m3 4.06 µg/m3 0.28 mg/m3 11.48 °C 82.56 % 1,015.57 mbar 0.86 m/s 218.1 Deg 43.79 µg/m3 0.98 µg/m3
2023-01-25 05:00 14.73 µg/m3 0.61 µg/m3 44.39 µg/m3 7.04 µg/m3 2.74 µg/m3 0.24 mg/m3 11.25 °C 83.44 % 1,015.66 mbar 1.21 m/s 222.6 Deg 5.7 µg/m3 0.82 µg/m3
2023-01-25 04:00 10.12 µg/m3 0.57 µg/m3 47.48 µg/m3 5.56 µg/m3 1.97 µg/m3 0.26 mg/m3 10.97 °C 89.45 % 1,015.77 mbar 1.11 m/s 229.93 Deg 1.43 µg/m3 0.65 µg/m3
2023-01-25 03:00 29.9 µg/m3 0.43 µg/m3 43.95 µg/m3 3.83 µg/m3 1.51 µg/m3 0.19 mg/m3 11.4 °C 89.33 % 1,016.03 mbar 1.09 m/s 172.63 Deg 1.45 µg/m3 0.65 µg/m3
2023-01-25 02:00 14.47 µg/m3 0.8 µg/m3 40.41 µg/m3 3.74 µg/m3 1.65 µg/m3 0.32 mg/m3 10.27 °C 91.56 % 1,016.27 mbar 1.14 m/s 184.63 Deg 1.1 µg/m3 1.08 µg/m3
2023-01-25 01:00 15.67 µg/m3 0.58 µg/m3 32.73 µg/m3 4.47 µg/m3 2.45 µg/m3 0.37 mg/m3 9.34 °C 93.25 % 1,016.81 mbar 0.54 m/s 275.33 Deg 3.19 µg/m3 1.39 µg/m3
2023-01-25 00:00 24.94 µg/m3 0.91 µg/m3 24.78 µg/m3 6.33 µg/m3 3.82 µg/m3 0.42 mg/m3 8.8 °C 93.23 % 1,017.33 mbar 0.43 m/s 194.04 Deg 8.88 µg/m3 1.92 µg/m3
2023-01-24 23:00 44.91 µg/m3 1.44 µg/m3 14.96 µg/m3 6.75 µg/m3 4.69 µg/m3 0.47 mg/m3 9.19 °C 90.86 % 1,017.81 mbar 0.4 m/s 168.06 Deg 14.05 µg/m3 2.52 µg/m3
2023-01-24 22:00 31.17 µg/m3 1.06 µg/m3 27.25 µg/m3 6.07 µg/m3 3.64 µg/m3 0.49 mg/m3 9.72 °C 88.94 % 1,018.03 mbar 0.83 m/s 190.64 Deg 13.91 µg/m3 2.47 µg/m3
2023-01-24 21:00 36.7 µg/m3 1.12 µg/m3 29.86 µg/m3 7.1 µg/m3 4.08 µg/m3 0.48 mg/m3 9.96 °C 86.98 % 1,017.72 mbar 0.45 m/s 204.67 Deg 13.06 µg/m3 2.2 µg/m3
2023-01-24 20:00 50.13 µg/m3 1.08 µg/m3 19.61 µg/m3 9.09 µg/m3 5.22 µg/m3 0.47 mg/m3 9.86 °C 88.49 % 1,018.10 mbar 0.4 m/s 227.8 Deg 18.99 µg/m3 2.52 µg/m3
2023-01-24 19:00 53.96 µg/m3 1.15 µg/m3 15.18 µg/m3 11.16 µg/m3 5.89 µg/m3 0.44 mg/m3 10.25 °C 91.45 % 1,018.60 mbar 0.79 m/s 195.15 Deg 17.38 µg/m3 2.71 µg/m3
2023-01-24 18:00 44.59 µg/m3 0.98 µg/m3 23.87 µg/m3 10.55 µg/m3 5.16 µg/m3 0.42 mg/m3 10.15 °C 93.62 % 1,018.81 mbar 0.88 m/s 160.07 Deg 27.46 µg/m3 1.91 µg/m3
2023-01-24 17:00 53.17 µg/m3 1.09 µg/m3 17.23 µg/m3 9.34 µg/m3 4.73 µg/m3 0.4 mg/m3 10.15 °C 89.9 % 1,019.30 mbar 0.61 m/s 177.01 Deg 29.29 µg/m3 2.02 µg/m3
2023-01-24 16:00 54.37 µg/m3 0.95 µg/m3 19.42 µg/m3 9.13 µg/m3 4.24 µg/m3 0.4 mg/m3 10.84 °C 82.29 % 1,019.47 mbar 0.9 m/s 208.73 Deg 37.15 µg/m3 2.17 µg/m3
2023-01-24 15:00 43.54 µg/m3 0.96 µg/m3 30.56 µg/m3 11.33 µg/m3 3.68 µg/m3 0.34 mg/m3 12.54 °C 71.26 % 1,019.13 mbar 0.88 m/s 262.7 Deg 15.93 µg/m3 23.81 µg/m3
2023-01-24 14:00 31.62 µg/m3 0.88 µg/m3 39.08 µg/m3 23.61 µg/m3 5.75 µg/m3 0.32 mg/m3 13.48 °C 63.01 % 1,018.81 mbar 1.17 m/s 186.57 Deg 13.71 µg/m3 47.82 µg/m3
2023-01-24 13:00 28.14 µg/m3 0.99 µg/m3 39.99 µg/m3 30.34 µg/m3 10.18 µg/m3 0.32 mg/m3 13.68 °C 63.28 % 1,019.33 mbar 1.66 m/s 256.99 Deg 13.04 µg/m3 98.68 µg/m3
2023-01-24 12:00 0 µg/m3 0.77 µg/m3 44.7 µg/m3 21.15 µg/m3 4.68 µg/m3 0.36 mg/m3 14.44 °C 59.69 % 1,020.28 mbar 1.8 m/s 161.46 Deg 0 µg/m3 89.79 µg/m3
2023-01-24 11:00 0 µg/m3 1.01 µg/m3 36.11 µg/m3 18.06 µg/m3 4.23 µg/m3 0.52 mg/m3 13.63 °C 65.09 % 1,021.22 mbar 1.12 m/s 306.06 Deg 0 µg/m3 70.18 µg/m3
2023-01-24 10:00 0 µg/m3 0 µg/m3 0 µg/m3 21.9 µg/m3 6.79 µg/m3 0 mg/m3 13.24 °C 67.16 % 1,021.50 mbar 0.84 m/s 224.02 Deg 0 µg/m3 45.93 µg/m3
2023-01-24 09:00 72.22 µg/m3 1.36 µg/m3 11.94 µg/m3 14.17 µg/m3 8.32 µg/m3 0.77 mg/m3 11.18 °C 73.52 % 1,021.42 mbar 0.12 m/s 213.78 Deg 66.65 µg/m3 45.56 µg/m3
2023-01-24 08:00 50.72 µg/m3 1.53 µg/m3 20.72 µg/m3 7.37 µg/m3 3.56 µg/m3 0.72 mg/m3 10.5 °C 73.81 % 1,021.14 mbar 1.41 m/s 197.2 Deg 44.93 µg/m3 27.71 µg/m3
2023-01-24 07:00 56.87 µg/m3 3.08 µg/m3 1.86 µg/m3 31.48 µg/m3 13.16 µg/m3 0.77 mg/m3 9.52 °C 74.23 % 1,020.79 mbar 0.52 m/s 197.46 Deg 157.87 µg/m3 12.07 µg/m3
2023-01-24 06:00 51.15 µg/m3 1.5 µg/m3 9.03 µg/m3 10.8 µg/m3 3.96 µg/m3 0.41 mg/m3 9.12 °C 75.48 % 1,020.83 mbar 0.06 m/s 184.67 Deg 78.72 µg/m3 1.42 µg/m3
2023-01-24 05:00 28.43 µg/m3 0.74 µg/m3 28.46 µg/m3 4.85 µg/m3 2.04 µg/m3 0.29 mg/m3 8.38 °C 76.96 % 1,020.87 mbar 0.49 m/s 257.63 Deg 15.55 µg/m3 0.89 µg/m3
2023-01-24 04:00 14.43 µg/m3 0.67 µg/m3 46.17 µg/m3 3.24 µg/m3 1.43 µg/m3 0.25 mg/m3 9.12 °C 75.52 % 1,021.07 mbar 0.39 m/s 146.16 Deg 1.53 µg/m3 0.82 µg/m3
2023-01-24 03:00 25.32 µg/m3 0.39 µg/m3 43.72 µg/m3 3.29 µg/m3 1.51 µg/m3 0.18 mg/m3 8.8 °C 73.33 % 1,021.36 mbar 0.86 m/s 242.02 Deg 1.89 µg/m3 0.84 µg/m3
2023-01-24 02:00 11.2 µg/m3 0.47 µg/m3 40.58 µg/m3 3.88 µg/m3 1.66 µg/m3 0.31 mg/m3 8.28 °C 71.24 % 1,021.23 mbar 0.29 m/s 279.49 Deg 2 µg/m3 0.84 µg/m3
2023-01-24 01:00 29.48 µg/m3 0.83 µg/m3 23.73 µg/m3 5.06 µg/m3 2.13 µg/m3 0.34 mg/m3 8.38 °C 70.37 % 1,020.99 mbar 0.03 m/s 211.94 Deg 8.26 µg/m3 1.29 µg/m3
2023-01-24 00:00 32.34 µg/m3 0.74 µg/m3 27.55 µg/m3 7.45 µg/m3 2.81 µg/m3 0.39 mg/m3 8.72 °C 68.08 % 1,021.00 mbar 0.2 m/s 288.74 Deg 12.71 µg/m3 1.18 µg/m3
2023-01-23 23:00 19.4 µg/m3 0.93 µg/m3 39.82 µg/m3 7.4 µg/m3 4.01 µg/m3 0.4 mg/m3 8.65 °C 67.81 % 1,021.07 mbar 1.02 m/s 246.08 Deg 6.88 µg/m3 1.73 µg/m3
2023-01-23 22:00 23.24 µg/m3 1.13 µg/m3 38.49 µg/m3 8.74 µg/m3 4.2 µg/m3 0.44 mg/m3 9.71 °C 62.22 % 1,020.82 mbar 0.83 m/s 227.85 Deg 14.1 µg/m3 2.31 µg/m3
2023-01-23 21:00 32.79 µg/m3 1.04 µg/m3 32.27 µg/m3 11.15 µg/m3 4.7 µg/m3 0.45 mg/m3 9.66 °C 62.52 % 1,020.29 mbar 0.74 m/s 227.23 Deg 17.37 µg/m3 1.94 µg/m3
2023-01-23 20:00 39.74 µg/m3 1.31 µg/m3 25.64 µg/m3 16.44 µg/m3 6.56 µg/m3 0.44 mg/m3 9.41 °C 66.19 % 1,019.78 mbar 1.09 m/s 232.29 Deg 19.42 µg/m3 3.15 µg/m3
2023-01-23 19:00 42.48 µg/m3 1.24 µg/m3 19.87 µg/m3 30.74 µg/m3 12.52 µg/m3 0.44 mg/m3 9.52 °C 68.32 % 1,019.34 mbar 0.84 m/s 250.24 Deg 21.49 µg/m3 3.31 µg/m3
2023-01-23 18:00 56.85 µg/m3 1.68 µg/m3 9.15 µg/m3 63.18 µg/m3 34.29 µg/m3 0.43 mg/m3 11.21 °C 64.19 % 1,018.88 mbar 0.8 m/s 201.34 Deg 51 µg/m3 4.04 µg/m3
2023-01-23 17:00 34.9 µg/m3 0.82 µg/m3 35.05 µg/m3 21.22 µg/m3 5.21 µg/m3 0.28 mg/m3 13.2 °C 56.14 % 1,018.58 mbar 1.94 m/s 229.48 Deg 16.38 µg/m3 1.45 µg/m3
2023-01-23 16:00 22.57 µg/m3 0.58 µg/m3 49 µg/m3 16.67 µg/m3 3.74 µg/m3 0.25 mg/m3 13.71 °C 53.25 % 1,018.24 mbar 2.79 m/s 255.12 Deg 10.63 µg/m3 1.05 µg/m3
2023-01-23 15:00 17.25 µg/m3 0.67 µg/m3 52.51 µg/m3 19.95 µg/m3 4.14 µg/m3 0.25 mg/m3 13.85 °C 52.59 % 1,017.73 mbar 3.68 m/s 244.74 Deg 8.67 µg/m3 1.1 µg/m3
2023-01-23 14:00 14.3 µg/m3 0.7 µg/m3 52.53 µg/m3 11.28 µg/m3 2.52 µg/m3 0.26 mg/m3 13.71 °C 59.69 % 1,017.58 mbar 3.08 m/s 261.03 Deg 7.58 µg/m3 27.96 µg/m3
2023-01-23 13:00 19.35 µg/m3 0.64 µg/m3 48.58 µg/m3 3.55 µg/m3 1.53 µg/m3 0.27 mg/m3 12.6 °C 60.2 % 1,017.76 mbar 2.91 m/s 245.61 Deg 11.1 µg/m3 17.74 µg/m3
2023-01-23 12:00 17.53 µg/m3 0.62 µg/m3 48.9 µg/m3 10.19 µg/m3 2.59 µg/m3 0.28 mg/m3 12.94 °C 60.76 % 1,017.89 mbar 3.55 m/s 269.03 Deg 10.97 µg/m3 0.81 µg/m3
2023-01-23 11:00 20.56 µg/m3 0.94 µg/m3 43.25 µg/m3 16.33 µg/m3 3.31 µg/m3 0.34 mg/m3 13.49 °C 55.3 % 1,017.87 mbar 3.1 m/s 239.38 Deg 13.48 µg/m3 1.07 µg/m3
2023-01-23 10:00 0 µg/m3 0.9 µg/m3 35.54 µg/m3 16.86 µg/m3 3.72 µg/m3 0 mg/m3 12.83 °C 56.31 % 1,017.55 mbar 2.82 m/s 246.55 Deg 0 µg/m3 1.36 µg/m3
2023-01-23 09:00 0 µg/m3 1.18 µg/m3 24.17 µg/m3 12.68 µg/m3 3.86 µg/m3 0 mg/m3 11.43 °C 59.59 % 1,016.79 mbar 2.36 m/s 230.44 Deg 0 µg/m3 2.71 µg/m3
2023-01-23 08:00 0 µg/m3 1.63 µg/m3 15.77 µg/m3 13.07 µg/m3 4.71 µg/m3 0.64 mg/m3 10.25 °C 66.4 % 1,016.11 mbar 1.42 m/s 225.38 Deg 0 µg/m3 3.31 µg/m3
2023-01-23 07:00 38.11 µg/m3 1.21 µg/m3 21.91 µg/m3 9.48 µg/m3 4.36 µg/m3 0.44 mg/m3 9.99 °C 69.32 % 1,015.73 mbar 1.58 m/s 227.08 Deg 36.71 µg/m3 2.2 µg/m3
2023-01-23 06:00 20.88 µg/m3 0.51 µg/m3 44.33 µg/m3 5.62 µg/m3 2.11 µg/m3 0.23 mg/m3 9.76 °C 70.79 % 1,015.32 mbar 2 m/s 257.91 Deg 8.6 µg/m3 0.86 µg/m3
2023-01-23 05:00 5.44 µg/m3 0.39 µg/m3 63.28 µg/m3 6.1 µg/m3 2.08 µg/m3 0.2 mg/m3 10.18 °C 70.84 % 1,014.96 mbar 2.57 m/s 306.53 Deg 0.34 µg/m3 0.73 µg/m3
2023-01-23 04:00 6.63 µg/m3 0.3 µg/m3 61.64 µg/m3 3.7 µg/m3 1.59 µg/m3 0.2 mg/m3 10.68 °C 62.04 % 1,014.81 mbar 3.94 m/s 261.99 Deg 0.07 µg/m3 0.73 µg/m3
2023-01-23 03:00 20.68 µg/m3 0.35 µg/m3 63.19 µg/m3 3.97 µg/m3 1.58 µg/m3 0.13 mg/m3 10.44 °C 66.14 % 1,014.82 mbar 3.16 m/s 266.25 Deg 0.03 µg/m3 0.76 µg/m3
2023-01-23 02:00 1.67 µg/m3 0.31 µg/m3 60.99 µg/m3 3.34 µg/m3 1.39 µg/m3 0.2 mg/m3 9.93 °C 67.42 % 1,014.52 mbar 3.57 m/s 261.98 Deg -0.17 µg/m3 0.76 µg/m3
2023-01-23 01:00 0.68 µg/m3 0.25 µg/m3 61.68 µg/m3 3.13 µg/m3 1.36 µg/m3 0.21 mg/m3 10.2 °C 65.74 % 1,014.31 mbar 4.53 m/s 264.93 Deg -0.08 µg/m3 0.73 µg/m3
2023-01-23 00:00 0.82 µg/m3 0.49 µg/m3 63.5 µg/m3 4.16 µg/m3 1.6 µg/m3 0.23 mg/m3 9.76 °C 68.61 % 1,014.20 mbar 4.64 m/s 269.51 Deg -0.01 µg/m3 0.73 µg/m3
2023-01-22 23:00 3.17 µg/m3 0.45 µg/m3 61.87 µg/m3 6.49 µg/m3 2.37 µg/m3 0.25 mg/m3 9.32 °C 75.25 % 1,014.02 mbar 3.22 m/s 286.43 Deg 0.36 µg/m3 0.84 µg/m3
2023-01-22 22:00 4.2 µg/m3 0.41 µg/m3 64.19 µg/m3 10.74 µg/m3 3.94 µg/m3 0.26 mg/m3 9.02 °C 77.82 % 1,013.76 mbar 3.19 m/s 225.97 Deg 0.98 µg/m3 0.97 µg/m3
2023-01-22 21:00 15.82 µg/m3 0.58 µg/m3 46.67 µg/m3 7.75 µg/m3 2.96 µg/m3 0.29 mg/m3 9.17 °C 75.52 % 1,013.00 mbar 1.42 m/s 305.89 Deg 5.11 µg/m3 1.28 µg/m3
2023-01-22 20:00 21.45 µg/m3 0.47 µg/m3 38.52 µg/m3 4.7 µg/m3 2.01 µg/m3 0.29 mg/m3 7.9 °C 82.58 % 1,012.60 mbar 2.05 m/s 250.34 Deg 7.75 µg/m3 0.98 µg/m3
2023-01-22 19:00 16.19 µg/m3 0.75 µg/m3 48.49 µg/m3 6.25 µg/m3 2.66 µg/m3 0.26 mg/m3 6.67 °C 99.8 % 1,012.03 mbar 4.52 m/s 259.02 Deg 6.54 µg/m3 2.73 µg/m3
2023-01-22 18:00 23.56 µg/m3 0.66 µg/m3 43.47 µg/m3 3.91 µg/m3 1.97 µg/m3 0.26 mg/m3 7.09 °C 94.24 % 1,011.55 mbar 3.81 m/s 252.92 Deg 11.49 µg/m3 0.76 µg/m3
2023-01-22 17:00 9.89 µg/m3 0.4 µg/m3 51.61 µg/m3 4.18 µg/m3 1.59 µg/m3 0.23 mg/m3 10.57 °C 72.09 % 1,010.99 mbar 2.92 m/s 283.16 Deg 2.99 µg/m3 1.19 µg/m3
2023-01-22 16:00 9.68 µg/m3 0.44 µg/m3 54.75 µg/m3 4.1 µg/m3 1.67 µg/m3 0.24 mg/m3 10.21 °C 77.23 % 1,010.87 mbar 2.21 m/s 299.23 Deg 3.49 µg/m3 1.23 µg/m3
2023-01-22 15:00 7.67 µg/m3 0.46 µg/m3 54.49 µg/m3 5.02 µg/m3 1.97 µg/m3 0.24 mg/m3 9.39 °C 84.95 % 1,010.73 mbar 2.36 m/s 295.95 Deg 2.33 µg/m3 0.94 µg/m3
2023-01-22 14:00 7.64 µg/m3 0.6 µg/m3 55.33 µg/m3 5.04 µg/m3 2.04 µg/m3 0.25 mg/m3 9.89 °C 85.69 % 1,010.45 mbar 2.86 m/s 306.09 Deg 3.19 µg/m3 1 µg/m3
2023-01-22 13:00 6.96 µg/m3 0.36 µg/m3 56.08 µg/m3 5.34 µg/m3 2.42 µg/m3 0.27 mg/m3 10.52 °C 86.68 % 1,010.61 mbar 3.95 m/s 298.38 Deg 3.23 µg/m3 0.79 µg/m3
2023-01-22 12:00 9.76 µg/m3 0.71 µg/m3 50.84 µg/m3 7.47 µg/m3 3.82 µg/m3 0.3 mg/m3 11.03 °C 89.35 % 1,010.47 mbar 2.38 m/s 298.45 Deg 3.52 µg/m3 1.12 µg/m3
2023-01-22 11:00 23.93 µg/m3 0.62 µg/m3 33.21 µg/m3 11.97 µg/m3 5.56 µg/m3 0.33 mg/m3 10 °C 91.89 % 1,011.02 mbar 1.96 m/s 267.67 Deg 9.43 µg/m3 4.46 µg/m3
2023-01-22 10:00 36.52 µg/m3 0.81 µg/m3 19.02 µg/m3 11.89 µg/m3 5.46 µg/m3 0.36 mg/m3 11.24 °C 89.41 % 1,010.61 mbar 0.46 m/s 201.86 Deg 24.07 µg/m3 2.15 µg/m3
2023-01-22 09:00 35.83 µg/m3 0.55 µg/m3 24.55 µg/m3 14.44 µg/m3 6.22 µg/m3 0.29 mg/m3 10.69 °C 93.21 % 1,010.79 mbar 0.54 m/s 206.98 Deg 16.15 µg/m3 1.28 µg/m3
2023-01-22 08:00 16.12 µg/m3 0.52 µg/m3 40.38 µg/m3 13 µg/m3 5.46 µg/m3 0.24 mg/m3 9.92 °C 93.39 % 1,010.89 mbar 1.67 m/s 232.74 Deg 5.06 µg/m3 0.91 µg/m3
2023-01-22 07:00 9.88 µg/m3 0.26 µg/m3 50.77 µg/m3 14.63 µg/m3 6.36 µg/m3 0.21 mg/m3 9.57 °C 93.26 % 1,010.85 mbar 3.25 m/s 237.52 Deg 2.38 µg/m3 0.76 µg/m3
2023-01-22 06:00 13.69 µg/m3 0.66 µg/m3 50.42 µg/m3 17.34 µg/m3 5.41 µg/m3 0.2 mg/m3 12.63 °C 57.73 % 1,010.08 mbar 2.3 m/s 214.73 Deg 3.92 µg/m3 0.89 µg/m3
2023-01-22 05:00 7.3 µg/m3 0.65 µg/m3 57.06 µg/m3 14.29 µg/m3 4.77 µg/m3 0.19 mg/m3 12.59 °C 54.88 % 1,010.32 mbar 2.55 m/s 213.98 Deg 0.78 µg/m3 0.63 µg/m3
2023-01-22 04:00 9.53 µg/m3 0.52 µg/m3 57.72 µg/m3 13.01 µg/m3 4.93 µg/m3 0.2 mg/m3 12.6 °C 53.27 % 1,010.92 mbar 3.13 m/s 224.14 Deg 1.03 µg/m3 0.65 µg/m3
2023-01-22 03:00 22.32 µg/m3 0.34 µg/m3 59.01 µg/m3 13.7 µg/m3 4.93 µg/m3 0.14 mg/m3 12.27 °C 54.13 % 1,011.57 mbar 2.92 m/s 219.86 Deg 0.47 µg/m3 0.63 µg/m3
2023-01-22 02:00 7.24 µg/m3 0.32 µg/m3 55.23 µg/m3 9.27 µg/m3 3.97 µg/m3 0.24 mg/m3 12.13 °C 57.11 % 1,012.02 mbar 3.08 m/s 227.29 Deg 2.02 µg/m3 0.68 µg/m3
2023-01-22 01:00 9.91 µg/m3 0.37 µg/m3 39.89 µg/m3 8.8 µg/m3 4.05 µg/m3 0.26 mg/m3 11.91 °C 56.86 % 1,012.08 mbar 3.37 m/s 227.73 Deg 2.29 µg/m3 0.7 µg/m3
2023-01-22 00:00 13.95 µg/m3 0.66 µg/m3 48.37 µg/m3 11.91 µg/m3 4.84 µg/m3 0.28 mg/m3 11.77 °C 56.81 % 1,012.45 mbar 3.09 m/s 228.42 Deg 3.85 µg/m3 1.28 µg/m3
2023-01-21 23:00 20.52 µg/m3 0.5 µg/m3 43.75 µg/m3 13.32 µg/m3 5.67 µg/m3 0.28 mg/m3 11.67 °C 56.49 % 1,012.73 mbar 2.34 m/s 217.52 Deg 6.19 µg/m3 1 µg/m3
2023-01-21 22:00 18.27 µg/m3 0.48 µg/m3 46.26 µg/m3 14.66 µg/m3 5.98 µg/m3 0.25 mg/m3 11.73 °C 57.11 % 1,012.74 mbar 2.56 m/s 218.52 Deg 6.25 µg/m3 0.98 µg/m3
2023-01-21 21:00 18.61 µg/m3 0.43 µg/m3 47.92 µg/m3 15.64 µg/m3 6.19 µg/m3 0.25 mg/m3 12.19 °C 55.01 % 1,012.76 mbar 3.14 m/s 234.63 Deg 6.26 µg/m3 1 µg/m3
2023-01-21 20:00 17.09 µg/m3 0.67 µg/m3 46.39 µg/m3 17.59 µg/m3 7.22 µg/m3 0.26 mg/m3 12.11 °C 57.24 % 1,012.54 mbar 3.15 m/s 246.82 Deg 4.85 µg/m3 1.19 µg/m3
2023-01-21 19:00 10.92 µg/m3 0.49 µg/m3 53.09 µg/m3 17.27 µg/m3 7.09 µg/m3 0.23 mg/m3 12.58 °C 59.16 % 1,012.21 mbar 4.15 m/s 261.64 Deg 3.94 µg/m3 1.13 µg/m3
2023-01-21 18:00 10.97 µg/m3 0.56 µg/m3 54.51 µg/m3 15.94 µg/m3 6.78 µg/m3 0.24 mg/m3 12.39 °C 59.53 % 1,011.85 mbar 3.6 m/s 273.8 Deg 3.61 µg/m3 1.57 µg/m3
2023-01-21 17:00 9.78 µg/m3 0.44 µg/m3 55.52 µg/m3 15.31 µg/m3 6.41 µg/m3 0.22 mg/m3 12.64 °C 52.77 % 1,011.57 mbar 3.6 m/s 274.37 Deg 3.4 µg/m3 0.97 µg/m3
2023-01-21 16:00 6.11 µg/m3 0.42 µg/m3 57.89 µg/m3 15.42 µg/m3 6.7 µg/m3 0.21 mg/m3 13.21 °C 54.09 % 1,011.27 mbar 5.11 m/s 258.76 Deg 2.72 µg/m3 0.76 µg/m3
2023-01-21 15:00 5.01 µg/m3 0.44 µg/m3 58.9 µg/m3 14.14 µg/m3 6.7 µg/m3 0.21 mg/m3 13.24 °C 56.68 % 1,010.98 mbar 5.26 m/s 273.42 Deg 2.18 µg/m3 1 µg/m3
2023-01-21 14:00 4.83 µg/m3 0.37 µg/m3 58.05 µg/m3 12.6 µg/m3 5.88 µg/m3 0.2 mg/m3 13.09 °C 56.66 % 1,011.00 mbar 6.01 m/s 276.62 Deg 2.32 µg/m3 1 µg/m3
2023-01-21 13:00 5.82 µg/m3 0.46 µg/m3 57.65 µg/m3 11.06 µg/m3 5.19 µg/m3 0.2 mg/m3 12.84 °C 56.58 % 1,011.16 mbar 6.19 m/s 276.23 Deg 3.6 µg/m3 0.76 µg/m3
2023-01-21 12:00 6.08 µg/m3 0.48 µg/m3 56.62 µg/m3 14.14 µg/m3 6.07 µg/m3 0.21 mg/m3 12.76 °C 59.56 % 1,011.74 mbar 6.02 m/s 279.54 Deg 3.75 µg/m3 0.84 µg/m3
2023-01-21 11:00 6.02 µg/m3 0.38 µg/m3 53.35 µg/m3 14.77 µg/m3 6.65 µg/m3 0.21 mg/m3 12.65 °C 58.57 % 1,011.89 mbar 6.6 m/s 276.38 Deg 4.09 µg/m3 0.86 µg/m3
2023-01-21 10:00 6.3 µg/m3 0.52 µg/m3 53.99 µg/m3 15.98 µg/m3 7.34 µg/m3 0.21 mg/m3 12.09 °C 63.29 % 1,011.37 mbar 5.54 m/s 287.13 Deg 3.54 µg/m3 0.84 µg/m3
2023-01-21 09:00 5.56 µg/m3 0.47 µg/m3 54.63 µg/m3 13.78 µg/m3 6.6 µg/m3 0.2 mg/m3 11.52 °C 63.81 % 1,010.88 mbar 6.15 m/s 284.54 Deg 2.81 µg/m3 0.79 µg/m3
2023-01-21 08:00 6.04 µg/m3 0.53 µg/m3 56.57 µg/m3 10.61 µg/m3 5.4 µg/m3 0.2 mg/m3 11.02 °C 67.98 % 1,010.33 mbar 6.1 m/s 287.51 Deg 2.5 µg/m3 0.84 µg/m3
2023-01-21 07:00 4.3 µg/m3 0.13 µg/m3 57.82 µg/m3 10.19 µg/m3 5.23 µg/m3 0.19 mg/m3 10.75 °C 71.22 % 1,010.02 mbar 6.42 m/s 283 Deg 1.54 µg/m3 0.76 µg/m3
2023-01-21 06:00 3.47 µg/m3 0.33 µg/m3 61.18 µg/m3 12.29 µg/m3 5.85 µg/m3 0.18 mg/m3 11.95 °C 61.62 % 1,009.64 mbar 6.62 m/s 276.86 Deg 0.71 µg/m3 0.65 µg/m3
2023-01-21 05:00 3.25 µg/m3 0.34 µg/m3 65.82 µg/m3 12.62 µg/m3 6.45 µg/m3 0.18 mg/m3 11.88 °C 61.61 % 1,009.37 mbar 6.77 m/s 280.07 Deg -0.01 µg/m3 0.63 µg/m3
2023-01-21 04:00 5.69 µg/m3 0.27 µg/m3 64.69 µg/m3 14.3 µg/m3 7.21 µg/m3 0.18 mg/m3 11.94 °C 61.62 % 1,009.65 mbar 7.07 m/s 275.63 Deg -0.11 µg/m3 0.63 µg/m3
2023-01-21 03:00 19.74 µg/m3 0.18 µg/m3 62.27 µg/m3 15.17 µg/m3 8.29 µg/m3 0.12 mg/m3 12.22 °C 63.08 % 1,009.76 mbar 7.98 m/s 268.99 Deg -0.09 µg/m3 0.7 µg/m3
2023-01-21 02:00 0.66 µg/m3 0.22 µg/m3 62.22 µg/m3 17.43 µg/m3 9.05 µg/m3 0.19 mg/m3 12.48 °C 61 % 1,009.52 mbar 8.35 m/s 273.75 Deg -0.08 µg/m3 0.63 µg/m3
2023-01-21 01:00 0.57 µg/m3 0.22 µg/m3 61.03 µg/m3 17.06 µg/m3 8.63 µg/m3 0.19 mg/m3 12.67 °C 57.51 % 1,009.56 mbar 8.55 m/s 270.77 Deg 0.14 µg/m3 0.63 µg/m3
2023-01-21 00:00 0.88 µg/m3 0.23 µg/m3 62.34 µg/m3 16.73 µg/m3 8.4 µg/m3 0.19 mg/m3 12.67 °C 60.31 % 1,009.63 mbar 7.72 m/s 274.63 Deg 0.15 µg/m3 0.63 µg/m3
2023-01-20 23:00 0.67 µg/m3 0.49 µg/m3 63.08 µg/m3 18.6 µg/m3 9.85 µg/m3 0.19 mg/m3 12.62 °C 67.44 % 1,009.61 mbar 7.44 m/s 279.63 Deg 0.13 µg/m3 0.63 µg/m3
2023-01-20 22:00 1.35 µg/m3 0.09 µg/m3 63.32 µg/m3 17.75 µg/m3 9.53 µg/m3 0.19 mg/m3 12.44 °C 74.8 % 1,009.45 mbar 6.46 m/s 276.91 Deg 0.28 µg/m3 0.63 µg/m3
2023-01-20 21:00 2.49 µg/m3 0.35 µg/m3 59.51 µg/m3 13.68 µg/m3 6.62 µg/m3 0.2 mg/m3 13.91 °C 63.43 % 1,008.75 mbar 7.23 m/s 274.27 Deg 0.3 µg/m3 0.65 µg/m3
2023-01-20 20:00 3.01 µg/m3 0.5 µg/m3 59.19 µg/m3 92.61 µg/m3 23.82 µg/m3 0.21 mg/m3 14.23 °C 64.04 % 1,008.25 mbar 8.16 m/s 266.08 Deg 0.89 µg/m3 0.76 µg/m3
2023-01-20 19:00 5.79 µg/m3 0.33 µg/m3 58.51 µg/m3 99.05 µg/m3 24.86 µg/m3 0.21 mg/m3 14.82 °C 63.98 % 1,007.79 mbar 7.92 m/s 252.76 Deg 1.72 µg/m3 0.82 µg/m3
2023-01-20 18:00 7.02 µg/m3 0.64 µg/m3 62.25 µg/m3 47.77 µg/m3 14.94 µg/m3 0.21 mg/m3 14.32 °C 64.2 % 1,007.64 mbar 8.22 m/s 249.69 Deg 2.41 µg/m3 0.73 µg/m3
2023-01-20 17:00 8.27 µg/m3 0.42 µg/m3 59.55 µg/m3 27.71 µg/m3 10.94 µg/m3 0.2 mg/m3 14.31 °C 61.31 % 1,007.78 mbar 9.23 m/s 251.78 Deg 3.36 µg/m3 0.84 µg/m3
2023-01-20 16:00 7.77 µg/m3 0.32 µg/m3 59.32 µg/m3 25.81 µg/m3 9.41 µg/m3 0.21 mg/m3 14.4 °C 56.46 % 1,007.71 mbar 10.24 m/s 248.33 Deg 3.81 µg/m3 0.82 µg/m3
2023-01-20 15:00 9.11 µg/m3 0.82 µg/m3 54.91 µg/m3 28.2 µg/m3 9.34 µg/m3 0.22 mg/m3 14.67 °C 54.24 % 1,007.81 mbar 9.86 m/s 249.48 Deg 5.69 µg/m3 0.77 µg/m3
2023-01-20 14:00 7.58 µg/m3 0.56 µg/m3 56.16 µg/m3 28.96 µg/m3 8.97 µg/m3 0.23 mg/m3 14.73 °C 52.71 % 1,008.49 mbar 9.71 m/s 251.05 Deg 4.45 µg/m3 0.68 µg/m3
2023-01-20 13:00 10.16 µg/m3 0.6 µg/m3 52.02 µg/m3 30.86 µg/m3 8.11 µg/m3 0.24 mg/m3 14.89 °C 52.91 % 1,009.41 mbar 8.02 m/s 247.03 Deg 6.69 µg/m3 0.79 µg/m3
2023-01-20 12:00 13.45 µg/m3 0.45 µg/m3 47.32 µg/m3 18.96 µg/m3 5.41 µg/m3 0.28 mg/m3 14.54 °C 54.02 % 1,010.82 mbar 6.88 m/s 246.19 Deg 9.64 µg/m3 0.76 µg/m3
2023-01-20 11:00 13.18 µg/m3 0.75 µg/m3 46.06 µg/m3 18.97 µg/m3 5.53 µg/m3 0.32 mg/m3 13.86 °C 58.95 % 1,011.75 mbar 6.02 m/s 246.33 Deg 8.88 µg/m3 0.97 µg/m3
2023-01-20 10:00 14.96 µg/m3 0.66 µg/m3 44.18 µg/m3 15.37 µg/m3 4.82 µg/m3 0.39 mg/m3 13.17 °C 62.35 % 1,011.97 mbar 5.45 m/s 246.94 Deg 9.61 µg/m3 0.97 µg/m3
2023-01-20 09:00 25.71 µg/m3 1.67 µg/m3 32.73 µg/m3 11.96 µg/m3 4.97 µg/m3 0.46 mg/m3 11.68 °C 70.01 % 1,011.94 mbar 3.75 m/s 251.87 Deg 19.94 µg/m3 3.88 µg/m3
2023-01-20 08:00 57.02 µg/m3 2.13 µg/m3 5.59 µg/m3 16.22 µg/m3 7.84 µg/m3 0.58 mg/m3 9.04 °C 89.08 % 1,012.03 mbar 0.84 m/s 218.34 Deg 104.18 µg/m3 3.12 µg/m3
2023-01-20 07:00 42.11 µg/m3 1.03 µg/m3 26.29 µg/m3 9.41 µg/m3 4.37 µg/m3 0.36 mg/m3 9.2 °C 85.24 % 1,011.95 mbar 1.17 m/s 243.66 Deg 52.01 µg/m3 0.94 µg/m3
2023-01-20 06:00 6.67 µg/m3 0.36 µg/m3 57.54 µg/m3 6.19 µg/m3 2.79 µg/m3 0.21 mg/m3 9.46 °C 77.87 % 1,011.85 mbar 4.21 m/s 282.31 Deg 1.85 µg/m3 0.65 µg/m3
2023-01-20 05:00 4.28 µg/m3 0.58 µg/m3 59.13 µg/m3 10.78 µg/m3 4.08 µg/m3 0.2 mg/m3 10.05 °C 77.05 % 994.86 mbar 2.91 m/s 294.22 Deg 0.38 µg/m3 0.65 µg/m3
2023-01-20 04:00 6.03 µg/m3 0.52 µg/m3 59.98 µg/m3 7.58 µg/m3 3.45 µg/m3 0.2 mg/m3 9.58 °C 79.76 % 1,011.76 mbar 4.56 m/s 292.94 Deg -0.09 µg/m3 0.68 µg/m3
2023-01-20 03:00 20.29 µg/m3 0.25 µg/m3 61.01 µg/m3 11.89 µg/m3 5.05 µg/m3 0.13 mg/m3 10.32 °C 77.78 % 1,011.91 mbar 3.83 m/s 304.44 Deg 0.07 µg/m3 0.63 µg/m3
2023-01-20 02:00 0.62 µg/m3 0.44 µg/m3 63.94 µg/m3 9.94 µg/m3 4.18 µg/m3 0.2 mg/m3 11.68 °C 62.45 % 1,011.78 mbar 5.72 m/s 289.53 Deg -0.17 µg/m3 0.68 µg/m3
2023-01-20 01:00 0.11 µg/m3 0.3 µg/m3 60.62 µg/m3 8.23 µg/m3 3.57 µg/m3 0.21 mg/m3 11.49 °C 62.77 % 1,011.66 mbar 6.86 m/s 263.22 Deg -0.01 µg/m3 0.63 µg/m3
2023-01-20 00:00 0.49 µg/m3 0.3 µg/m3 61.12 µg/m3 10.12 µg/m3 4.09 µg/m3 0.22 mg/m3 11.48 °C 63.87 % 1,011.80 mbar 5.99 m/s 276.22 Deg -0.01 µg/m3 0.65 µg/m3
2023-01-19 23:00 1.41 µg/m3 0.39 µg/m3 59.56 µg/m3 9.78 µg/m3 4.35 µg/m3 0.22 mg/m3 11.04 °C 68.45 % 1,011.77 mbar 5.07 m/s 276.34 Deg 0.35 µg/m3 0.63 µg/m3
2023-01-19 22:00 1.97 µg/m3 0.55 µg/m3 61.57 µg/m3 9.86 µg/m3 4.22 µg/m3 0.22 mg/m3 8.4 °C 87.33 % 1,012.02 mbar 4.54 m/s 285.74 Deg 0.46 µg/m3 0.73 µg/m3
2023-01-19 21:00 2.2 µg/m3 0.43 µg/m3 65.26 µg/m3 11.2 µg/m3 3.94 µg/m3 0.22 mg/m3 12.09 °C 58.29 % 1,010.99 mbar 5.26 m/s 294.36 Deg 0.52 µg/m3 0.84 µg/m3
2023-01-19 20:00 3.42 µg/m3 0.23 µg/m3 64.42 µg/m3 9.05 µg/m3 3.58 µg/m3 0.23 mg/m3 11.75 °C 63.99 % 1,010.28 mbar 4.26 m/s 288.12 Deg 1.18 µg/m3 0.65 µg/m3
2023-01-19 19:00 6.74 µg/m3 0.7 µg/m3 60.11 µg/m3 9.11 µg/m3 3.66 µg/m3 0.24 mg/m3 10.88 °C 72.99 % 1,009.85 mbar 3.84 m/s 294.72 Deg 2.44 µg/m3 0.76 µg/m3
2023-01-19 18:00 7.42 µg/m3 0.58 µg/m3 60.64 µg/m3 9.38 µg/m3 4.05 µg/m3 0.25 mg/m3 10.73 °C 74.37 % 1,009.29 mbar 4.51 m/s 309.73 Deg 2.33 µg/m3 0.79 µg/m3
2023-01-19 17:00 7.92 µg/m3 0.51 µg/m3 60.63 µg/m3 6.91 µg/m3 2.92 µg/m3 0.26 mg/m3 11.95 °C 65.38 % 1,008.33 mbar 4.42 m/s 288.87 Deg 3.45 µg/m3 0.71 µg/m3
2023-01-19 16:00 16.8 µg/m3 0.35 µg/m3 57.18 µg/m3 7.99 µg/m3 3.26 µg/m3 0.27 mg/m3 10.56 °C 74.17 % 1,008.21 mbar 4 m/s 255.84 Deg 7.98 µg/m3 1.08 µg/m3
2023-01-19 15:00 13.8 µg/m3 0.74 µg/m3 59.86 µg/m3 7.86 µg/m3 3.18 µg/m3 0.28 mg/m3 8.87 °C 81.05 % 1,008.64 mbar 4.19 m/s 272.95 Deg 5.46 µg/m3 0.77 µg/m3
2023-01-19 14:00 31.23 µg/m3 0.8 µg/m3 36.02 µg/m3 12.56 µg/m3 4.84 µg/m3 0.31 mg/m3 11.05 °C 79.53 % 1,007.93 mbar 1.98 m/s 223.82 Deg 20.98 µg/m3 1.47 µg/m3
2023-01-19 13:00 36.44 µg/m3 0.87 µg/m3 38.31 µg/m3 9.92 µg/m3 4.13 µg/m3 0.3 mg/m3 10.58 °C 84.13 % 1,008.41 mbar 2.47 m/s 208.59 Deg 23.86 µg/m3 1.12 µg/m3
2023-01-19 12:00 31.36 µg/m3 0.67 µg/m3 41.95 µg/m3 11.15 µg/m3 4 µg/m3 0.28 mg/m3 11.42 °C 74.11 % 1,009.06 mbar 3.32 m/s 223.74 Deg 19.76 µg/m3 0.84 µg/m3
2023-01-19 11:00 24.5 µg/m3 0.68 µg/m3 49.12 µg/m3 10.8 µg/m3 3.59 µg/m3 0.28 mg/m3 13.5 °C 66.98 % 1,009.17 mbar 2.73 m/s 265.83 Deg 11.79 µg/m3 0.79 µg/m3
2023-01-19 10:00 21.36 µg/m3 0.62 µg/m3 50.16 µg/m3 11.13 µg/m3 3.65 µg/m3 0.29 mg/m3 14.06 °C 60.12 % 1,009.00 mbar 3.71 m/s 262.34 Deg 11.83 µg/m3 0.86 µg/m3
2023-01-19 09:00 29.86 µg/m3 0.8 µg/m3 43.3 µg/m3 13.96 µg/m3 4.31 µg/m3 0.32 mg/m3 13.49 °C 61.09 % 1,008.46 mbar 2.89 m/s 265.44 Deg 14.59 µg/m3 1.08 µg/m3
2023-01-19 08:00 40.91 µg/m3 0.93 µg/m3 32.76 µg/m3 17.06 µg/m3 5.16 µg/m3 0.33 mg/m3 12.79 °C 61.13 % 1,008.20 mbar 2.39 m/s 247.32 Deg 25.6 µg/m3 1 µg/m3
2023-01-19 07:00 37.75 µg/m3 0.68 µg/m3 36.39 µg/m3 13.97 µg/m3 5.23 µg/m3 0.29 mg/m3 12.75 °C 63.94 % 1,007.80 mbar 2.17 m/s 259.57 Deg 21.46 µg/m3 1.15 µg/m3
2023-01-19 06:00 18.51 µg/m3 0.47 µg/m3 53.17 µg/m3 13.21 µg/m3 4.59 µg/m3 0.23 mg/m3 12.96 °C 65.55 % 1,007.25 mbar 1.69 m/s 278.41 Deg 3.57 µg/m3 0.68 µg/m3
2023-01-19 05:00 8.21 µg/m3 0.3 µg/m3 61.02 µg/m3 13.15 µg/m3 4.36 µg/m3 0.21 mg/m3 12.94 °C 68.55 % 1,006.80 mbar 1.66 m/s 274.75 Deg 0.32 µg/m3 0.56 µg/m3
2023-01-19 04:00 6.47 µg/m3 0.49 µg/m3 68.32 µg/m3 10.87 µg/m3 4.09 µg/m3 0.21 mg/m3 13.7 °C 67.08 % 1,006.92 mbar 2.21 m/s 285 Deg -0.12 µg/m3 0.52 µg/m3
2023-01-19 03:00 22.71 µg/m3 0.36 µg/m3 64.05 µg/m3 17.34 µg/m3 6.11 µg/m3 0.15 mg/m3 14.04 °C 74.68 % 1,006.78 mbar 1.8 m/s 291.8 Deg -0.05 µg/m3 0.52 µg/m3
2023-01-19 02:00 2.39 µg/m3 0.36 µg/m3 64.12 µg/m3 25.66 µg/m3 8.88 µg/m3 0.23 mg/m3 14.42 °C 78.26 % 1,006.68 mbar 2.22 m/s 303.73 Deg -0.02 µg/m3 0.52 µg/m3
2023-01-19 01:00 3.4 µg/m3 0.48 µg/m3 43.08 µg/m3 49.18 µg/m3 16.16 µg/m3 0.23 mg/m3 15.04 °C 80.99 % 1,006.01 mbar 2.54 m/s 318.56 Deg -0.03 µg/m3 0.52 µg/m3
2023-01-19 00:00 2.14 µg/m3 0.14 µg/m3 58.16 µg/m3 392.2 µg/m3 107.88 µg/m3 0.23 mg/m3 17.18 °C 69.19 % 1,005.49 mbar 5.14 m/s 264.36 Deg 0.3 µg/m3 0.44 µg/m3
2023-01-18 23:00 3.16 µg/m3 0.34 µg/m3 57.27 µg/m3 484.64 µg/m3 125.12 µg/m3 0.23 mg/m3 18.15 °C 53.22 % 1,004.87 mbar 6.01 m/s 232.08 Deg 1.12 µg/m3 0.42 µg/m3
2023-01-18 22:00 4.25 µg/m3 0.36 µg/m3 54.16 µg/m3 363.87 µg/m3 97.76 µg/m3 0.24 mg/m3 17.33 °C 62.63 % 1,004.96 mbar 5.1 m/s 233.12 Deg 1.8 µg/m3 0.52 µg/m3
2023-01-18 21:00 7.76 µg/m3 0.56 µg/m3 49.35 µg/m3 182.4 µg/m3 50.01 µg/m3 0.26 mg/m3 16.61 °C 74.17 % 1,004.97 mbar 4.35 m/s 225.54 Deg 3.26 µg/m3 0.68 µg/m3
2023-01-18 20:00 11.31 µg/m3 0.53 µg/m3 50.33 µg/m3 126.41 µg/m3 36.41 µg/m3 0.27 mg/m3 16.68 °C 79.46 % 1,004.86 mbar 4.56 m/s 229.98 Deg 5.16 µg/m3 0.65 µg/m3
2023-01-18 19:00 14.12 µg/m3 0.61 µg/m3 47.99 µg/m3 184.22 µg/m3 51.53 µg/m3 0.27 mg/m3 16.83 °C 76.86 % 1,004.49 mbar 4.25 m/s 230.01 Deg 7.12 µg/m3 1.23 µg/m3
2023-01-18 18:00 24.12 µg/m3 0.5 µg/m3 40.99 µg/m3 182.33 µg/m3 51.42 µg/m3 0.28 mg/m3 16.93 °C 74.84 % 1,004.02 mbar 4.72 m/s 230.56 Deg 16.02 µg/m3 1.31 µg/m3
2023-01-18 17:00 15.41 µg/m3 0.46 µg/m3 45.36 µg/m3 188.92 µg/m3 52.97 µg/m3 0.25 mg/m3 17.51 °C 74.35 % 1,003.90 mbar 5.47 m/s 231.68 Deg 8.45 µg/m3 0.63 µg/m3
2023-01-18 16:00 13.67 µg/m3 0.58 µg/m3 47.47 µg/m3 220.69 µg/m3 60.89 µg/m3 0.24 mg/m3 18.27 °C 70.21 % 1,003.83 mbar 6.31 m/s 237.79 Deg 9.2 µg/m3 0.56 µg/m3
2023-01-18 15:00 14.1 µg/m3 0.25 µg/m3 45.92 µg/m3 231.12 µg/m3 64.92 µg/m3 0.24 mg/m3 18.81 °C 67.12 % 1,003.97 mbar 6.82 m/s 241.47 Deg 10.79 µg/m3 0.63 µg/m3
2023-01-18 14:00 8.59 µg/m3 0.35 µg/m3 48.13 µg/m3 237.97 µg/m3 69.21 µg/m3 0.23 mg/m3 18.73 °C 68.44 % 1,004.42 mbar 7.09 m/s 236.73 Deg 4.79 µg/m3 0.61 µg/m3
2023-01-18 13:00 12.8 µg/m3 0.48 µg/m3 45.62 µg/m3 265.89 µg/m3 76.12 µg/m3 0.24 mg/m3 18.77 °C 68.45 % 1,004.82 mbar 6.48 m/s 240.49 Deg 9.17 µg/m3 0.7 µg/m3
2023-01-18 12:00 10.5 µg/m3 0.57 µg/m3 48.55 µg/m3 281.15 µg/m3 78.94 µg/m3 0.24 mg/m3 18.62 °C 68.52 % 1,005.33 mbar 6.17 m/s 244.63 Deg 6.1 µg/m3 0.89 µg/m3
2023-01-18 11:00 13.01 µg/m3 0.38 µg/m3 46.4 µg/m3 306.93 µg/m3 85.28 µg/m3 0.24 mg/m3 18.2 °C 70.98 % 1,005.52 mbar 6.09 m/s 248.52 Deg 7.76 µg/m3 0.68 µg/m3
2023-01-18 10:00 16.2 µg/m3 0.49 µg/m3 40.12 µg/m3 326.06 µg/m3 83.44 µg/m3 0.26 mg/m3 17.71 °C 72.48 % 1,005.39 mbar 5.72 m/s 248.53 Deg 9.76 µg/m3 0.58 µg/m3
2023-01-18 09:00 15.75 µg/m3 0.39 µg/m3 45.27 µg/m3 273.61 µg/m3 64.94 µg/m3 0.26 mg/m3 17 °C 71.95 % 1,004.92 mbar 5.73 m/s 249.4 Deg 7.26 µg/m3 0.7 µg/m3
2023-01-18 08:00 23.26 µg/m3 0.48 µg/m3 39.15 µg/m3 176.47 µg/m3 40.58 µg/m3 0.26 mg/m3 16.43 °C 75.04 % 1,004.46 mbar 5.07 m/s 247.86 Deg 13.01 µg/m3 0.92 µg/m3
2023-01-18 07:00 20.1 µg/m3 0.33 µg/m3 42.2 µg/m3 135.58 µg/m3 31.55 µg/m3 0.24 mg/m3 15.94 °C 74.97 % 1,004.04 mbar 5.03 m/s 250.7 Deg 8.44 µg/m3 0.73 µg/m3
2023-01-18 06:00 8.31 µg/m3 0.4 µg/m3 52.93 µg/m3 135.06 µg/m3 31.64 µg/m3 0.21 mg/m3 15.94 °C 71.9 % 1,003.84 mbar 5.07 m/s 252.08 Deg 2.24 µg/m3 0.63 µg/m3
2023-01-18 05:00 5.74 µg/m3 0.43 µg/m3 58.65 µg/m3 136.44 µg/m3 30.82 µg/m3 0.2 mg/m3 16.3 °C 68.05 % 1,003.92 mbar 5.59 m/s 249.98 Deg 0.71 µg/m3 0.52 µg/m3
2023-01-18 04:00 8.64 µg/m3 0.47 µg/m3 57.66 µg/m3 164.71 µg/m3 39.12 µg/m3 0.2 mg/m3 16.2 °C 67.8 % 1,004.27 mbar 4.67 m/s 242.72 Deg 0.04 µg/m3 0.52 µg/m3
2023-01-18 03:00 22.68 µg/m3 0.3 µg/m3 60.4 µg/m3 302.2 µg/m3 75.26 µg/m3 0.13 mg/m3 16.53 °C 64.42 % 1,004.73 mbar 4.88 m/s 245.48 Deg 0.27 µg/m3 0.52 µg/m3
2023-01-18 02:00 2.03 µg/m3 0.45 µg/m3 61.3 µg/m3 420.08 µg/m3 100.97 µg/m3 0.18 mg/m3 16.52 °C 64.21 % 1,004.87 mbar 4.37 m/s 242.09 Deg 0.33 µg/m3 0.52 µg/m3
2023-01-18 01:00 1.1 µg/m3 0.43 µg/m3 61.41 µg/m3 486.92 µg/m3 116.36 µg/m3 0.19 mg/m3 16.88 °C 63.12 % 1,005.21 mbar 4.88 m/s 245.51 Deg -0.06 µg/m3 0.52 µg/m3
2023-01-18 00:00 1.91 µg/m3 0.18 µg/m3 56.94 µg/m3 533.71 µg/m3 127.68 µg/m3 0.19 mg/m3 16.96 °C 64.77 % 1,005.54 mbar 5 m/s 250.08 Deg 0.52 µg/m3 0.6 µg/m3
2023-01-17 23:00 2.17 µg/m3 0.33 µg/m3 56.28 µg/m3 526.68 µg/m3 124.59 µg/m3 0.19 mg/m3 17.19 °C 63.88 % 1,005.54 mbar 5.61 m/s 249.81 Deg 0.43 µg/m3 0.79 µg/m3
2023-01-17 22:00 2.57 µg/m3 0.41 µg/m3 57.83 µg/m3 404.29 µg/m3 97.94 µg/m3 0.19 mg/m3 17.51 °C 60.97 % 1,005.27 mbar 6.51 m/s 252.74 Deg 0.49 µg/m3 0.6 µg/m3
2023-01-17 21:00 3.41 µg/m3 0.26 µg/m3 57.25 µg/m3 374.42 µg/m3 93.51 µg/m3 0.19 mg/m3 17.67 °C 61.58 % 1,005.00 mbar 7.09 m/s 250.56 Deg 0.49 µg/m3 0.63 µg/m3
2023-01-17 20:00 4.07 µg/m3 0.36 µg/m3 56.5 µg/m3 210.81 µg/m3 54.76 µg/m3 0.2 mg/m3 17.8 °C 61.54 % 1,004.66 mbar 7.9 m/s 252.11 Deg 1.14 µg/m3 0.63 µg/m3
2023-01-17 19:00 5.8 µg/m3 0.25 µg/m3 60.35 µg/m3 150.35 µg/m3 39.87 µg/m3 0.2 mg/m3 17.73 °C 60.29 % 1,004.06 mbar 8.1 m/s 250.13 Deg 1.92 µg/m3 0.65 µg/m3
2023-01-17 18:00 11.5 µg/m3 0.45 µg/m3 53.28 µg/m3 66.4 µg/m3 19.74 µg/m3 0.21 mg/m3 17.23 °C 65.36 % 1,003.62 mbar 6.62 m/s 245.06 Deg 4.6 µg/m3 0.71 µg/m3
2023-01-17 17:00 11.23 µg/m3 0.53 µg/m3 52 µg/m3 56.9 µg/m3 17.43 µg/m3 0.19 mg/m3 17.6 °C 65.25 % 1,003.56 mbar 6.91 m/s 247.96 Deg 5.51 µg/m3 0.52 µg/m3
2023-01-17 16:00 10.93 µg/m3 0.5 µg/m3 52.25 µg/m3 53.03 µg/m3 16.78 µg/m3 0.19 mg/m3 18.16 °C 64.92 % 1,003.89 mbar 7.47 m/s 247.47 Deg 6.21 µg/m3 0.47 µg/m3
2023-01-17 15:00 11.65 µg/m3 0.35 µg/m3 49.07 µg/m3 58.42 µg/m3 17.98 µg/m3 0.19 mg/m3 18.4 °C 67.26 % 1,004.24 mbar 7.43 m/s 245.24 Deg 7.67 µg/m3 0.56 µg/m3
2023-01-17 14:00 10.25 µg/m3 0.44 µg/m3 48.42 µg/m3 54.47 µg/m3 17.84 µg/m3 0.19 mg/m3 18.52 °C 68.68 % 1,004.95 mbar 7.35 m/s 246.37 Deg 6.29 µg/m3 0.52 µg/m3
2023-01-17 13:00 10.45 µg/m3 0.59 µg/m3 47.66 µg/m3 53.02 µg/m3 16.93 µg/m3 0.2 mg/m3 18.43 °C 67.73 % 1,005.67 mbar 7.52 m/s 247.94 Deg 7.39 µg/m3 0.58 µg/m3
2023-01-17 12:00 10.69 µg/m3 0.49 µg/m3 49.22 µg/m3 44.7 µg/m3 15.72 µg/m3 0.21 mg/m3 18.02 °C 70.62 % 1,006.33 mbar 7.71 m/s 245.12 Deg 6.6 µg/m3 0.52 µg/m3
2023-01-17 11:00 12.31 µg/m3 0.73 µg/m3 47.38 µg/m3 39.74 µg/m3 13.55 µg/m3 0.22 mg/m3 17.82 °C 69.74 % 1,007.13 mbar 6.95 m/s 248.35 Deg 7.36 µg/m3 0.68 µg/m3
2023-01-17 10:00 14.18 µg/m3 0.36 µg/m3 47.41 µg/m3 33.28 µg/m3 12.24 µg/m3 0.23 mg/m3 17.04 °C 69.96 % 1,007.40 mbar 6.82 m/s 248.28 Deg 8.53 µg/m3 0.71 µg/m3
2023-01-17 09:00 18.42 µg/m3 0.65 µg/m3 49.18 µg/m3 28.61 µg/m3 11.41 µg/m3 0.25 mg/m3 16.57 °C 70.23 % 1,007.54 mbar 6.59 m/s 249.16 Deg 9.27 µg/m3 0.73 µg/m3
2023-01-17 08:00 18.47 µg/m3 0.59 µg/m3 50.31 µg/m3 32.32 µg/m3 12.02 µg/m3 0.24 mg/m3 16.3 °C 69.71 % 1,007.66 mbar 6.44 m/s 247.64 Deg 8.06 µg/m3 0.81 µg/m3
2023-01-17 07:00 23.44 µg/m3 0.65 µg/m3 46.03 µg/m3 48.69 µg/m3 15.74 µg/m3 0.24 mg/m3 16.03 °C 72.46 % 1,008.00 mbar 5.28 m/s 248.7 Deg 10.92 µg/m3 0.73 µg/m3
2023-01-17 06:00 9.69 µg/m3 0.59 µg/m3 56.76 µg/m3 68.95 µg/m3 18.33 µg/m3 0.22 mg/m3 16.18 °C 72.68 % 1,008.19 mbar 5.89 m/s 251.76 Deg 2.7 µg/m3 0.68 µg/m3
2023-01-17 05:00 6.11 µg/m3 0.32 µg/m3 60.47 µg/m3 47.8 µg/m3 15.14 µg/m3 0.21 mg/m3 16.13 °C 74.95 % 1,008.42 mbar 5.47 m/s 249.09 Deg 0.56 µg/m3 0.63 µg/m3
2023-01-17 04:00 7.4 µg/m3 0.39 µg/m3 65.09 µg/m3 31.37 µg/m3 12.43 µg/m3 0.21 mg/m3 15.99 °C 76.02 % 1,008.96 mbar 5 m/s 245.85 Deg -0.04 µg/m3 0.63 µg/m3
2023-01-17 03:00 23.53 µg/m3 0.51 µg/m3 63.91 µg/m3 70.84 µg/m3 21 µg/m3 0.14 mg/m3 15.66 °C 76.76 % 1,009.57 mbar 4.27 m/s 243.1 Deg 0.29 µg/m3 0.76 µg/m3
2023-01-17 02:00 2.23 µg/m3 0.31 µg/m3 65.55 µg/m3 67 µg/m3 19.09 µg/m3 0.22 mg/m3 15.73 °C 76.06 % 1,010.04 mbar 4.06 m/s 241.93 Deg -0.09 µg/m3 0.63 µg/m3
2023-01-17 01:00 3.07 µg/m3 0.46 µg/m3 66.08 µg/m3 52.37 µg/m3 15.15 µg/m3 0.23 mg/m3 15.79 °C 75.33 % 1,010.52 mbar 4.22 m/s 243.06 Deg 0.15 µg/m3 0.58 µg/m3
2023-01-17 00:00 5.01 µg/m3 0.37 µg/m3 64.24 µg/m3 23.89 µg/m3 9.2 µg/m3 0.24 mg/m3 15.6 °C 79.39 % 1,011.03 mbar 3.49 m/s 232.85 Deg 0.64 µg/m3 0.65 µg/m3
2023-01-16 23:00 6.9 µg/m3 0.45 µg/m3 61.63 µg/m3 18.89 µg/m3 8.38 µg/m3 0.25 mg/m3 15.4 °C 82.37 % 1,011.45 mbar 3.19 m/s 235.61 Deg 0.98 µg/m3 0.92 µg/m3
2023-01-16 22:00 7.06 µg/m3 0.43 µg/m3 66.33 µg/m3 22.01 µg/m3 9.17 µg/m3 0.26 mg/m3 15.55 °C 80.15 % 1,011.85 mbar 3.62 m/s 242.25 Deg 1.1 µg/m3 0.91 µg/m3
2023-01-16 21:00 9.15 µg/m3 0.49 µg/m3 66.14 µg/m3 16.77 µg/m3 7.94 µg/m3 0.26 mg/m3 15.8 °C 77.88 % 1,011.68 mbar 3.98 m/s 247.28 Deg 0.98 µg/m3 0.76 µg/m3
2023-01-16 20:00 12.53 µg/m3 0.62 µg/m3 68.43 µg/m3 15.54 µg/m3 7.8 µg/m3 0.26 mg/m3 15.94 °C 75.47 % 1,011.62 mbar 4.27 m/s 250.5 Deg 2.14 µg/m3 0.87 µg/m3
2023-01-16 19:00 13.99 µg/m3 0.63 µg/m3 70.32 µg/m3 14.49 µg/m3 7.36 µg/m3 0.26 mg/m3 15.93 °C 75.22 % 1,011.52 mbar 4.29 m/s 253.41 Deg 1.84 µg/m3 1 µg/m3
2023-01-16 18:00 16.89 µg/m3 0.49 µg/m3 65.21 µg/m3 16.12 µg/m3 7.56 µg/m3 0.25 mg/m3 15.94 °C 75.07 % 1,011.16 mbar 4.05 m/s 256.42 Deg 2.36 µg/m3 1.03 µg/m3
2023-01-16 17:00 14.48 µg/m3 0.52 µg/m3 64.49 µg/m3 14.75 µg/m3 7.46 µg/m3 0.24 mg/m3 16.59 °C 72.6 % 1,011.18 mbar 4.9 m/s 264.28 Deg 4.16 µg/m3 0.97 µg/m3
2023-01-16 16:00 14.8 µg/m3 0.79 µg/m3 64.7 µg/m3 14.94 µg/m3 7.44 µg/m3 0.24 mg/m3 17.11 °C 69.19 % 1,011.15 mbar 5.16 m/s 260.38 Deg 5.01 µg/m3 0.84 µg/m3
2023-01-16 15:00 16.65 µg/m3 0.68 µg/m3 58.43 µg/m3 23.23 µg/m3 8.88 µg/m3 0.24 mg/m3 17.3 °C 68.58 % 1,011.40 mbar 4.44 m/s 260.72 Deg 6.96 µg/m3 1.33 µg/m3
2023-01-16 14:00 18.67 µg/m3 0.8 µg/m3 52.93 µg/m3 29.54 µg/m3 9.82 µg/m3 0.23 mg/m3 17.27 °C 74.69 % 1,011.88 mbar 3.38 m/s 257 Deg 9.17 µg/m3 1 µg/m3
2023-01-16 13:00 18.51 µg/m3 0.63 µg/m3 51.28 µg/m3 28.66 µg/m3 9.53 µg/m3 0.23 mg/m3 17.08 °C 73.87 % 1,012.66 mbar 3.23 m/s 254.45 Deg 11.98 µg/m3 0.79 µg/m3
2023-01-16 12:00 18.11 µg/m3 0.67 µg/m3 54.59 µg/m3 24.01 µg/m3 8.86 µg/m3 0.26 mg/m3 16.86 °C 72.71 % 1,013.58 mbar 3.29 m/s 251.77 Deg 9.14 µg/m3 0.79 µg/m3
2023-01-16 11:00 17.36 µg/m3 0.72 µg/m3 55.09 µg/m3 23.31 µg/m3 8.96 µg/m3 0.27 mg/m3 16.62 °C 72.22 % 1,014.07 mbar 3.85 m/s 256.88 Deg 7.63 µg/m3 0.91 µg/m3
2023-01-16 10:00 15.9 µg/m3 0.63 µg/m3 55.11 µg/m3 23.24 µg/m3 9.31 µg/m3 0.3 mg/m3 16.4 °C 72.91 % 1,014.67 mbar 4.65 m/s 257.55 Deg 5 µg/m3 0.91 µg/m3
2023-01-16 09:00 34.82 µg/m3 0.63 µg/m3 37.92 µg/m3 25.2 µg/m3 10.14 µg/m3 0.32 mg/m3 15.55 °C 75.03 % 1,014.43 mbar 3.86 m/s 246.44 Deg 16.5 µg/m3 1.23 µg/m3
2023-01-16 08:00 37.76 µg/m3 0.76 µg/m3 34.02 µg/m3 27.96 µg/m3 10.42 µg/m3 0.33 mg/m3 14.82 °C 79.05 % 1,014.30 mbar 3.53 m/s 236.95 Deg 21.03 µg/m3 1.21 µg/m3
2023-01-16 07:00 37.37 µg/m3 0.69 µg/m3 36.68 µg/m3 26.5 µg/m3 10.03 µg/m3 0.29 mg/m3 14.9 °C 78.01 % 1,014.38 mbar 3.67 m/s 241.19 Deg 21.92 µg/m3 0.98 µg/m3
2023-01-16 06:00 18.54 µg/m3 0.4 µg/m3 52.16 µg/m3 25.59 µg/m3 9.77 µg/m3 0.23 mg/m3 15.27 °C 79.3 % 1,014.66 mbar 3.68 m/s 245.12 Deg 5.31 µg/m3 0.7 µg/m3
2023-01-16 05:00 8.02 µg/m3 0.35 µg/m3 61.48 µg/m3 33.34 µg/m3 10.95 µg/m3 0.21 mg/m3 15.4 °C 77.92 % 1,014.77 mbar 3.98 m/s 246.62 Deg 1.5 µg/m3 0.52 µg/m3
2023-01-16 04:00 7.61 µg/m3 0.3 µg/m3 64.31 µg/m3 103.48 µg/m3 25.9 µg/m3 0.21 mg/m3 15.22 °C 78.36 % 1,015.17 mbar 3.69 m/s 241.69 Deg -0.08 µg/m3 0.56 µg/m3
2023-01-16 03:00 23.84 µg/m3 0.45 µg/m3 60.35 µg/m3 110.13 µg/m3 25.67 µg/m3 0.15 mg/m3 14.97 °C 82.75 % 1,015.93 mbar 3.46 m/s 241.01 Deg -0.02 µg/m3 0.63 µg/m3
2023-01-16 02:00 4.41 µg/m3 0.66 µg/m3 64.09 µg/m3 26.05 µg/m3 9.02 µg/m3 0.23 mg/m3 14.84 °C 81.47 % 1,016.64 mbar 3.41 m/s 244.65 Deg 0.72 µg/m3 0.63 µg/m3
2023-01-16 01:00 3.28 µg/m3 0.58 µg/m3 62.34 µg/m3 9.63 µg/m3 4.5 µg/m3 0.25 mg/m3 14.8 °C 79.84 % 1,017.19 mbar 3.17 m/s 245.79 Deg 0.17 µg/m3 0.56 µg/m3
2023-01-16 00:00 6.66 µg/m3 0.46 µg/m3 58.98 µg/m3 8.74 µg/m3 4 µg/m3 0.27 mg/m3 14.66 °C 76.75 % 1,017.90 mbar 3.2 m/s 249.89 Deg 1.2 µg/m3 0.58 µg/m3
2023-01-15 23:00 12.36 µg/m3 0.54 µg/m3 54.35 µg/m3 7.73 µg/m3 3.74 µg/m3 0.3 mg/m3 14.3 °C 78.19 % 1,018.31 mbar 2.71 m/s 250.01 Deg 3.23 µg/m3 0.81 µg/m3
2023-01-15 22:00 14.73 µg/m3 0.64 µg/m3 51.84 µg/m3 6.73 µg/m3 3.48 µg/m3 0.32 mg/m3 13.96 °C 79.13 % 1,018.62 mbar 2.5 m/s 242.9 Deg 4.05 µg/m3 0.84 µg/m3
2023-01-15 21:00 21.15 µg/m3 0.65 µg/m3 48.96 µg/m3 7.99 µg/m3 3.93 µg/m3 0.32 mg/m3 14.06 °C 77.19 % 1,018.84 mbar 2.3 m/s 241.68 Deg 6.68 µg/m3 0.92 µg/m3
2023-01-15 20:00 19.97 µg/m3 0.7 µg/m3 47.68 µg/m3 9.64 µg/m3 4.5 µg/m3 0.32 mg/m3 14.34 °C 75.41 % 1,019.08 mbar 2.49 m/s 256.09 Deg 5.59 µg/m3 0.79 µg/m3
2023-01-15 19:00 30.22 µg/m3 0.83 µg/m3 40.76 µg/m3 15.45 µg/m3 6.54 µg/m3 0.32 mg/m3 14.7 °C 75.81 % 1,018.98 mbar 2.1 m/s 251.32 Deg 14.14 µg/m3 1.49 µg/m3
2023-01-15 18:00 25.66 µg/m3 0.59 µg/m3 48.95 µg/m3 12.78 µg/m3 5.35 µg/m3 0.28 mg/m3 15.08 °C 72 % 1,018.91 mbar 2.1 m/s 266.89 Deg 8.31 µg/m3 1.29 µg/m3
2023-01-15 17:00 14.53 µg/m3 0.53 µg/m3 56.44 µg/m3 12.1 µg/m3 5.65 µg/m3 0.25 mg/m3 15.65 °C 70.55 % 1,018.96 mbar 2.87 m/s 275.93 Deg 3.61 µg/m3 1.1 µg/m3
2023-01-15 16:00 10.77 µg/m3 0.6 µg/m3 61.85 µg/m3 9.91 µg/m3 5.15 µg/m3 0.24 mg/m3 15.92 °C 68.19 % 1,019.12 mbar 3.18 m/s 283.25 Deg 3.54 µg/m3 0.98 µg/m3
2023-01-15 15:00 8.33 µg/m3 0.47 µg/m3 62 µg/m3 8.41 µg/m3 4.19 µg/m3 0.24 mg/m3 16.17 °C 67.19 % 1,019.29 mbar 3.58 m/s 284.56 Deg 2.94 µg/m3 0.94 µg/m3
2023-01-15 14:00 8.69 µg/m3 0.38 µg/m3 61.42 µg/m3 7.97 µg/m3 4.11 µg/m3 0.27 mg/m3 16.17 °C 66.77 % 1,019.71 mbar 3.69 m/s 278.24 Deg 2.98 µg/m3 0.89 µg/m3
2023-01-15 13:00 9.76 µg/m3 0.44 µg/m3 60.21 µg/m3 9.85 µg/m3 5 µg/m3 0.3 mg/m3 16.42 °C 65.55 % 1,020.14 mbar 3.52 m/s 281.18 Deg 3.63 µg/m3 1.33 µg/m3
2023-01-15 12:00 9.99 µg/m3 0.72 µg/m3 58.86 µg/m3 10.25 µg/m3 5.28 µg/m3 0.33 mg/m3 16.12 °C 65.08 % 1,020.81 mbar 2.75 m/s 330.76 Deg 4.29 µg/m3 1.5 µg/m3
2023-01-15 11:00 9.5 µg/m3 0.78 µg/m3 59.7 µg/m3 10.19 µg/m3 5.17 µg/m3 0.33 mg/m3 15.8 °C 66.02 % 1,021.28 mbar 2.75 m/s 267.22 Deg 4.19 µg/m3 1.18 µg/m3
2023-01-15 10:00 9.7 µg/m3 0.69 µg/m3 57.59 µg/m3 10.52 µg/m3 5.16 µg/m3 0.33 mg/m3 15.52 °C 67.52 % 1,021.06 mbar 2.72 m/s 104.71 Deg 3.46 µg/m3 2.15 µg/m3
2023-01-15 09:00 15.32 µg/m3 0.99 µg/m3 49.61 µg/m3 12.62 µg/m3 5.99 µg/m3 0.37 mg/m3 14.52 °C 71.54 % 1,020.83 mbar 1.64 m/s 164.45 Deg 4.06 µg/m3 3.02 µg/m3
2023-01-15 08:00 20.03 µg/m3 0.52 µg/m3 43.66 µg/m3 12.75 µg/m3 6.24 µg/m3 0.32 mg/m3 13.6 °C 72.48 % 1,020.58 mbar 1.18 m/s 295.26 Deg 8.03 µg/m3 1.47 µg/m3
2023-01-15 07:00 22.64 µg/m3 0.7 µg/m3 44.6 µg/m3 12.09 µg/m3 5.66 µg/m3 0.26 mg/m3 13.68 °C 68.81 % 1,020.29 mbar 1.26 m/s 212.23 Deg 9.33 µg/m3 1.1 µg/m3
2023-01-15 06:00 7.89 µg/m3 0.54 µg/m3 61.42 µg/m3 12.02 µg/m3 5.62 µg/m3 0.21 mg/m3 14.51 °C 67.57 % 1,019.99 mbar 1.82 m/s 161.25 Deg 0.46 µg/m3 0.63 µg/m3
2023-01-15 05:00 4.04 µg/m3 0.56 µg/m3 68.13 µg/m3 10.69 µg/m3 5.64 µg/m3 0.2 mg/m3 15.09 °C 66.03 % 1,019.80 mbar 2.78 m/s 17.51 Deg -0.17 µg/m3 0.63 µg/m3
2023-01-15 04:00 6.85 µg/m3 0.52 µg/m3 66.31 µg/m3 12.02 µg/m3 6.17 µg/m3 0.21 mg/m3 15.08 °C 68.41 % 1,019.89 mbar 2.91 m/s 11.78 Deg -0.09 µg/m3 0.63 µg/m3
2023-01-15 03:00 21.57 µg/m3 0.48 µg/m3 67.55 µg/m3 12.03 µg/m3 6.64 µg/m3 0.15 mg/m3 15.21 °C 68.18 % 1,019.98 mbar 3.21 m/s 264.94 Deg 0.13 µg/m3 0.7 µg/m3
2023-01-15 02:00 4.59 µg/m3 0.43 µg/m3 62.93 µg/m3 12.96 µg/m3 6.73 µg/m3 0.23 mg/m3 15.04 °C 69.6 % 1,020.01 mbar 1.91 m/s 249.58 Deg -0.08 µg/m3 0.73 µg/m3
2023-01-15 01:00 7.04 µg/m3 0.37 µg/m3 56.28 µg/m3 12.79 µg/m3 6.74 µg/m3 0.23 mg/m3 15.05 °C 69.68 % 1,020.15 mbar 1.99 m/s 244.77 Deg 0.87 µg/m3 0.7 µg/m3
2023-01-15 00:00 4.54 µg/m3 0.6 µg/m3 59.76 µg/m3 13.39 µg/m3 6.41 µg/m3 0.23 mg/m3 15.38 °C 69.07 % 1,020.47 mbar 2.27 m/s 346.49 Deg 0.33 µg/m3 0.65 µg/m3
2023-01-14 23:00 10.05 µg/m3 0.54 µg/m3 52.65 µg/m3 13.84 µg/m3 6.85 µg/m3 0.24 mg/m3 15.39 °C 68.42 % 1,020.35 mbar 1.83 m/s 250.59 Deg 2.71 µg/m3 0.73 µg/m3
2023-01-14 22:00 3.57 µg/m3 0.29 µg/m3 61.25 µg/m3 12.66 µg/m3 6.31 µg/m3 0.23 mg/m3 16.13 °C 64.68 % 1,020.18 mbar 3.23 m/s 17.76 Deg 1.35 µg/m3 0.7 µg/m3
2023-01-14 21:00 10.67 µg/m3 0.47 µg/m3 51.94 µg/m3 18.58 µg/m3 8.42 µg/m3 0.25 mg/m3 15.54 °C 77.05 % 1,020.17 mbar 1.98 m/s 312.21 Deg 2.11 µg/m3 0.79 µg/m3
2023-01-14 20:00 10.68 µg/m3 0.58 µg/m3 54.31 µg/m3 18.08 µg/m3 8.26 µg/m3 0.24 mg/m3 15.66 °C 77.14 % 1,019.89 mbar 2.44 m/s 315.56 Deg 2.16 µg/m3 0.87 µg/m3
2023-01-14 19:00 14.21 µg/m3 0.5 µg/m3 52.47 µg/m3 16.68 µg/m3 7.42 µg/m3 0.24 mg/m3 15.54 °C 74.2 % 1,019.52 mbar 2.08 m/s 286.4 Deg 2.87 µg/m3 1.18 µg/m3
2023-01-14 18:00 15.17 µg/m3 0.55 µg/m3 50.43 µg/m3 13.86 µg/m3 6.8 µg/m3 0.24 mg/m3 15.47 °C 73.63 % 1,019.15 mbar 2.27 m/s 284.82 Deg 3.35 µg/m3 0.89 µg/m3
2023-01-14 17:00 9.06 µg/m3 0.53 µg/m3 57.12 µg/m3 13.24 µg/m3 6.15 µg/m3 0.21 mg/m3 15.92 °C 71.48 % 1,019.01 mbar 3.15 m/s 297.53 Deg 2.39 µg/m3 0.73 µg/m3
2023-01-14 16:00 7.99 µg/m3 0.44 µg/m3 59.01 µg/m3 14 µg/m3 6.85 µg/m3 0.21 mg/m3 16.49 °C 70.63 % 1,018.67 mbar 3.78 m/s 332.29 Deg 2.5 µg/m3 0.73 µg/m3
2023-01-14 15:00 6.3 µg/m3 0.46 µg/m3 56.76 µg/m3 16.68 µg/m3 7.73 µg/m3 0.21 mg/m3 16.84 °C 73.76 % 1,018.70 mbar 4.73 m/s 288.65 Deg 2.81 µg/m3 0.65 µg/m3
2023-01-14 14:00 7.37 µg/m3 0.27 µg/m3 56.07 µg/m3 16.13 µg/m3 7.83 µg/m3 0.21 mg/m3 16.92 °C 73.62 % 1,018.73 mbar 4.42 m/s 305.63 Deg 3.95 µg/m3 0.87 µg/m3
2023-01-14 13:00 7.03 µg/m3 0.59 µg/m3 57.8 µg/m3 15.83 µg/m3 7.25 µg/m3 0.21 mg/m3 17.07 °C 68.53 % 1,019.34 mbar 4.19 m/s 317.08 Deg 3.06 µg/m3 0.7 µg/m3
2023-01-14 12:00 9.23 µg/m3 0.57 µg/m3 51.98 µg/m3 19.22 µg/m3 8.88 µg/m3 0.22 mg/m3 16.76 °C 73.34 % 1,020.18 mbar 3.93 m/s 327.01 Deg 3.39 µg/m3 0.82 µg/m3
2023-01-14 11:00 10.2 µg/m3 0.74 µg/m3 53.92 µg/m3 19.98 µg/m3 9.43 µg/m3 0.22 mg/m3 16.86 °C 72.57 % 1,020.53 mbar 3.77 m/s 316.31 Deg 3.82 µg/m3 0.6 µg/m3
2023-01-14 10:00 12.65 µg/m3 0.44 µg/m3 48.88 µg/m3 21 µg/m3 9.97 µg/m3 0.22 mg/m3 16.48 °C 75.96 % 1,020.19 mbar 3.11 m/s 301.28 Deg 4.77 µg/m3 1.02 µg/m3
2023-01-14 09:00 14.09 µg/m3 0.47 µg/m3 49.76 µg/m3 20.85 µg/m3 9.6 µg/m3 0.23 mg/m3 15.72 °C 78.64 % 1,019.77 mbar 2.79 m/s 296.65 Deg 5.3 µg/m3 0.65 µg/m3
2023-01-14 08:00 13.61 µg/m3 0.57 µg/m3 34.91 µg/m3 17.18 µg/m3 7.86 µg/m3 0.21 mg/m3 15.16 °C 81.35 % 1,019.52 mbar 2.09 m/s 294.95 Deg 3.08 µg/m3 0.68 µg/m3
2023-01-14 07:00 13.59 µg/m3 0.53 µg/m3 48.55 µg/m3 17.03 µg/m3 7.44 µg/m3 0.21 mg/m3 15.17 °C 80.73 % 1,019.54 mbar 2.03 m/s 291.64 Deg 3.25 µg/m3 0.82 µg/m3
2023-01-14 06:00 10.81 µg/m3 0.3 µg/m3 51.01 µg/m3 15.15 µg/m3 7.22 µg/m3 0.19 mg/m3 15.03 °C 81.41 % 1,019.51 mbar 2.03 m/s 279.73 Deg 1.13 µg/m3 0.49 µg/m3
2023-01-14 05:00 8.17 µg/m3 0.26 µg/m3 56.71 µg/m3 15.03 µg/m3 7.2 µg/m3 0.19 mg/m3 15.29 °C 80.13 % 1,019.55 mbar 1.79 m/s 298.1 Deg 0.39 µg/m3 0.47 µg/m3
2023-01-14 04:00 7.85 µg/m3 0.31 µg/m3 59.53 µg/m3 14.79 µg/m3 6.89 µg/m3 0.18 mg/m3 15.28 °C 78.58 % 1,019.83 mbar 2.08 m/s 281.28 Deg -0.24 µg/m3 0.42 µg/m3
2023-01-14 03:00 24.72 µg/m3 0.35 µg/m3 62.01 µg/m3 13.19 µg/m3 6.25 µg/m3 0.13 mg/m3 14.96 °C 76.5 % 1,020.26 mbar 2.31 m/s 290.53 Deg 0.19 µg/m3 0.47 µg/m3
2023-01-14 02:00 1.87 µg/m3 0.4 µg/m3 63.17 µg/m3 12.21 µg/m3 5.97 µg/m3 0.22 mg/m3 15.07 °C 75.69 % 1,020.55 mbar 3.18 m/s 296.82 Deg 0.46 µg/m3 0.44 µg/m3
2023-01-14 01:00 1.68 µg/m3 0.58 µg/m3 64.64 µg/m3 11.69 µg/m3 5.93 µg/m3 0.23 mg/m3 15.22 °C 74.86 % 1,020.69 mbar 3.75 m/s 293.13 Deg 0.23 µg/m3 0.49 µg/m3
2023-01-14 00:00 3.43 µg/m3 0.51 µg/m3 62.49 µg/m3 12.78 µg/m3 5.97 µg/m3 0.23 mg/m3 14.96 °C 75.4 % 1,020.92 mbar 2.67 m/s 294.72 Deg 0.58 µg/m3 1.08 µg/m3
2023-01-13 23:00 3.97 µg/m3 0.37 µg/m3 61.24 µg/m3 12.07 µg/m3 5.95 µg/m3 0.24 mg/m3 14.82 °C 76.3 % 1,021.04 mbar 2.38 m/s 288.25 Deg 0.46 µg/m3 0.52 µg/m3
2023-01-13 22:00 7.31 µg/m3 0.53 µg/m3 57.45 µg/m3 12.73 µg/m3 6.04 µg/m3 0.25 mg/m3 14.83 °C 77.13 % 1,021.18 mbar 1.94 m/s 295.39 Deg 1.54 µg/m3 0.63 µg/m3
2023-01-13 21:00 8.69 µg/m3 0.49 µg/m3 57.36 µg/m3 11.5 µg/m3 5.27 µg/m3 0.26 mg/m3 14.84 °C 76.72 % 1,021.49 mbar 2.06 m/s 294.01 Deg 1.18 µg/m3 0.84 µg/m3
2023-01-13 20:00 9.38 µg/m3 0.52 µg/m3 55.41 µg/m3 10.13 µg/m3 4.48 µg/m3 0.26 mg/m3 14.9 °C 75.05 % 1,021.59 mbar 2.26 m/s 288.52 Deg 1.82 µg/m3 0.79 µg/m3
2023-01-13 19:00 19.62 µg/m3 0.56 µg/m3 49.15 µg/m3 9.55 µg/m3 3.89 µg/m3 0.27 mg/m3 14.36 °C 74.45 % 1,021.25 mbar 1.51 m/s 285.54 Deg 2.25 µg/m3 0.87 µg/m3
2023-01-13 18:00 21.15 µg/m3 0.73 µg/m3 50.34 µg/m3 9.28 µg/m3 3.79 µg/m3 0.27 mg/m3 14.58 °C 71.21 % 1,021.11 mbar 1.74 m/s 281.48 Deg 4.55 µg/m3 0.92 µg/m3
2023-01-13 17:00 13.16 µg/m3 0.86 µg/m3 56.15 µg/m3 8.67 µg/m3 3.93 µg/m3 0.26 mg/m3 15.54 °C 67.78 % 1,020.93 mbar 2.57 m/s 338.93 Deg 5.45 µg/m3 0.79 µg/m3
2023-01-13 16:00 14.13 µg/m3 0.73 µg/m3 51.31 µg/m3 7.87 µg/m3 3.25 µg/m3 0.25 mg/m3 16.18 °C 69.79 % 1,020.65 mbar 2.81 m/s 293.77 Deg 7.55 µg/m3 0.92 µg/m3
2023-01-13 15:00 14.56 µg/m3 0.78 µg/m3 49.19 µg/m3 8.89 µg/m3 3.64 µg/m3 0.27 mg/m3 16.19 °C 71.93 % 1,020.27 mbar 2.43 m/s 234.53 Deg 8.46 µg/m3 0.63 µg/m3
2023-01-13 14:00 10.87 µg/m3 0.51 µg/m3 54.74 µg/m3 10.46 µg/m3 3.97 µg/m3 0.29 mg/m3 15.41 °C 76.1 % 1,020.44 mbar 2.98 m/s 36.34 Deg 5.15 µg/m3 0.65 µg/m3
2023-01-13 13:00 10.22 µg/m3 0.69 µg/m3 52.96 µg/m3 9.92 µg/m3 4 µg/m3 0.33 mg/m3 15.53 °C 75.21 % 1,020.96 mbar 2.97 m/s 19.58 Deg 5.63 µg/m3 0.7 µg/m3
2023-01-13 12:00 15.13 µg/m3 0.76 µg/m3 44.19 µg/m3 13.44 µg/m3 4.92 µg/m3 0.39 mg/m3 15.6 °C 74.53 % 1,021.51 mbar 1.94 m/s 176.92 Deg 8.2 µg/m3 1.08 µg/m3
2023-01-13 11:00 22.61 µg/m3 1.08 µg/m3 34.51 µg/m3 17.68 µg/m3 6.21 µg/m3 0.47 mg/m3 15.61 °C 76.85 % 1,021.83 mbar 1.54 m/s 315.21 Deg 15.88 µg/m3 1.65 µg/m3
2023-01-13 10:00 39.36 µg/m3 1.32 µg/m3 17.08 µg/m3 35.19 µg/m3 9.47 µg/m3 0.55 mg/m3 14.92 °C 81.78 % 1,021.58 mbar 1.28 m/s 280.2 Deg 41.87 µg/m3 2.12 µg/m3
2023-01-13 09:00 47.25 µg/m3 2.13 µg/m3 2.76 µg/m3 38.26 µg/m3 10.14 µg/m3 0.68 mg/m3 13.74 °C 86.44 % 1,021.07 mbar 0.78 m/s 225.95 Deg 111.73 µg/m3 4.51 µg/m3
2023-01-13 08:00 57.27 µg/m3 2.54 µg/m3 4.66 µg/m3 29.8 µg/m3 9.55 µg/m3 0.67 mg/m3 13.56 °C 85.35 % 1,020.63 mbar 0.78 m/s 260.68 Deg 129.49 µg/m3 4.51 µg/m3
2023-01-13 07:00 54.22 µg/m3 2.53 µg/m3 3.84 µg/m3 25.37 µg/m3 9.47 µg/m3 0.57 mg/m3 13.75 °C 83.57 % 1,020.22 mbar 0.56 m/s 223.7 Deg 184.4 µg/m3 2.75 µg/m3
2023-01-13 06:00 34.67 µg/m3 1.03 µg/m3 12.75 µg/m3 11.59 µg/m3 5.33 µg/m3 0.32 mg/m3 12.73 °C 87.03 % 1,019.64 mbar 0.75 m/s 240.09 Deg 51.98 µg/m3 1.21 µg/m3
2023-01-13 05:00 21.75 µg/m3 0.47 µg/m3 26.41 µg/m3 10.08 µg/m3 4.79 µg/m3 0.26 mg/m3 13.48 °C 83.3 % 1,019.35 mbar 0.63 m/s 233.31 Deg 10.03 µg/m3 1.21 µg/m3
2023-01-13 04:00 12.64 µg/m3 0.53 µg/m3 45.06 µg/m3 9.34 µg/m3 4.53 µg/m3 0.23 mg/m3 14.07 °C 81.14 % 1,019.35 mbar 0.93 m/s 172.58 Deg 0.62 µg/m3 1.18 µg/m3
2023-01-13 03:00 25.06 µg/m3 0.86 µg/m3 55.11 µg/m3 9.17 µg/m3 4.74 µg/m3 0.15 mg/m3 15.18 °C 77.69 % 1,019.40 mbar 2.08 m/s 27.6 Deg 0.13 µg/m3 0.79 µg/m3
2023-01-13 02:00 6.27 µg/m3 0.96 µg/m3 54.27 µg/m3 9.75 µg/m3 5.09 µg/m3 0.22 mg/m3 15.19 °C 79.78 % 1,019.50 mbar 2.44 m/s 33 Deg 0.07 µg/m3 0.7 µg/m3
2023-01-13 01:00 2.23 µg/m3 0.34 µg/m3 59.55 µg/m3 11.63 µg/m3 5.79 µg/m3 0.22 mg/m3 15.56 °C 78.85 % 1,019.51 mbar 4.58 m/s 34.76 Deg -0.14 µg/m3 0.56 µg/m3
2023-01-13 00:00 3.67 µg/m3 0.15 µg/m3 61.79 µg/m3 14.63 µg/m3 6.54 µg/m3 0.22 mg/m3 15.57 °C 77.58 % 1,019.67 mbar 3.2 m/s 182.92 Deg 0.15 µg/m3 0.52 µg/m3
2023-01-12 23:00 2.83 µg/m3 0.39 µg/m3 60.75 µg/m3 15.2 µg/m3 6.7 µg/m3 0.22 mg/m3 15.46 °C 75.32 % 1,019.63 mbar 3.29 m/s 346.75 Deg 0.32 µg/m3 0.82 µg/m3
2023-01-12 22:00 3.64 µg/m3 0.34 µg/m3 59.27 µg/m3 16.44 µg/m3 7.35 µg/m3 0.22 mg/m3 15.58 °C 74.49 % 1,019.31 mbar 3.27 m/s 86.18 Deg 0.46 µg/m3 0.56 µg/m3
2023-01-12 21:00 6.47 µg/m3 0.51 µg/m3 56.19 µg/m3 19.68 µg/m3 9.09 µg/m3 0.23 mg/m3 15.49 °C 76.36 % 1,019.05 mbar 2.79 m/s 308.2 Deg 1.23 µg/m3 0.56 µg/m3
2023-01-12 20:00 6.86 µg/m3 0.4 µg/m3 56.17 µg/m3 24.53 µg/m3 10.98 µg/m3 0.23 mg/m3 15.4 °C 77 % 1,018.69 mbar 3.12 m/s 290.03 Deg 1.6 µg/m3 0.7 µg/m3
2023-01-12 19:00 8.18 µg/m3 0.35 µg/m3 55.1 µg/m3 25.54 µg/m3 12.49 µg/m3 0.23 mg/m3 15.41 °C 79.77 % 1,018.40 mbar 3.19 m/s 293.88 Deg 1.67 µg/m3 0.7 µg/m3
2023-01-12 18:00 7.47 µg/m3 0.59 µg/m3 57.59 µg/m3 23.82 µg/m3 11.61 µg/m3 0.23 mg/m3 15.6 °C 74.32 % 1,018.11 mbar 3.99 m/s 298.46 Deg 2.42 µg/m3 0.52 µg/m3
2023-01-12 17:00 8.52 µg/m3 0.46 µg/m3 58.21 µg/m3 26.62 µg/m3 11.63 µg/m3 0.22 mg/m3 16.11 °C 69.22 % 1,017.67 mbar 4.44 m/s 289.31 Deg 3.19 µg/m3 0.63 µg/m3
2023-01-12 16:00 8.67 µg/m3 0.52 µg/m3 53.78 µg/m3 21.66 µg/m3 9.52 µg/m3 0.22 mg/m3 16.77 °C 74.75 % 1,017.34 mbar 4.49 m/s 300.19 Deg 3.87 µg/m3 1.24 µg/m3
2023-01-12 15:00 8.57 µg/m3 0.61 µg/m3 52.75 µg/m3 20.14 µg/m3 8.54 µg/m3 0.21 mg/m3 17.15 °C 73.34 % 1,017.23 mbar 4.15 m/s 308.12 Deg 3.94 µg/m3 0.56 µg/m3
2023-01-12 14:00 7.16 µg/m3 0.53 µg/m3 52.14 µg/m3 13.63 µg/m3 6.72 µg/m3 0.22 mg/m3 17.06 °C 76.56 % 1,017.38 mbar 4.72 m/s 297.5 Deg 4.14 µg/m3 0.52 µg/m3
2023-01-12 13:00 9.49 µg/m3 0.53 µg/m3 49.05 µg/m3 13.08 µg/m3 6.43 µg/m3 0.23 mg/m3 15.11 °C 86.79 % 1,018.14 mbar 3.1 m/s 299.41 Deg 3.79 µg/m3 0.73 µg/m3
2023-01-12 12:00 11.98 µg/m3 0.49 µg/m3 49.87 µg/m3 11.5 µg/m3 6.22 µg/m3 0.24 mg/m3 14.76 °C 90.66 % 1,018.98 mbar 4.02 m/s 282.06 Deg 5.99 µg/m3 0.63 µg/m3
2023-01-12 11:00 14.73 µg/m3 0.63 µg/m3 51.62 µg/m3 14 µg/m3 6.3 µg/m3 0.24 mg/m3 16.45 °C 78.01 % 1,019.30 mbar 3.18 m/s 287.98 Deg 5.32 µg/m3 0.7 µg/m3
2023-01-12 10:00 15.19 µg/m3 0.64 µg/m3 52.26 µg/m3 17.98 µg/m3 7.13 µg/m3 0.25 mg/m3 16.43 °C 76.59 % 1,019.28 mbar 2.99 m/s 293.29 Deg 5.94 µg/m3 0.92 µg/m3
2023-01-12 09:00 15.23 µg/m3 0.5 µg/m3 52.26 µg/m3 16.36 µg/m3 7.64 µg/m3 0.25 mg/m3 16.09 °C 78.05 % 1,019.07 mbar 2.83 m/s 289.54 Deg 6 µg/m3 0.73 µg/m3
2023-01-12 08:00 20.49 µg/m3 0.64 µg/m3 46.58 µg/m3 15.12 µg/m3 6.09 µg/m3 0.25 mg/m3 15.36 °C 79.5 % 1,019.18 mbar 2.22 m/s 293.01 Deg 6.58 µg/m3 0.79 µg/m3
2023-01-12 07:00 24.73 µg/m3 0.62 µg/m3 41.43 µg/m3 13.2 µg/m3 6.11 µg/m3 0.25 mg/m3 14.68 °C 80.58 % 1,019.19 mbar 1.43 m/s 300.64 Deg 8.18 µg/m3 0.79 µg/m3
2023-01-12 06:00 18.19 µg/m3 0.41 µg/m3 49.79 µg/m3 12.23 µg/m3 5.68 µg/m3 0.22 mg/m3 14.35 °C 79.53 % 1,019.25 mbar 1.53 m/s 272.28 Deg 3.33 µg/m3 0.58 µg/m3
2023-01-12 05:00 7.5 µg/m3 0.35 µg/m3 55.63 µg/m3 11.76 µg/m3 5.37 µg/m3 0.2 mg/m3 14.32 °C 77.56 % 1,019.49 mbar 1.61 m/s 279.47 Deg 0.07 µg/m3 0.42 µg/m3
2023-01-12 04:00 7.1 µg/m3 0.37 µg/m3 65.31 µg/m3 11 µg/m3 5.08 µg/m3 0.2 mg/m3 14.44 °C 74.59 % 1,019.92 mbar 2.08 m/s 287.83 Deg -0.37 µg/m3 0.5 µg/m3
2023-01-12 03:00 22 µg/m3 0.55 µg/m3 64.34 µg/m3 11.02 µg/m3 4.7 µg/m3 0.14 mg/m3 14.12 °C 71.41 % 1,020.36 mbar 1.92 m/s 292.33 Deg -0.25 µg/m3 0.47 µg/m3
2023-01-12 02:00 2.46 µg/m3 0.44 µg/m3 65.77 µg/m3 9.84 µg/m3 4.19 µg/m3 0.21 mg/m3 13.81 °C 66.16 % 1,020.39 mbar 2.07 m/s 290.73 Deg -0.3 µg/m3 0.5 µg/m3
2023-01-12 01:00 2.67 µg/m3 0.24 µg/m3 62.49 µg/m3 10.78 µg/m3 4.47 µg/m3 0.22 mg/m3 13.59 °C 66.12 % 1,020.55 mbar 2.19 m/s 277.16 Deg 0.15 µg/m3 0.56 µg/m3
2023-01-12 00:00 4.63 µg/m3 0.38 µg/m3 62.63 µg/m3 11.3 µg/m3 4.95 µg/m3 0.22 mg/m3 13.73 °C 68.99 % 1,020.78 mbar 2.57 m/s 265.48 Deg 0.71 µg/m3 0.52 µg/m3
2023-01-11 23:00 4.2 µg/m3 0.36 µg/m3 61.38 µg/m3 13.44 µg/m3 5.54 µg/m3 0.23 mg/m3 14.07 °C 68.92 % 1,020.81 mbar 2.17 m/s 284.44 Deg 0.26 µg/m3 0.52 µg/m3
2023-01-11 22:00 4.06 µg/m3 0.48 µg/m3 62.8 µg/m3 15.29 µg/m3 6.17 µg/m3 0.23 mg/m3 14.46 °C 68.75 % 1,020.61 mbar 2.82 m/s 312.07 Deg 0.34 µg/m3 0.68 µg/m3
2023-01-11 21:00 8.13 µg/m3 0.68 µg/m3 58.44 µg/m3 15.4 µg/m3 6.39 µg/m3 0.24 mg/m3 14.34 °C 68.24 % 1,020.62 mbar 1.93 m/s 273.6 Deg 0.86 µg/m3 0.81 µg/m3
2023-01-11 20:00 12.11 µg/m3 0.49 µg/m3 57.25 µg/m3 17.37 µg/m3 6.73 µg/m3 0.24 mg/m3 14.39 °C 67.5 % 1,020.66 mbar 2.26 m/s 261.83 Deg 2.44 µg/m3 0.84 µg/m3
2023-01-11 19:00 13.85 µg/m3 0.42 µg/m3 55.29 µg/m3 17 µg/m3 6.75 µg/m3 0.24 mg/m3 14.31 °C 66.1 % 1,020.41 mbar 2.28 m/s 275.83 Deg 2.72 µg/m3 0.79 µg/m3
2023-01-11 18:00 14.45 µg/m3 0.48 µg/m3 57.24 µg/m3 18.45 µg/m3 7.01 µg/m3 0.24 mg/m3 14.62 °C 64.27 % 1,020.08 mbar 2.83 m/s 306.93 Deg 5.33 µg/m3 0.89 µg/m3
2023-01-11 17:00 13.12 µg/m3 0.43 µg/m3 58.97 µg/m3 17.66 µg/m3 6.89 µg/m3 0.22 mg/m3 15.22 °C 61.06 % 1,019.97 mbar 2.88 m/s 301.35 Deg 3.76 µg/m3 0.87 µg/m3
2023-01-11 16:00 10.53 µg/m3 0.47 µg/m3 62.65 µg/m3 15.67 µg/m3 5.97 µg/m3 0.21 mg/m3 15.52 °C 56.94 % 1,019.84 mbar 3.61 m/s 317.28 Deg 4.08 µg/m3 0.7 µg/m3
2023-01-11 15:00 8.4 µg/m3 0.35 µg/m3 66.18 µg/m3 14.82 µg/m3 5.58 µg/m3 0.2 mg/m3 15.72 °C 54.62 % 1,019.72 mbar 4.73 m/s 336.33 Deg 3.61 µg/m3 0.7 µg/m3
2023-01-11 14:00 8.48 µg/m3 0.42 µg/m3 60.35 µg/m3 15.64 µg/m3 5.58 µg/m3 0.19 mg/m3 15.9 °C 55.02 % 1,019.88 mbar 4.28 m/s 332.11 Deg 3.77 µg/m3 0.76 µg/m3
2023-01-11 13:00 6.94 µg/m3 0.33 µg/m3 62.02 µg/m3 11.22 µg/m3 4.36 µg/m3 0.19 mg/m3 15.91 °C 50.7 % 1,020.31 mbar 5.37 m/s 341.86 Deg 3.43 µg/m3 0.63 µg/m3
2023-01-11 12:00 6.25 µg/m3 0.34 µg/m3 62.29 µg/m3 11.88 µg/m3 4.3 µg/m3 0.2 mg/m3 15.88 °C 48.53 % 1,020.62 mbar 5.06 m/s 347.34 Deg 2.7 µg/m3 0.76 µg/m3
2023-01-11 11:00 6.08 µg/m3 0.45 µg/m3 61.69 µg/m3 11.23 µg/m3 4.22 µg/m3 0.2 mg/m3 15.71 °C 50.75 % 1,020.97 mbar 4.77 m/s 341.47 Deg 3.06 µg/m3 0.77 µg/m3
2023-01-11 10:00 6.93 µg/m3 0.58 µg/m3 61.51 µg/m3 11.31 µg/m3 4.3 µg/m3 0.21 mg/m3 15.51 °C 51.64 % 1,020.51 mbar 4.37 m/s 344.09 Deg 3.05 µg/m3 0.6 µg/m3
2023-01-11 09:00 15.11 µg/m3 0.64 µg/m3 51.99 µg/m3 18.9 µg/m3 5.95 µg/m3 0.22 mg/m3 14.91 °C 55.02 % 1,020.03 mbar 3.32 m/s 326.16 Deg 6.03 µg/m3 1.1 µg/m3
2023-01-11 08:00 10.35 µg/m3 0.44 µg/m3 57.56 µg/m3 14.69 µg/m3 5.31 µg/m3 0.2 mg/m3 14.62 °C 55.56 % 1,019.76 mbar 3.57 m/s 349.26 Deg 3.98 µg/m3 0.76 µg/m3
2023-01-11 07:00 11.29 µg/m3 0.4 µg/m3 59.93 µg/m3 13.85 µg/m3 5.46 µg/m3 0.2 mg/m3 14.53 °C 56.58 % 1,019.51 mbar 3.44 m/s 345.83 Deg 4.74 µg/m3 0.56 µg/m3
2023-01-11 06:00 6.7 µg/m3 0.35 µg/m3 63.63 µg/m3 15.38 µg/m3 5.79 µg/m3 0.19 mg/m3 14.54 °C 56.4 % 1,019.09 mbar 3.54 m/s 336.97 Deg 1.67 µg/m3 0.52 µg/m3
2023-01-11 05:00 5.84 µg/m3 0.39 µg/m3 71.52 µg/m3 17.22 µg/m3 6.67 µg/m3 0.18 mg/m3 14.35 °C 58.65 % 1,018.82 mbar 2.75 m/s 314.75 Deg 0.1 µg/m3 0.52 µg/m3
2023-01-11 04:00 6.42 µg/m3 0.28 µg/m3 67.87 µg/m3 17.16 µg/m3 6.84 µg/m3 0.18 mg/m3 14.57 °C 56.94 % 1,019.07 mbar 3.43 m/s 337.74 Deg -0.19 µg/m3 0.52 µg/m3
2023-01-11 03:00 20.99 µg/m3 0.39 µg/m3 67.44 µg/m3 18.56 µg/m3 7.86 µg/m3 0.11 mg/m3 14.72 °C 57.3 % 1,019.15 mbar 4.08 m/s 344.27 Deg 0.01 µg/m3 0.52 µg/m3
2023-01-11 02:00 2.34 µg/m3 0.38 µg/m3 64.11 µg/m3 18.31 µg/m3 8.11 µg/m3 0.18 mg/m3 14.65 °C 58.49 % 1,019.06 mbar 3.8 m/s 327.06 Deg -0.07 µg/m3 0.56 µg/m3
2023-01-11 01:00 1.79 µg/m3 0.57 µg/m3 67.34 µg/m3 18.21 µg/m3 8.2 µg/m3 0.18 mg/m3 14.57 °C 59.46 % 1,019.24 mbar 3.56 m/s 318.18 Deg -0.09 µg/m3 0.52 µg/m3
2023-01-11 00:00 2.52 µg/m3 0.39 µg/m3 67.72 µg/m3 17.12 µg/m3 7.49 µg/m3 0.18 mg/m3 14.66 °C 57.76 % 1,019.42 mbar 4.18 m/s 334.01 Deg 0.35 µg/m3 0.52 µg/m3
2023-01-10 23:00 2.3 µg/m3 0.19 µg/m3 67.75 µg/m3 17.17 µg/m3 7.15 µg/m3 0.18 mg/m3 14.69 °C 56.17 % 1,019.51 mbar 3.89 m/s 333.7 Deg 0.06 µg/m3 1.18 µg/m3
2023-01-10 22:00 2.71 µg/m3 0.55 µg/m3 67.69 µg/m3 17.87 µg/m3 7.54 µg/m3 0.18 mg/m3 14.72 °C 56.99 % 1,019.12 mbar 4.4 m/s 347.71 Deg 0.51 µg/m3 0.56 µg/m3
2023-01-10 21:00 2.98 µg/m3 0.27 µg/m3 66.83 µg/m3 17.56 µg/m3 7.49 µg/m3 0.19 mg/m3 14.59 °C 57.32 % 1,018.66 mbar 4.34 m/s 306.16 Deg 0.59 µg/m3 0.63 µg/m3
2023-01-10 20:00 3.51 µg/m3 0.14 µg/m3 66.45 µg/m3 16.5 µg/m3 6.93 µg/m3 0.19 mg/m3 14.62 °C 52.92 % 1,018.31 mbar 4.61 m/s 290.17 Deg 0.96 µg/m3 0.65 µg/m3
2023-01-10 19:00 4.5 µg/m3 0.43 µg/m3 65.14 µg/m3 17.64 µg/m3 7.36 µg/m3 0.19 mg/m3 14.27 °C 56.2 % 1,017.69 mbar 4.45 m/s 297.03 Deg 1.19 µg/m3 0.63 µg/m3
2023-01-10 18:00 6.72 µg/m3 0.34 µg/m3 64.01 µg/m3 19.69 µg/m3 8.5 µg/m3 0.19 mg/m3 14.04 °C 56.26 % 1,017.26 mbar 4.68 m/s 313.19 Deg 2.28 µg/m3 0.63 µg/m3
2023-01-10 17:00 5.96 µg/m3 0.25 µg/m3 60.16 µg/m3 23.12 µg/m3 11 µg/m3 0.19 mg/m3 14.33 °C 64.84 % 1,016.74 mbar 5.34 m/s 299.35 Deg 2.4 µg/m3 0.63 µg/m3
2023-01-10 16:00 6.21 µg/m3 0.24 µg/m3 61.07 µg/m3 24.52 µg/m3 10.78 µg/m3 0.17 mg/m3 14.19 °C 65.61 % 1,016.46 mbar 5.58 m/s 339.26 Deg 2.54 µg/m3 0.6 µg/m3
2023-01-10 15:00 5.95 µg/m3 0.4 µg/m3 62.23 µg/m3 29.71 µg/m3 13.11 µg/m3 0.17 mg/m3 15.57 °C 57.74 % 1,016.24 mbar 6.8 m/s 302.85 Deg 2.8 µg/m3 0.6 µg/m3
2023-01-10 14:00 5.33 µg/m3 0.34 µg/m3 62.11 µg/m3 32.56 µg/m3 12.86 µg/m3 0.18 mg/m3 15.95 °C 53.82 % 1,016.31 mbar 7.71 m/s 293.96 Deg 2.96 µg/m3 0.56 µg/m3
2023-01-10 13:00 6.18 µg/m3 0.34 µg/m3 61 µg/m3 30.46 µg/m3 12.24 µg/m3 0.18 mg/m3 16.1 °C 52.79 % 1,016.58 mbar 7.98 m/s 286.3 Deg 3.68 µg/m3 0.58 µg/m3
2023-01-10 12:00 5.87 µg/m3 0.48 µg/m3 61.54 µg/m3 23.06 µg/m3 10.82 µg/m3 0.18 mg/m3 14.4 °C 67.53 % 1,017.27 mbar 7.13 m/s 295.23 Deg 2.73 µg/m3 0.56 µg/m3
2023-01-10 11:00 5.76 µg/m3 0.54 µg/m3 61.72 µg/m3 20.25 µg/m3 10.08 µg/m3 0.19 mg/m3 15.18 °C 58.53 % 1,017.81 mbar 6.44 m/s 304.53 Deg 2.62 µg/m3 0.6 µg/m3
2023-01-10 10:00 6.48 µg/m3 0.41 µg/m3 61.2 µg/m3 26.94 µg/m3 11.45 µg/m3 0.18 mg/m3 14.99 °C 60.52 % 1,017.49 mbar 7.45 m/s 301.1 Deg 3.03 µg/m3 0.56 µg/m3
2023-01-10 09:00 6.58 µg/m3 0.51 µg/m3 61.82 µg/m3 25.16 µg/m3 10.26 µg/m3 0.19 mg/m3 16.06 °C 54.31 % 1,017.14 mbar 7.4 m/s 291.44 Deg 3.62 µg/m3 0.56 µg/m3
2023-01-10 08:00 7.4 µg/m3 0.4 µg/m3 62.91 µg/m3 16.71 µg/m3 6.98 µg/m3 0.19 mg/m3 15.2 °C 64.04 % 1,017.08 mbar 7.54 m/s 279.34 Deg 3.08 µg/m3 0.76 µg/m3
2023-01-10 07:00 6.34 µg/m3 0.41 µg/m3 65.19 µg/m3 15.2 µg/m3 5.99 µg/m3 0.19 mg/m3 15.75 °C 58.63 % 1,017.12 mbar 7.34 m/s 288.33 Deg 2.63 µg/m3 0.61 µg/m3
2023-01-10 06:00 5.05 µg/m3 0.39 µg/m3 66.73 µg/m3 12.45 µg/m3 5.54 µg/m3 0.18 mg/m3 15.61 °C 63.54 % 1,016.88 mbar 6.58 m/s 284.98 Deg 1.48 µg/m3 0.5 µg/m3
2023-01-10 05:00 4.38 µg/m3 0.23 µg/m3 66.56 µg/m3 15.96 µg/m3 7.19 µg/m3 0.17 mg/m3 15.72 °C 61.96 % 1,016.77 mbar 5.4 m/s 297.92 Deg -0.12 µg/m3 0.44 µg/m3
2023-01-10 04:00 6.01 µg/m3 0.15 µg/m3 67.42 µg/m3 16.82 µg/m3 7.49 µg/m3 0.18 mg/m3 15.69 °C 61.73 % 1,017.05 mbar 5.07 m/s 295.07 Deg -0.11 µg/m3 0.47 µg/m3
2023-01-10 03:00 20.78 µg/m3 0.17 µg/m3 66.02 µg/m3 15.66 µg/m3 7.14 µg/m3 0.12 mg/m3 15.95 °C 62.23 % 1,017.36 mbar 5.38 m/s 292.6 Deg -0.23 µg/m3 0.42 µg/m3
2023-01-10 02:00 1.17 µg/m3 0.53 µg/m3 68.21 µg/m3 13.05 µg/m3 6.53 µg/m3 0.19 mg/m3 16.25 °C 70.87 % 1,016.91 mbar 5.55 m/s 287.19 Deg -0.14 µg/m3 0.42 µg/m3
2023-01-10 01:00 0.73 µg/m3 0.18 µg/m3 59.59 µg/m3 10.34 µg/m3 5.5 µg/m3 0.2 mg/m3 15.7 °C 84.4 % 1,017.07 mbar 5.93 m/s 269.98 Deg 0.01 µg/m3 0.42 µg/m3
2023-01-10 00:00 1.12 µg/m3 0.15 µg/m3 60.49 µg/m3 12.2 µg/m3 6.2 µg/m3 0.2 mg/m3 14.71 °C 88.41 % 1,016.95 mbar 5.84 m/s 263.23 Deg -0.23 µg/m3 0.42 µg/m3
2023-01-09 23:00 1.58 µg/m3 0.23 µg/m3 58.11 µg/m3 10.8 µg/m3 5.33 µg/m3 0.2 mg/m3 15.19 °C 87.7 % 1,017.27 mbar 4.22 m/s 289.78 Deg 0.15 µg/m3 0.49 µg/m3
2023-01-09 22:00 4.16 µg/m3 0.31 µg/m3 62.48 µg/m3 69.41 µg/m3 21.78 µg/m3 0.22 mg/m3 17.15 °C 83.76 % 1,016.68 mbar 5.24 m/s 277.96 Deg 0.1 µg/m3 0.7 µg/m3
2023-01-09 21:00 5.78 µg/m3 0.41 µg/m3 65.6 µg/m3 59.77 µg/m3 19.44 µg/m3 0.23 mg/m3 17.56 °C 79.6 % 1,016.27 mbar 5.2 m/s 253.89 Deg 0.57 µg/m3 0.82 µg/m3
2023-01-09 20:00 11.51 µg/m3 0.47 µg/m3 60.89 µg/m3 39.37 µg/m3 13.92 µg/m3 0.24 mg/m3 17.27 °C 78.89 % 1,015.90 mbar 4.06 m/s 247.6 Deg 1.79 µg/m3 0.98 µg/m3
2023-01-09 19:00 15.18 µg/m3 0.27 µg/m3 59.93 µg/m3 30.94 µg/m3 12.28 µg/m3 0.25 mg/m3 17.03 °C 78.76 % 1,015.72 mbar 4.17 m/s 246.49 Deg 2.48 µg/m3 2.07 µg/m3
2023-01-09 18:00 15.9 µg/m3 0.36 µg/m3 59.18 µg/m3 30.44 µg/m3 12.51 µg/m3 0.24 mg/m3 16.72 °C 79.85 % 1,015.86 mbar 4.61 m/s 258.65 Deg 2.9 µg/m3 0.94 µg/m3
2023-01-09 17:00 11.28 µg/m3 0.28 µg/m3 62.94 µg/m3 26.12 µg/m3 11.79 µg/m3 0.22 mg/m3 17.1 °C 76.1 % 1,015.78 mbar 6.12 m/s 258.16 Deg 2.2 µg/m3 0.73 µg/m3
2023-01-09 16:00 12.51 µg/m3 0.46 µg/m3 61.29 µg/m3 27.49 µg/m3 11.7 µg/m3 0.21 mg/m3 17.43 °C 73.54 % 1,015.93 mbar 6.73 m/s 257.94 Deg 3.41 µg/m3 0.68 µg/m3
2023-01-09 15:00 11.41 µg/m3 0.41 µg/m3 59.98 µg/m3 26.45 µg/m3 11.3 µg/m3 0.21 mg/m3 17.51 °C 69.38 % 1,016.11 mbar 7.63 m/s 259.26 Deg 3.47 µg/m3 0.73 µg/m3
2023-01-09 14:00 10.75 µg/m3 0.49 µg/m3 61.36 µg/m3 34.82 µg/m3 12.9 µg/m3 0.22 mg/m3 17.91 °C 66.63 % 1,016.51 mbar 8.77 m/s 257.09 Deg 2.92 µg/m3 0.63 µg/m3
2023-01-09 13:00 0 µg/m3 0.53 µg/m3 0 µg/m3 33.51 µg/m3 12.29 µg/m3 0 mg/m3 18.18 °C 65.91 % 1,017.00 mbar 7.46 m/s 254.24 Deg 0 µg/m3 0.6 µg/m3
2023-01-09 12:00 0 µg/m3 33.32 µg/m3 0 µg/m3 29.01 µg/m3 11.57 µg/m3 0 mg/m3 17.87 °C 66.51 % 1,018.24 mbar 6.3 m/s 252.57 Deg 0 µg/m3 0.97 µg/m3
2023-01-09 11:00 0 µg/m3 55.81 µg/m3 0 µg/m3 26.81 µg/m3 10.46 µg/m3 0 mg/m3 17.55 °C 65.29 % 1,019.12 mbar 6.14 m/s 253.16 Deg 0 µg/m3 0.82 µg/m3
2023-01-09 10:00 0 µg/m3 0.8 µg/m3 0 µg/m3 23.79 µg/m3 10.21 µg/m3 0 mg/m3 17.1 °C 67.63 % 1,019.31 mbar 5.36 m/s 252.72 Deg 0 µg/m3 0.86 µg/m3
2023-01-09 09:00 31.71 µg/m3 0.88 µg/m3 37.34 µg/m3 23.84 µg/m3 10.28 µg/m3 0.34 mg/m3 16.1 °C 70.64 % 1,019.03 mbar 3.87 m/s 241.48 Deg 18.54 µg/m3 1.96 µg/m3
2023-01-09 08:00 37.38 µg/m3 0.83 µg/m3 32 µg/m3 26.85 µg/m3 10.95 µg/m3 0.34 mg/m3 15.54 °C 72.35 % 1,019.56 mbar 3.35 m/s 230.7 Deg 22.39 µg/m3 1.57 µg/m3
2023-01-09 07:00 48.03 µg/m3 0.9 µg/m3 24.65 µg/m3 30.16 µg/m3 11.36 µg/m3 0.33 mg/m3 15.2 °C 71.67 % 1,019.64 mbar 2.86 m/s 231.91 Deg 33.72 µg/m3 1.6 µg/m3
2023-01-09 06:00 26.57 µg/m3 0.6 µg/m3 42.66 µg/m3 41.2 µg/m3 12.85 µg/m3 0.27 mg/m3 15.21 °C 73.73 % 1,019.67 mbar 2.86 m/s 228 Deg 11.14 µg/m3 0.84 µg/m3
2023-01-09 05:00 10.95 µg/m3 0.56 µg/m3 59.12 µg/m3 28.51 µg/m3 9.5 µg/m3 0.25 mg/m3 14.85 °C 78.47 % 1,019.84 mbar 2.61 m/s 229.01 Deg 1.19 µg/m3 0.65 µg/m3
2023-01-09 04:00 15.58 µg/m3 0.31 µg/m3 51.8 µg/m3 8.42 µg/m3 4.7 µg/m3 0.26 mg/m3 14.05 °C 81.06 % 1,020.15 mbar 1.42 m/s 215.16 Deg 2.45 µg/m3 0.56 µg/m3
2023-01-09 03:00 24.97 µg/m3 0.41 µg/m3 58.03 µg/m3 7.7 µg/m3 4.33 µg/m3 0.18 mg/m3 14.67 °C 77.32 % 1,020.74 mbar 2.06 m/s 214.37 Deg 0.55 µg/m3 0.56 µg/m3
2023-01-09 02:00 6.92 µg/m3 0.31 µg/m3 57.55 µg/m3 6.47 µg/m3 3.83 µg/m3 0.31 mg/m3 14.64 °C 77.37 % 1,021.58 mbar 2.03 m/s 238.37 Deg 1.83 µg/m3 0.52 µg/m3
2023-01-09 01:00 6.7 µg/m3 0.55 µg/m3 60.4 µg/m3 6.27 µg/m3 3.7 µg/m3 0.35 mg/m3 14.73 °C 77.38 % 1,022.08 mbar 2.09 m/s 231.96 Deg 1.39 µg/m3 0.52 µg/m3
2023-01-09 00:00 7.3 µg/m3 0.69 µg/m3 59.01 µg/m3 5.89 µg/m3 3.43 µg/m3 0.41 mg/m3 14.57 °C 77.47 % 1,022.41 mbar 2.18 m/s 231.98 Deg 1.67 µg/m3 0.76 µg/m3
2023-01-08 23:00 20.2 µg/m3 0.84 µg/m3 44.87 µg/m3 5.73 µg/m3 3.04 µg/m3 0.48 mg/m3 14.4 °C 80.2 % 1,022.50 mbar 1.43 m/s 222.68 Deg 6.41 µg/m3 1.36 µg/m3
2023-01-08 22:00 42.65 µg/m3 1.05 µg/m3 20.84 µg/m3 7.57 µg/m3 3.54 µg/m3 0.53 mg/m3 14.1 °C 81.44 % 1,022.53 mbar 0.96 m/s 212.77 Deg 20.52 µg/m3 2.2 µg/m3
2023-01-08 21:00 30.01 µg/m3 0.85 µg/m3 34.75 µg/m3 5.87 µg/m3 3.16 µg/m3 0.47 mg/m3 14.21 °C 81.31 % 1,022.57 mbar 1.08 m/s 221.26 Deg 12.95 µg/m3 1.52 µg/m3
2023-01-08 20:00 35.65 µg/m3 0.74 µg/m3 32.53 µg/m3 6.6 µg/m3 3.48 µg/m3 0.41 mg/m3 14.24 °C 79.82 % 1,022.40 mbar 1.15 m/s 218.18 Deg 22.45 µg/m3 1.15 µg/m3
2023-01-08 19:00 26.86 µg/m3 0.64 µg/m3 41.87 µg/m3 8.13 µg/m3 3.97 µg/m3 0.34 mg/m3 14.98 °C 78.08 % 1,022.03 mbar 1.37 m/s 262.23 Deg 7.43 µg/m3 1.23 µg/m3
2023-01-08 18:00 32.1 µg/m3 0.63 µg/m3 35.79 µg/m3 10.37 µg/m3 4.08 µg/m3 0.33 mg/m3 15.29 °C 79.01 % 1,021.80 mbar 1.48 m/s 272.07 Deg 10.57 µg/m3 1.89 µg/m3
2023-01-08 17:00 17.13 µg/m3 0.57 µg/m3 51.7 µg/m3 6.53 µg/m3 3.18 µg/m3 0.29 mg/m3 16.14 °C 76.31 % 1,021.76 mbar 2.01 m/s 285.94 Deg 6.05 µg/m3 1.6 µg/m3
2023-01-08 16:00 13.22 µg/m3 0.72 µg/m3 55.56 µg/m3 5.88 µg/m3 2.92 µg/m3 0.29 mg/m3 16.96 °C 72.69 % 1,021.79 mbar 2.61 m/s 278.68 Deg 4.46 µg/m3 1.31 µg/m3
2023-01-08 15:00 8.78 µg/m3 0.67 µg/m3 56.65 µg/m3 6.1 µg/m3 3.01 µg/m3 0.3 mg/m3 17.27 °C 72.84 % 1,021.73 mbar 3.57 m/s 273.13 Deg 3.1 µg/m3 0.79 µg/m3
2023-01-08 14:00 9.26 µg/m3 0.74 µg/m3 53.72 µg/m3 6.25 µg/m3 3.41 µg/m3 0.33 mg/m3 17.35 °C 72.69 % 1,021.89 mbar 3.47 m/s 271.26 Deg 3.57 µg/m3 1.19 µg/m3
2023-01-08 13:00 13.82 µg/m3 0.77 µg/m3 48.71 µg/m3 9.18 µg/m3 5.29 µg/m3 0.39 mg/m3 17.41 °C 72.2 % 1,022.40 mbar 2.68 m/s 280.2 Deg 6.53 µg/m3 1.63 µg/m3
2023-01-08 12:00 9.94 µg/m3 0.89 µg/m3 52.69 µg/m3 8.73 µg/m3 5.19 µg/m3 0.44 mg/m3 16.87 °C 71.14 % 1,023.06 mbar 2.2 m/s 101.37 Deg 4.19 µg/m3 1.97 µg/m3
2023-01-08 11:00 10 µg/m3 1.29 µg/m3 48.32 µg/m3 8.94 µg/m3 5.88 µg/m3 0.5 mg/m3 16.58 °C 73.56 % 1,023.28 mbar 2.3 m/s 25.96 Deg 4 µg/m3 2.89 µg/m3
2023-01-08 10:00 23.49 µg/m3 1.81 µg/m3 32.8 µg/m3 11.41 µg/m3 7.81 µg/m3 0.56 mg/m3 16.24 °C 79.83 % 1,023.12 mbar 1.59 m/s 311.13 Deg 18.34 µg/m3 5.67 µg/m3
2023-01-08 09:00 27.63 µg/m3 1.51 µg/m3 27.73 µg/m3 9.4 µg/m3 6 µg/m3 0.54 mg/m3 14.93 °C 82.29 % 1,022.70 mbar 1.06 m/s 220.94 Deg 21.48 µg/m3 3.88 µg/m3
2023-01-08 08:00 27.36 µg/m3 1.05 µg/m3 23.9 µg/m3 10.55 µg/m3 6.32 µg/m3 0.41 mg/m3 13.79 °C 84.3 % 1,022.52 mbar 1.07 m/s 217.73 Deg 21.11 µg/m3 2.15 µg/m3
2023-01-08 07:00 21.73 µg/m3 0.59 µg/m3 32.18 µg/m3 7.71 µg/m3 4.82 µg/m3 0.34 mg/m3 14.01 °C 83.8 % 1,022.22 mbar 1.09 m/s 224.13 Deg 11 µg/m3 0.79 µg/m3
2023-01-08 06:00 17.89 µg/m3 0.65 µg/m3 32.65 µg/m3 6.63 µg/m3 4.15 µg/m3 0.31 mg/m3 13.57 °C 84.87 % 1,021.82 mbar 0.82 m/s 219.69 Deg 7.01 µg/m3 0.65 µg/m3
2023-01-08 05:00 10.17 µg/m3 0.44 µg/m3 44.59 µg/m3 6.11 µg/m3 3.96 µg/m3 0.31 mg/m3 13.64 °C 83.79 % 1,021.80 mbar 1.14 m/s 219.78 Deg 3.04 µg/m3 0.42 µg/m3
2023-01-08 04:00 15.01 µg/m3 0.54 µg/m3 37 µg/m3 7.41 µg/m3 5.01 µg/m3 0.34 mg/m3 13.45 °C 83.08 % 1,021.97 mbar 1.16 m/s 223.26 Deg 5.77 µg/m3 0.65 µg/m3
2023-01-08 03:00 34.19 µg/m3 0.95 µg/m3 20.19 µg/m3 12.41 µg/m3 8.71 µg/m3 0.26 mg/m3 13.04 °C 88.85 % 1,022.07 mbar 0.95 m/s 222.77 Deg 11.36 µg/m3 0.94 µg/m3
2023-01-08 02:00 20.83 µg/m3 0.77 µg/m3 24.15 µg/m3 14.94 µg/m3 11.11 µg/m3 0.42 mg/m3 12.99 °C 90.5 % 1,022.17 mbar 1.14 m/s 235.13 Deg 16.72 µg/m3 1.73 µg/m3
2023-01-08 01:00 33.31 µg/m3 1.46 µg/m3 9.61 µg/m3 16.61 µg/m3 11.61 µg/m3 0.52 mg/m3 13.3 °C 88.25 % 1,022.57 mbar 1.13 m/s 223.96 Deg 26.14 µg/m3 3.55 µg/m3
2023-01-08 00:00 34.51 µg/m3 1.46 µg/m3 5.51 µg/m3 20.38 µg/m3 13.39 µg/m3 0.58 mg/m3 13.22 °C 88.6 % 1,022.88 mbar 0.88 m/s 218.3 Deg 42.82 µg/m3 1.86 µg/m3
2023-01-07 23:00 39.93 µg/m3 1.4 µg/m3 11.48 µg/m3 21.16 µg/m3 16.03 µg/m3 0.63 mg/m3 13.66 °C 86.95 % 1,023.02 mbar 1.06 m/s 215.8 Deg 37.38 µg/m3 3.23 µg/m3
2023-01-07 22:00 34.97 µg/m3 1.73 µg/m3 9.06 µg/m3 19.52 µg/m3 13.79 µg/m3 0.61 mg/m3 12.52 °C 90.36 % 1,022.96 mbar 1.09 m/s 237.11 Deg 39.17 µg/m3 2.94 µg/m3
2023-01-07 21:00 42.66 µg/m3 2.13 µg/m3 3.81 µg/m3 24.31 µg/m3 15.14 µg/m3 0.67 mg/m3 12.28 °C 90.16 % 1,022.84 mbar 0.65 m/s 231.39 Deg 55.49 µg/m3 3.73 µg/m3
2023-01-07 20:00 46.86 µg/m3 1.86 µg/m3 4.37 µg/m3 27.64 µg/m3 14.97 µg/m3 0.68 mg/m3 13.21 °C 86.22 % 1,022.66 mbar 0.74 m/s 223.64 Deg 57.15 µg/m3 3.67 µg/m3
2023-01-07 19:00 56.93 µg/m3 2.11 µg/m3 4.38 µg/m3 26.84 µg/m3 14.39 µg/m3 0.66 mg/m3 13.46 °C 84.56 % 1,022.39 mbar 0.76 m/s 237.25 Deg 74.78 µg/m3 4.38 µg/m3
2023-01-07 18:00 69.9 µg/m3 2.07 µg/m3 6.94 µg/m3 34.4 µg/m3 16.01 µg/m3 0.72 mg/m3 15.14 °C 79.05 % 1,021.95 mbar 0.35 m/s 173.92 Deg 82.25 µg/m3 3.94 µg/m3
2023-01-07 17:00 23.87 µg/m3 0.97 µg/m3 49.64 µg/m3 16.18 µg/m3 9.23 µg/m3 0.34 mg/m3 16.39 °C 73.93 % 1,021.66 mbar 1.51 m/s 40.29 Deg 11.12 µg/m3 1.05 µg/m3
2023-01-07 16:00 12.33 µg/m3 0.98 µg/m3 58.78 µg/m3 14.08 µg/m3 8.43 µg/m3 0.31 mg/m3 16.72 °C 70.28 % 1,021.54 mbar 1.94 m/s 53.43 Deg 3.99 µg/m3 0.87 µg/m3
2023-01-07 15:00 15.15 µg/m3 0.99 µg/m3 55.61 µg/m3 16.27 µg/m3 9.37 µg/m3 0.35 mg/m3 16.71 °C 73.29 % 1,021.48 mbar 1.78 m/s 63.1 Deg 5.44 µg/m3 1.65 µg/m3
2023-01-07 14:00 20.42 µg/m3 0.99 µg/m3 50.91 µg/m3 18.37 µg/m3 9.95 µg/m3 0.37 mg/m3 16.43 °C 74.35 % 1,021.64 mbar 1.83 m/s 62.46 Deg 6.86 µg/m3 2.07 µg/m3
2023-01-07 13:00 18.25 µg/m3 1.08 µg/m3 50.85 µg/m3 19.67 µg/m3 10.06 µg/m3 0.35 mg/m3 16.46 °C 73.81 % 1,022.17 mbar 2.15 m/s 49.77 Deg 6.53 µg/m3 1.5 µg/m3
2023-01-07 12:00 23.68 µg/m3 1.8 µg/m3 43.55 µg/m3 19.9 µg/m3 10.49 µg/m3 0.38 mg/m3 16.46 °C 75.61 % 1,022.80 mbar 2.26 m/s 67.15 Deg 14.83 µg/m3 1.45 µg/m3
2023-01-07 11:00 19.15 µg/m3 2.11 µg/m3 43.21 µg/m3 18.14 µg/m3 10.32 µg/m3 0.37 mg/m3 16.01 °C 78.51 % 1,023.31 mbar 1.99 m/s 54.14 Deg 6.4 µg/m3 1.5 µg/m3
2023-01-07 10:00 13.66 µg/m3 2.43 µg/m3 45.59 µg/m3 14.42 µg/m3 9.4 µg/m3 0.39 mg/m3 15.79 °C 79.12 % 1,023.08 mbar 2.31 m/s 66.38 Deg 4.47 µg/m3 1.19 µg/m3
2023-01-07 09:00 39.61 µg/m3 1.64 µg/m3 22.92 µg/m3 23.84 µg/m3 13.07 µg/m3 0.39 mg/m3 14.94 °C 81.84 % 1,022.75 mbar 1.6 m/s 130.46 Deg 34.37 µg/m3 1.81 µg/m3
2023-01-07 08:00 43.14 µg/m3 1.19 µg/m3 22.08 µg/m3 18.69 µg/m3 12.16 µg/m3 0.36 mg/m3 14.7 °C 82.82 % 1,022.52 mbar 1.31 m/s 72.38 Deg 25.05 µg/m3 1.66 µg/m3
2023-01-07 07:00 40.21 µg/m3 1.13 µg/m3 12.37 µg/m3 19.54 µg/m3 14.29 µg/m3 0.36 mg/m3 12.63 °C 91.85 % 1,022.48 mbar 0.94 m/s 242.77 Deg 55.03 µg/m3 1.29 µg/m3
2023-01-07 06:00 33.16 µg/m3 0.96 µg/m3 18.76 µg/m3 16.51 µg/m3 12.78 µg/m3 0.3 mg/m3 12.62 °C 90.7 % 1,022.31 mbar 0.87 m/s 252.95 Deg 30.6 µg/m3 0.81 µg/m3
2023-01-07 05:00 14.3 µg/m3 0.6 µg/m3 39.78 µg/m3 14.05 µg/m3 11.66 µg/m3 0.27 mg/m3 13.84 °C 85.57 % 1,022.14 mbar 0.63 m/s 261.12 Deg 1.83 µg/m3 0.73 µg/m3
2023-01-07 04:00 13.15 µg/m3 0.77 µg/m3 50.43 µg/m3 14.29 µg/m3 11.57 µg/m3 0.29 mg/m3 14.8 °C 83.66 % 1,022.47 mbar 1.14 m/s 104.52 Deg 0.87 µg/m3 0.82 µg/m3
2023-01-07 03:00 32.45 µg/m3 0.68 µg/m3 33.19 µg/m3 14.64 µg/m3 11.45 µg/m3 0.22 mg/m3 14.19 °C 85.77 % 1,022.65 mbar 0.73 m/s 230.68 Deg 4.01 µg/m3 0.92 µg/m3
2023-01-07 02:00 18.28 µg/m3 0.8 µg/m3 24.08 µg/m3 13.78 µg/m3 10.97 µg/m3 0.42 mg/m3 13.02 °C 90 % 1,022.71 mbar 0.9 m/s 215.33 Deg 10.21 µg/m3 1.24 µg/m3
2023-01-07 01:00 28.01 µg/m3 1.32 µg/m3 11 µg/m3 14.75 µg/m3 10.82 µg/m3 0.48 mg/m3 12.07 °C 92.12 % 1,022.95 mbar 0.55 m/s 262.71 Deg 25.31 µg/m3 1.94 µg/m3
2023-01-07 00:00 30.62 µg/m3 1.56 µg/m3 6.66 µg/m3 16.27 µg/m3 10.76 µg/m3 0.52 mg/m3 11.88 °C 92.84 % 1,023.33 mbar 0.68 m/s 239.55 Deg 35.52 µg/m3 2.5 µg/m3
2023-01-06 23:00 31.08 µg/m3 1.55 µg/m3 5.03 µg/m3 16.29 µg/m3 10.6 µg/m3 0.61 mg/m3 12.07 °C 90.23 % 1,023.53 mbar 0.77 m/s 228.12 Deg 45.79 µg/m3 1.89 µg/m3
2023-01-06 22:00 32.84 µg/m3 1.2 µg/m3 9.66 µg/m3 16.6 µg/m3 10.95 µg/m3 0.56 mg/m3 12.3 °C 89.83 % 1,023.39 mbar 0.58 m/s 222.54 Deg 31.5 µg/m3 2.94 µg/m3
2023-01-06 21:00 38.04 µg/m3 1.68 µg/m3 4.8 µg/m3 22.8 µg/m3 13.14 µg/m3 0.59 mg/m3 12.01 °C 90.76 % 1,023.39 mbar 0.66 m/s 237.04 Deg 38.98 µg/m3 2.57 µg/m3
2023-01-06 20:00 44.04 µg/m3 1.57 µg/m3 11.05 µg/m3 25.18 µg/m3 13.41 µg/m3 0.61 mg/m3 12.96 °C 88.6 % 1,023.21 mbar 0.87 m/s 235.75 Deg 41.53 µg/m3 3.01 µg/m3
2023-01-06 19:00 51.37 µg/m3 1.64 µg/m3 8.57 µg/m3 38.57 µg/m3 18.65 µg/m3 0.61 mg/m3 13.57 °C 87.58 % 1,022.85 mbar 0.71 m/s 240.12 Deg 55.32 µg/m3 3.49 µg/m3
2023-01-06 18:00 71.13 µg/m3 1.85 µg/m3 1.87 µg/m3 43.45 µg/m3 19.01 µg/m3 0.58 mg/m3 15.01 °C 83.36 % 1,022.48 mbar 0.06 m/s 180.38 Deg 103.62 µg/m3 2.5 µg/m3
2023-01-06 17:00 30.92 µg/m3 1.19 µg/m3 41.55 µg/m3 22.18 µg/m3 11.98 µg/m3 0.35 mg/m3 16.27 °C 79.33 % 1,022.32 mbar 1.51 m/s 114.08 Deg 17.53 µg/m3 1.5 µg/m3
2023-01-06 16:00 25.8 µg/m3 0.78 µg/m3 49.59 µg/m3 20.44 µg/m3 10.91 µg/m3 0.33 mg/m3 16.85 °C 72.06 % 1,022.27 mbar 2.16 m/s 57.52 Deg 12.4 µg/m3 1.19 µg/m3
2023-01-06 15:00 25 µg/m3 0.97 µg/m3 48.26 µg/m3 16.08 µg/m3 10.05 µg/m3 0.35 mg/m3 16.9 °C 69.53 % 1,022.13 mbar 2.57 m/s 58.74 Deg 11.65 µg/m3 1.26 µg/m3
2023-01-06 14:00 28.5 µg/m3 0.9 µg/m3 44.12 µg/m3 19.19 µg/m3 10.11 µg/m3 0.37 mg/m3 16.84 °C 69.85 % 1,022.25 mbar 2.29 m/s 58.38 Deg 12.53 µg/m3 1.23 µg/m3
2023-01-06 13:00 20.91 µg/m3 0.88 µg/m3 44.32 µg/m3 30.89 µg/m3 11.56 µg/m3 0.42 mg/m3 16.84 °C 70.48 % 1,022.66 mbar 2.16 m/s 64.65 Deg 11.28 µg/m3 1.21 µg/m3
2023-01-06 12:00 23.13 µg/m3 1.03 µg/m3 40.34 µg/m3 22.68 µg/m3 10.99 µg/m3 0.51 mg/m3 16.84 °C 71.23 % 1,023.40 mbar 1.26 m/s 137.7 Deg 11.89 µg/m3 1.4 µg/m3
2023-01-06 11:00 21.88 µg/m3 1.16 µg/m3 36.37 µg/m3 18.92 µg/m3 10.35 µg/m3 0.59 mg/m3 16.77 °C 74.98 % 1,023.90 mbar 0.81 m/s 203.12 Deg 11.49 µg/m3 1.31 µg/m3
2023-01-06 10:00 58.45 µg/m3 2.82 µg/m3 11.17 µg/m3 42.14 µg/m3 18.38 µg/m3 0.78 mg/m3 16 °C 79.29 % 1,023.82 mbar 0.42 m/s 238.12 Deg 157.52 µg/m3 4.41 µg/m3
2023-01-06 09:00 55.97 µg/m3 3.33 µg/m3 1.48 µg/m3 30.26 µg/m3 14.95 µg/m3 0.82 mg/m3 13.09 °C 89.49 % 1,023.40 mbar 0.19 m/s 224.3 Deg 207.9 µg/m3 3.86 µg/m3
2023-01-06 08:00 48.42 µg/m3 2.94 µg/m3 1.88 µg/m3 29.37 µg/m3 14.5 µg/m3 0.7 mg/m3 11.48 °C 94.04 % 1,023.06 mbar 0.18 m/s 213.45 Deg 192.4 µg/m3 4.43 µg/m3
2023-01-06 07:00 47.75 µg/m3 2.84 µg/m3 2.21 µg/m3 21.33 µg/m3 13.07 µg/m3 0.59 mg/m3 11.33 °C 95.34 % 1,022.80 mbar 0.18 m/s 214.89 Deg 194.74 µg/m3 4.67 µg/m3
2023-01-06 06:00 36.81 µg/m3 1.27 µg/m3 7.14 µg/m3 15.03 µg/m3 9.69 µg/m3 0.33 mg/m3 10.96 °C 94.32 % 1,022.60 mbar 0.81 m/s 237.15 Deg 66.98 µg/m3 1.15 µg/m3
2023-01-06 05:00 14.8 µg/m3 0.64 µg/m3 19.58 µg/m3 10.87 µg/m3 7.65 µg/m3 0.26 mg/m3 11.07 °C 90.31 % 1,022.42 mbar 0.84 m/s 240.12 Deg 6.45 µg/m3 0.92 µg/m3
2023-01-06 04:00 17.73 µg/m3 0.57 µg/m3 20.31 µg/m3 13.75 µg/m3 8.73 µg/m3 0.27 mg/m3 12.06 °C 85.75 % 1,022.77 mbar 0.85 m/s 229.75 Deg 13.29 µg/m3 0.82 µg/m3
2023-01-06 03:00 27.89 µg/m3 0.48 µg/m3 25.16 µg/m3 12.64 µg/m3 9.4 µg/m3 0.19 mg/m3 11.4 °C 90.35 % 1,023.00 mbar 1.14 m/s 239.64 Deg 2.98 µg/m3 0.73 µg/m3
2023-01-06 02:00 17.91 µg/m3 0.63 µg/m3 23.05 µg/m3 14.22 µg/m3 10.38 µg/m3 0.29 mg/m3 11.63 °C 89.41 % 1,023.15 mbar 1.02 m/s 232.79 Deg 9.91 µg/m3 0.92 µg/m3
2023-01-06 01:00 19.37 µg/m3 0.74 µg/m3 19.41 µg/m3 15.23 µg/m3 10.82 µg/m3 0.35 mg/m3 12.91 °C 86.1 % 1,023.41 mbar 0.74 m/s 209.07 Deg 8.41 µg/m3 1.19 µg/m3
2023-01-06 00:00 24.28 µg/m3 0.88 µg/m3 18.86 µg/m3 15.97 µg/m3 10.47 µg/m3 0.36 mg/m3 13.2 °C 85.13 % 1,023.79 mbar 0.81 m/s 202.09 Deg 10.86 µg/m3 1.28 µg/m3
2023-01-05 23:00 26.51 µg/m3 1.22 µg/m3 18.98 µg/m3 13.54 µg/m3 9.26 µg/m3 0.41 mg/m3 12.63 °C 84.11 % 1,023.92 mbar 0.97 m/s 229.01 Deg 13.54 µg/m3 1.84 µg/m3
2023-01-05 22:00 35.75 µg/m3 1.23 µg/m3 16.21 µg/m3 17.14 µg/m3 9.78 µg/m3 0.48 mg/m3 12.58 °C 84.13 % 1,023.87 mbar 0.86 m/s 225.42 Deg 19.73 µg/m3 5.83 µg/m3
2023-01-05 21:00 39.23 µg/m3 0.95 µg/m3 14.11 µg/m3 17.46 µg/m3 10.24 µg/m3 0.45 mg/m3 12.88 °C 83.49 % 1,023.68 mbar 0.88 m/s 206.16 Deg 26.14 µg/m3 2.07 µg/m3
2023-01-05 20:00 49.9 µg/m3 1.25 µg/m3 15.63 µg/m3 18.49 µg/m3 10.18 µg/m3 0.48 mg/m3 13.71 °C 80.81 % 1,023.60 mbar 0.79 m/s 204.2 Deg 28.71 µg/m3 2.18 µg/m3
2023-01-05 19:00 55.45 µg/m3 1.15 µg/m3 20.73 µg/m3 20.93 µg/m3 12.14 µg/m3 0.44 mg/m3 14.11 °C 77.36 % 1,023.43 mbar 0.82 m/s 205.68 Deg 35.38 µg/m3 2.29 µg/m3
2023-01-05 18:00 48.77 µg/m3 0.95 µg/m3 28.77 µg/m3 20.67 µg/m3 11.2 µg/m3 0.39 mg/m3 14.55 °C 75.76 % 1,023.24 mbar 1.08 m/s 213.43 Deg 29.99 µg/m3 1.55 µg/m3
2023-01-05 17:00 33.83 µg/m3 0.83 µg/m3 42.56 µg/m3 17.77 µg/m3 8.44 µg/m3 0.27 mg/m3 15.95 °C 71.28 % 1,023.23 mbar 1.38 m/s 261.66 Deg 11.92 µg/m3 1.21 µg/m3
2023-01-05 16:00 20.76 µg/m3 0.65 µg/m3 56.88 µg/m3 14.42 µg/m3 7.65 µg/m3 0.25 mg/m3 16.71 °C 66.87 % 1,023.29 mbar 2.38 m/s 272.32 Deg 6.59 µg/m3 0.87 µg/m3
2023-01-05 15:00 17.27 µg/m3 0.61 µg/m3 59.6 µg/m3 13.19 µg/m3 7.63 µg/m3 0.26 mg/m3 16.91 °C 65.47 % 1,023.28 mbar 2.68 m/s 266.18 Deg 6.34 µg/m3 1.1 µg/m3
2023-01-05 14:00 12.81 µg/m3 0.65 µg/m3 63 µg/m3 14.12 µg/m3 7.88 µg/m3 0.29 mg/m3 17.12 °C 67.31 % 1,023.49 mbar 2.91 m/s 271.73 Deg 5.34 µg/m3 0.81 µg/m3
2023-01-05 13:00 16.44 µg/m3 0.52 µg/m3 59.55 µg/m3 13.84 µg/m3 7.79 µg/m3 0.35 mg/m3 17.06 °C 67.26 % 1,024.11 mbar 2.68 m/s 277.05 Deg 7.27 µg/m3 0.94 µg/m3
2023-01-05 12:00 14.99 µg/m3 0.64 µg/m3 56.52 µg/m3 16.26 µg/m3 8 µg/m3 0.41 mg/m3 16.95 °C 65.94 % 1,024.84 mbar 2.47 m/s 283.7 Deg 8.38 µg/m3 1.39 µg/m3
2023-01-05 11:00 20.74 µg/m3 0.76 µg/m3 47.87 µg/m3 15.36 µg/m3 7.73 µg/m3 0.49 mg/m3 16.65 °C 67.13 % 1,025.32 mbar 1.74 m/s 294.69 Deg 11.87 µg/m3 0.87 µg/m3
2023-01-05 10:00 50.08 µg/m3 1.67 µg/m3 25.61 µg/m3 28.69 µg/m3 12.27 µg/m3 0.63 mg/m3 16.12 °C 73.3 % 1,025.40 mbar 0.88 m/s 254.3 Deg 66.02 µg/m3 2.7 µg/m3
2023-01-05 09:00 64.74 µg/m3 3.22 µg/m3 2.87 µg/m3 37.92 µg/m3 15.16 µg/m3 0.72 mg/m3 14.25 °C 80.2 % 1,025.30 mbar 0.62 m/s 198.78 Deg 221.51 µg/m3 5.12 µg/m3
2023-01-05 08:00 55.37 µg/m3 2.03 µg/m3 6.19 µg/m3 27.76 µg/m3 13.74 µg/m3 0.62 mg/m3 13.24 °C 84.84 % 1,025.35 mbar 0.78 m/s 214.52 Deg 112.75 µg/m3 4.2 µg/m3
2023-01-05 07:00 56.46 µg/m3 1.83 µg/m3 10.05 µg/m3 21.65 µg/m3 12.06 µg/m3 0.5 mg/m3 13.72 °C 84.36 % 1,025.18 mbar 1.05 m/s 224.54 Deg 106.66 µg/m3 2.8 µg/m3
2023-01-05 06:00 43.52 µg/m3 1.05 µg/m3 6.33 µg/m3 17.18 µg/m3 9.95 µg/m3 0.35 mg/m3 13.25 °C 87.23 % 1,024.78 mbar 0.69 m/s 206.01 Deg 51.68 µg/m3 1.47 µg/m3
2023-01-05 05:00 23.1 µg/m3 0.67 µg/m3 25.63 µg/m3 15.33 µg/m3 9.37 µg/m3 0.28 mg/m3 13.97 °C 85.74 % 1,024.93 mbar 0.73 m/s 200.47 Deg 19.01 µg/m3 0.79 µg/m3
2023-01-05 04:00 20.32 µg/m3 0.59 µg/m3 51.72 µg/m3 16.91 µg/m3 10.84 µg/m3 0.28 mg/m3 14.41 °C 85.22 % 1,025.33 mbar 0.79 m/s 232.31 Deg 9.54 µg/m3 0.73 µg/m3
2023-01-05 03:00 27.7 µg/m3 0.71 µg/m3 44.24 µg/m3 16.58 µg/m3 11.25 µg/m3 0.19 mg/m3 13.91 °C 89.27 % 1,025.71 mbar 1.18 m/s 219.23 Deg 1.45 µg/m3 0.81 µg/m3
2023-01-05 02:00 9.74 µg/m3 0.58 µg/m3 24.12 µg/m3 15.93 µg/m3 10.89 µg/m3 0.32 mg/m3 13.03 °C 93.35 % 1,025.90 mbar 1 m/s 231.47 Deg 3.35 µg/m3 1.39 µg/m3
2023-01-05 01:00 14.58 µg/m3 0.78 µg/m3 21.2 µg/m3 15.77 µg/m3 10.8 µg/m3 0.37 mg/m3 12.84 °C 94.15 % 1,026.16 mbar 0.71 m/s 238.26 Deg 6.37 µg/m3 1.34 µg/m3
2023-01-05 00:00 24.04 µg/m3 1.08 µg/m3 11.31 µg/m3 15.72 µg/m3 10.64 µg/m3 0.49 mg/m3 12.64 °C 94.1 % 1,026.58 mbar 0.61 m/s 237.42 Deg 19.7 µg/m3 2.52 µg/m3
2023-01-04 23:00 29.68 µg/m3 1.18 µg/m3 9.94 µg/m3 19.31 µg/m3 11.85 µg/m3 0.45 mg/m3 12.69 °C 94.71 % 1,026.87 mbar 0.77 m/s 236.71 Deg 27.05 µg/m3 1.73 µg/m3
2023-01-04 22:00 32.63 µg/m3 1.04 µg/m3 7.36 µg/m3 21.35 µg/m3 13.63 µg/m3 0.46 mg/m3 13.35 °C 92.05 % 1,026.86 mbar 0.85 m/s 226.91 Deg 24.55 µg/m3 2.05 µg/m3
2023-01-04 21:00 35.85 µg/m3 1.63 µg/m3 5.82 µg/m3 21.76 µg/m3 13.82 µg/m3 0.49 mg/m3 13.79 °C 91.09 % 1,026.80 mbar 0.68 m/s 229.55 Deg 33.24 µg/m3 3.08 µg/m3
2023-01-04 20:00 45.01 µg/m3 1.42 µg/m3 7.68 µg/m3 23.13 µg/m3 13.76 µg/m3 0.52 mg/m3 14.08 °C 90.72 % 1,026.71 mbar 0.76 m/s 234.18 Deg 50.1 µg/m3 2.83 µg/m3
2023-01-04 19:00 57.06 µg/m3 1.77 µg/m3 1 µg/m3 25.71 µg/m3 13.13 µg/m3 0.52 mg/m3 14.86 °C 88.34 % 1,026.41 mbar 0.07 m/s 216.09 Deg 73.76 µg/m3 3.31 µg/m3
2023-01-04 18:00 50.81 µg/m3 1.27 µg/m3 20.69 µg/m3 21.9 µg/m3 11.73 µg/m3 0.43 mg/m3 16.22 °C 83.35 % 1,026.34 mbar 0.35 m/s 187.66 Deg 43.48 µg/m3 1.94 µg/m3
2023-01-04 17:00 22.41 µg/m3 0.79 µg/m3 48.42 µg/m3 16.79 µg/m3 8.81 µg/m3 0.29 mg/m3 17.38 °C 78.98 % 1,026.29 mbar 1.53 m/s 167.5 Deg 9.32 µg/m3 1.15 µg/m3
2023-01-04 16:00 14.73 µg/m3 0.71 µg/m3 53.75 µg/m3 14.18 µg/m3 7.99 µg/m3 0.29 mg/m3 17.81 °C 76.05 % 1,026.41 mbar 2.37 m/s 267.74 Deg 4.65 µg/m3 1 µg/m3
2023-01-04 15:00 14.34 µg/m3 0.83 µg/m3 55.47 µg/m3 14.37 µg/m3 7.93 µg/m3 0.31 mg/m3 17.89 °C 76.24 % 1,026.46 mbar 2.6 m/s 270.98 Deg 6.24 µg/m3 1.1 µg/m3
2023-01-04 14:00 12.53 µg/m3 0.65 µg/m3 56.03 µg/m3 13.27 µg/m3 7.7 µg/m3 0.33 mg/m3 17.51 °C 81.46 % 1,026.71 mbar 1.32 m/s 189.34 Deg 5.33 µg/m3 0.79 µg/m3
2023-01-04 13:00 15.51 µg/m3 0.72 µg/m3 49.35 µg/m3 17.11 µg/m3 8.8 µg/m3 0.36 mg/m3 17.19 °C 83.66 % 1,027.23 mbar 1.43 m/s 61.69 Deg 6.36 µg/m3 1.12 µg/m3
2023-01-04 12:00 36.49 µg/m3 1.17 µg/m3 31.97 µg/m3 21.53 µg/m3 10.77 µg/m3 0.43 mg/m3 17.1 °C 85.42 % 1,027.89 mbar 1.32 m/s 53.38 Deg 20.58 µg/m3 1.42 µg/m3
2023-01-04 11:00 31.74 µg/m3 1.02 µg/m3 30.33 µg/m3 22.91 µg/m3 10.89 µg/m3 0.48 mg/m3 17.01 °C 86.74 % 1,028.41 mbar 1.13 m/s 54.74 Deg 19.26 µg/m3 1.19 µg/m3
2023-01-04 10:00 36.57 µg/m3 1.35 µg/m3 28.64 µg/m3 27.87 µg/m3 11.64 µg/m3 0.51 mg/m3 17.1 °C 83.59 % 1,028.43 mbar 0.56 m/s 120 Deg 26.15 µg/m3 2.15 µg/m3
2023-01-04 09:00 54.68 µg/m3 2.45 µg/m3 5.02 µg/m3 29.53 µg/m3 14.09 µg/m3 0.68 mg/m3 15.51 °C 89.88 % 1,028.17 mbar 0.53 m/s 207.62 Deg 152.05 µg/m3 4.09 µg/m3
2023-01-04 08:00 52.76 µg/m3 1.83 µg/m3 7.96 µg/m3 24.06 µg/m3 13.25 µg/m3 0.54 mg/m3 15.38 °C 91.21 % 1,027.93 mbar 0.62 m/s 259.07 Deg 108.34 µg/m3 4.15 µg/m3
2023-01-04 07:00 56.08 µg/m3 1.41 µg/m3 6.07 µg/m3 19.42 µg/m3 12.66 µg/m3 0.46 mg/m3 15.68 °C 91.54 % 1,027.58 mbar 0.11 m/s 295.45 Deg 88.91 µg/m3 2.34 µg/m3
2023-01-04 06:00 35.18 µg/m3 0.78 µg/m3 17.9 µg/m3 12.65 µg/m3 8.74 µg/m3 0.29 mg/m3 15.89 °C 93.55 % 1,027.38 mbar 0.71 m/s 250.03 Deg 28.64 µg/m3 0.94 µg/m3
2023-01-04 05:00 14.19 µg/m3 0.42 µg/m3 43.32 µg/m3 10.41 µg/m3 6.83 µg/m3 0.25 mg/m3 16.64 °C 91.6 % 1,027.34 mbar 0.8 m/s 160.4 Deg 2.95 µg/m3 0.58 µg/m3
2023-01-04 04:00 10.81 µg/m3 0.47 µg/m3 53.52 µg/m3 13.24 µg/m3 9.14 µg/m3 0.25 mg/m3 16.78 °C 90.93 % 1,027.48 mbar 1.58 m/s 292.48 Deg -0.08 µg/m3 0.89 µg/m3
2023-01-04 03:00 25.08 µg/m3 0.47 µg/m3 51.22 µg/m3 12.55 µg/m3 8.6 µg/m3 0.18 mg/m3 16.66 °C 90.59 % 1,027.70 mbar 2.01 m/s 237.27 Deg 0.55 µg/m3 0.68 µg/m3
2023-01-04 02:00 5.11 µg/m3 0.3 µg/m3 44.53 µg/m3 11.33 µg/m3 7.73 µg/m3 0.3 mg/m3 16.39 °C 89.67 % 1,027.94 mbar 1.36 m/s 211.8 Deg 0.45 µg/m3 0.87 µg/m3
2023-01-04 01:00 10.07 µg/m3 0.72 µg/m3 36.11 µg/m3 10.83 µg/m3 7.66 µg/m3 0.33 mg/m3 15.7 °C 92.79 % 1,028.21 mbar 1.19 m/s 246.62 Deg 1.44 µg/m3 0.73 µg/m3
2023-01-04 00:00 17.66 µg/m3 0.77 µg/m3 29.58 µg/m3 10.53 µg/m3 6.98 µg/m3 0.38 mg/m3 15.61 °C 91.94 % 1,028.54 mbar 0.97 m/s 229.37 Deg 5.48 µg/m3 1.21 µg/m3
2023-01-03 23:00 20.12 µg/m3 0.67 µg/m3 31.67 µg/m3 9.85 µg/m3 6.24 µg/m3 0.4 mg/m3 16.16 °C 90.25 % 1,028.76 mbar 0.74 m/s 224.71 Deg 6.43 µg/m3 1.1 µg/m3

It is to be noted that the data is provisional and subject to quality assurance procedures. For validated data kindly refer your request to contact.air@era.org.mt